<?xml version='1.0' encoding='UTF-8'?><gpx version="1.1" creator="JPX - https://github.com/jenetics/jpx" xmlns="http://www.topografix.com/GPX/1/1"><trk><trkseg><trkpt lat="45.577351" lon="8.6744833"><ele>188.0</ele><time>2026-04-12T14:45:59.75Z</time></trkpt><trkpt lat="45.5785207" lon="8.6762233"><ele>188.0</ele><time>2026-04-12T14:46:02.463Z</time></trkpt><trkpt lat="45.578521" lon="8.6763188"><ele>188.0</ele><time>2026-04-12T14:46:34.922Z</time></trkpt><trkpt lat="45.5785923" lon="8.6763154"><ele>188.0</ele><time>2026-04-12T14:46:39.923Z</time></trkpt><trkpt lat="45.5786433" lon="8.6762543"><ele>188.0</ele><time>2026-04-12T14:46:45.919Z</time></trkpt><trkpt lat="45.5785683" lon="8.6762139"><ele>188.0</ele><time>2026-04-12T14:46:57.919Z</time></trkpt><trkpt lat="45.5785445" lon="8.6761136"><ele>188.0</ele><time>2026-04-12T14:47:54.929Z</time></trkpt><trkpt lat="45.5784915" lon="8.6762502"><ele>188.0</ele><time>2026-04-12T14:49:40.932Z</time></trkpt><trkpt lat="45.5785437" lon="8.6763285"><ele>188.0</ele><time>2026-04-12T14:50:34.921Z</time></trkpt><trkpt lat="45.5785628" lon="8.6764147"><ele>188.0</ele><time>2026-04-12T14:50:37.928Z</time></trkpt><trkpt lat="45.578588" lon="8.6765199"><ele>188.0</ele><time>2026-04-12T14:50:39.925Z</time></trkpt><trkpt lat="45.5786431" lon="8.676629"><ele>188.0</ele><time>2026-04-12T14:50:41.934Z</time></trkpt><trkpt lat="45.5786903" lon="8.6767171"><ele>188.0</ele><time>2026-04-12T14:50:43.923Z</time></trkpt><trkpt lat="45.5787336" lon="8.6768145"><ele>188.0</ele><time>2026-04-12T14:50:45.929Z</time></trkpt><trkpt lat="45.5787748" lon="8.6769315"><ele>188.0</ele><time>2026-04-12T14:50:47.921Z</time></trkpt><trkpt lat="45.5787946" lon="8.6770277"><ele>188.0</ele><time>2026-04-12T14:50:49.928Z</time></trkpt><trkpt lat="45.5787962" lon="8.6771517"><ele>188.0</ele><time>2026-04-12T14:50:51.927Z</time></trkpt><trkpt lat="45.5787541" lon="8.6772266"><ele>188.0</ele><time>2026-04-12T14:50:53.924Z</time></trkpt><trkpt lat="45.5786706" lon="8.6772563"><ele>188.0</ele><time>2026-04-12T14:50:55.93Z</time></trkpt><trkpt lat="45.5785933" lon="8.6772631"><ele>187.66666666666666</ele><time>2026-04-12T14:50:56.93Z</time></trkpt><trkpt lat="45.5784844" lon="8.6772782"><ele>187.33333333333334</ele><time>2026-04-12T14:50:57.931Z</time></trkpt><trkpt lat="45.5782897" lon="8.6773061"><ele>187.0</ele><time>2026-04-12T14:50:58.93Z</time></trkpt><trkpt lat="45.5781052" lon="8.6773459"><ele>187.0</ele><time>2026-04-12T14:50:59.915Z</time></trkpt><trkpt lat="45.5779478" lon="8.6773739"><ele>187.0</ele><time>2026-04-12T14:51:00.926Z</time></trkpt><trkpt lat="45.5777884" lon="8.677411"><ele>187.0</ele><time>2026-04-12T14:51:01.938Z</time></trkpt><trkpt lat="45.5776486" lon="8.6774413"><ele>186.75</ele><time>2026-04-12T14:51:02.938Z</time></trkpt><trkpt lat="45.5775158" lon="8.6774688"><ele>186.5</ele><time>2026-04-12T14:51:03.924Z</time></trkpt><trkpt lat="45.5773843" lon="8.6775007"><ele>186.25</ele><time>2026-04-12T14:51:04.92Z</time></trkpt><trkpt lat="45.5772554" lon="8.6775251"><ele>186.0</ele><time>2026-04-12T14:51:05.935Z</time></trkpt><trkpt lat="45.5771292" lon="8.6775434"><ele>186.0</ele><time>2026-04-12T14:51:06.941Z</time></trkpt><trkpt lat="45.5770043" lon="8.6775679"><ele>186.0</ele><time>2026-04-12T14:51:07.923Z</time></trkpt><trkpt lat="45.5768825" lon="8.6775866"><ele>186.0</ele><time>2026-04-12T14:51:08.918Z</time></trkpt><trkpt lat="45.5767642" lon="8.6775955"><ele>186.0</ele><time>2026-04-12T14:51:09.933Z</time></trkpt><trkpt lat="45.5766462" lon="8.6776023"><ele>186.0</ele><time>2026-04-12T14:51:10.931Z</time></trkpt><trkpt lat="45.5765296" lon="8.6776085"><ele>186.0</ele><time>2026-04-12T14:51:11.923Z</time></trkpt><trkpt lat="45.5764164" lon="8.6776125"><ele>186.0</ele><time>2026-04-12T14:51:12.932Z</time></trkpt><trkpt lat="45.5763056" lon="8.6776202"><ele>186.0</ele><time>2026-04-12T14:51:13.924Z</time></trkpt><trkpt lat="45.5761941" lon="8.6776199"><ele>186.0</ele><time>2026-04-12T14:51:14.927Z</time></trkpt><trkpt lat="45.5760778" lon="8.6776188"><ele>186.0</ele><time>2026-04-12T14:51:15.935Z</time></trkpt><trkpt lat="45.5759606" lon="8.6776201"><ele>186.0</ele><time>2026-04-12T14:51:16.927Z</time></trkpt><trkpt lat="45.5758418" lon="8.6776212"><ele>186.0</ele><time>2026-04-12T14:51:17.926Z</time></trkpt><trkpt lat="45.5757224" lon="8.677623"><ele>186.0</ele><time>2026-04-12T14:51:18.934Z</time></trkpt><trkpt lat="45.5756042" lon="8.6776258"><ele>186.0</ele><time>2026-04-12T14:51:19.929Z</time></trkpt><trkpt lat="45.5754872" lon="8.6776272"><ele>186.0</ele><time>2026-04-12T14:51:20.94Z</time></trkpt><trkpt lat="45.5753716" lon="8.6776278"><ele>186.0</ele><time>2026-04-12T14:51:21.933Z</time></trkpt><trkpt lat="45.5752563" lon="8.6776269"><ele>185.75</ele><time>2026-04-12T14:51:22.929Z</time></trkpt><trkpt lat="45.5751414" lon="8.6776254"><ele>185.5</ele><time>2026-04-12T14:51:23.946Z</time></trkpt><trkpt lat="45.5750279" lon="8.6776261"><ele>185.25</ele><time>2026-04-12T14:51:24.939Z</time></trkpt><trkpt lat="45.5749143" lon="8.6776293"><ele>185.0</ele><time>2026-04-12T14:51:25.93Z</time></trkpt><trkpt lat="45.5747964" lon="8.6776323"><ele>185.0</ele><time>2026-04-12T14:51:26.924Z</time></trkpt><trkpt lat="45.5746807" lon="8.6776342"><ele>185.0</ele><time>2026-04-12T14:51:27.931Z</time></trkpt><trkpt lat="45.5745678" lon="8.6776354"><ele>185.0</ele><time>2026-04-12T14:51:28.929Z</time></trkpt><trkpt lat="45.5744588" lon="8.6776336"><ele>185.0</ele><time>2026-04-12T14:51:29.935Z</time></trkpt><trkpt lat="45.5743529" lon="8.6776384"><ele>185.0</ele><time>2026-04-12T14:51:30.932Z</time></trkpt><trkpt lat="45.574247" lon="8.6776388"><ele>184.8</ele><time>2026-04-12T14:51:31.931Z</time></trkpt><trkpt lat="45.5741446" lon="8.6776406"><ele>184.6</ele><time>2026-04-12T14:51:32.925Z</time></trkpt><trkpt lat="45.5740426" lon="8.6776412"><ele>184.39999999999998</ele><time>2026-04-12T14:51:33.921Z</time></trkpt><trkpt lat="45.5739398" lon="8.6776456"><ele>184.2</ele><time>2026-04-12T14:51:34.93Z</time></trkpt><trkpt lat="45.5738392" lon="8.6776535"><ele>184.0</ele><time>2026-04-12T14:51:35.926Z</time></trkpt><trkpt lat="45.5737398" lon="8.6776646"><ele>184.0</ele><time>2026-04-12T14:51:36.939Z</time></trkpt><trkpt lat="45.573641" lon="8.6776792"><ele>184.0</ele><time>2026-04-12T14:51:37.933Z</time></trkpt><trkpt lat="45.5735554" lon="8.6776922"><ele>184.0</ele><time>2026-04-12T14:51:38.942Z</time></trkpt><trkpt lat="45.5734898" lon="8.6776976"><ele>184.0</ele><time>2026-04-12T14:51:39.925Z</time></trkpt><trkpt lat="45.5733788" lon="8.6777012"><ele>184.0</ele><time>2026-04-12T14:51:41.927Z</time></trkpt><trkpt lat="45.5732524" lon="8.6777051"><ele>184.0</ele><time>2026-04-12T14:51:43.937Z</time></trkpt><trkpt lat="45.5731893" lon="8.6777059"><ele>184.0</ele><time>2026-04-12T14:51:44.944Z</time></trkpt><trkpt lat="45.5731251" lon="8.6777109"><ele>184.0</ele><time>2026-04-12T14:51:45.932Z</time></trkpt><trkpt lat="45.5730178" lon="8.6777225"><ele>184.0</ele><time>2026-04-12T14:51:47.932Z</time></trkpt><trkpt lat="45.5729564" lon="8.6777429"><ele>184.0</ele><time>2026-04-12T14:51:49.933Z</time></trkpt><trkpt lat="45.5728566" lon="8.677791"><ele>184.0</ele><time>2026-04-12T14:52:03.922Z</time></trkpt><trkpt lat="45.5727572" lon="8.6778587"><ele>184.33333333333334</ele><time>2026-04-12T14:52:05.928Z</time></trkpt><trkpt lat="45.5727005" lon="8.6779022"><ele>184.66666666666669</ele><time>2026-04-12T14:52:06.926Z</time></trkpt><trkpt lat="45.5726309" lon="8.6779528"><ele>185.0</ele><time>2026-04-12T14:52:07.933Z</time></trkpt><trkpt lat="45.5725625" lon="8.6779997"><ele>185.33333333333334</ele><time>2026-04-12T14:52:08.923Z</time></trkpt><trkpt lat="45.5724905" lon="8.6780468"><ele>185.66666666666666</ele><time>2026-04-12T14:52:09.921Z</time></trkpt><trkpt lat="45.5724178" lon="8.6780877"><ele>186.0</ele><time>2026-04-12T14:52:10.922Z</time></trkpt><trkpt lat="45.5723394" lon="8.678123"><ele>186.0</ele><time>2026-04-12T14:52:11.934Z</time></trkpt><trkpt lat="45.5722588" lon="8.678155"><ele>186.0</ele><time>2026-04-12T14:52:12.93Z</time></trkpt><trkpt lat="45.5721655" lon="8.6781822"><ele>186.0</ele><time>2026-04-12T14:52:13.921Z</time></trkpt><trkpt lat="45.5720656" lon="8.6782117"><ele>186.0</ele><time>2026-04-12T14:52:14.933Z</time></trkpt><trkpt lat="45.571948" lon="8.6782437"><ele>186.0</ele><time>2026-04-12T14:52:15.921Z</time></trkpt><trkpt lat="45.5718263" lon="8.6782921"><ele>185.25</ele><time>2026-04-12T14:52:16.935Z</time></trkpt><trkpt lat="45.571695" lon="8.6783476"><ele>184.5</ele><time>2026-04-12T14:52:17.929Z</time></trkpt><trkpt lat="45.571569" lon="8.6783979"><ele>183.75</ele><time>2026-04-12T14:52:18.924Z</time></trkpt><trkpt lat="45.5714399" lon="8.678427"><ele>183.0</ele><time>2026-04-12T14:52:19.941Z</time></trkpt><trkpt lat="45.5713098" lon="8.6784527"><ele>182.75</ele><time>2026-04-12T14:52:20.923Z</time></trkpt><trkpt lat="45.5711776" lon="8.6784907"><ele>182.5</ele><time>2026-04-12T14:52:21.939Z</time></trkpt><trkpt lat="45.5710476" lon="8.6785255"><ele>182.25</ele><time>2026-04-12T14:52:22.926Z</time></trkpt><trkpt lat="45.5709236" lon="8.6785725"><ele>182.0</ele><time>2026-04-12T14:52:23.924Z</time></trkpt><trkpt lat="45.5708029" lon="8.678618"><ele>182.0</ele><time>2026-04-12T14:52:24.93Z</time></trkpt><trkpt lat="45.5706855" lon="8.6786579"><ele>182.0</ele><time>2026-04-12T14:52:25.924Z</time></trkpt><trkpt lat="45.5705537" lon="8.6786855"><ele>182.0</ele><time>2026-04-12T14:52:26.933Z</time></trkpt><trkpt lat="45.5704196" lon="8.6787057"><ele>182.0</ele><time>2026-04-12T14:52:27.935Z</time></trkpt><trkpt lat="45.5702985" lon="8.6787226"><ele>182.0</ele><time>2026-04-12T14:52:28.927Z</time></trkpt><trkpt lat="45.5701831" lon="8.6787384"><ele>182.0</ele><time>2026-04-12T14:52:29.927Z</time></trkpt><trkpt lat="45.5700795" lon="8.6787578"><ele>182.0</ele><time>2026-04-12T14:52:30.933Z</time></trkpt><trkpt lat="45.570001" lon="8.6787753"><ele>182.0</ele><time>2026-04-12T14:52:31.931Z</time></trkpt><trkpt lat="45.5699278" lon="8.6788135"><ele>182.0</ele><time>2026-04-12T14:52:33.924Z</time></trkpt><trkpt lat="45.5698971" lon="8.678907"><ele>182.0</ele><time>2026-04-12T14:52:36.931Z</time></trkpt><trkpt lat="45.5699111" lon="8.6790179"><ele>182.0</ele><time>2026-04-12T14:52:39.932Z</time></trkpt><trkpt lat="45.5699219" lon="8.6791299"><ele>182.0</ele><time>2026-04-12T14:52:41.941Z</time></trkpt><trkpt lat="45.5699472" lon="8.6793326"><ele>182.0</ele><time>2026-04-12T14:52:43.922Z</time></trkpt><trkpt lat="45.5699682" lon="8.6794648"><ele>182.0</ele><time>2026-04-12T14:52:44.923Z</time></trkpt><trkpt lat="45.5699899" lon="8.6796099"><ele>182.39999999999998</ele><time>2026-04-12T14:52:45.934Z</time></trkpt><trkpt lat="45.5700114" lon="8.6797646"><ele>182.79999999999998</ele><time>2026-04-12T14:52:46.936Z</time></trkpt><trkpt lat="45.5700326" lon="8.6799194"><ele>183.2</ele><time>2026-04-12T14:52:47.922Z</time></trkpt><trkpt lat="45.570055" lon="8.6800794"><ele>183.6</ele><time>2026-04-12T14:52:48.933Z</time></trkpt><trkpt lat="45.5700759" lon="8.6802379"><ele>184.0</ele><time>2026-04-12T14:52:49.927Z</time></trkpt><trkpt lat="45.5700973" lon="8.6803986"><ele>184.0</ele><time>2026-04-12T14:52:50.928Z</time></trkpt><trkpt lat="45.5701221" lon="8.6805625"><ele>184.0</ele><time>2026-04-12T14:52:51.929Z</time></trkpt><trkpt lat="45.5701472" lon="8.6807258"><ele>184.0</ele><time>2026-04-12T14:52:52.923Z</time></trkpt><trkpt lat="45.5701685" lon="8.6808896"><ele>184.0</ele><time>2026-04-12T14:52:53.933Z</time></trkpt><trkpt lat="45.5701902" lon="8.6810479"><ele>183.79999999999998</ele><time>2026-04-12T14:52:54.933Z</time></trkpt><trkpt lat="45.5702117" lon="8.6812017"><ele>183.6</ele><time>2026-04-12T14:52:55.942Z</time></trkpt><trkpt lat="45.5702334" lon="8.6813551"><ele>183.4</ele><time>2026-04-12T14:52:56.925Z</time></trkpt><trkpt lat="45.5702585" lon="8.6815082"><ele>183.2</ele><time>2026-04-12T14:52:57.924Z</time></trkpt><trkpt lat="45.5702834" lon="8.6816654"><ele>183.0</ele><time>2026-04-12T14:52:58.935Z</time></trkpt><trkpt lat="45.5703072" lon="8.6818207"><ele>183.2</ele><time>2026-04-12T14:52:59.922Z</time></trkpt><trkpt lat="45.5703318" lon="8.6819709"><ele>183.4</ele><time>2026-04-12T14:53:00.942Z</time></trkpt><trkpt lat="45.5703577" lon="8.6821228"><ele>183.6</ele><time>2026-04-12T14:53:01.933Z</time></trkpt><trkpt lat="45.5703827" lon="8.6822783"><ele>183.79999999999998</ele><time>2026-04-12T14:53:02.929Z</time></trkpt><trkpt lat="45.5703993" lon="8.6824354"><ele>184.0</ele><time>2026-04-12T14:53:03.931Z</time></trkpt><trkpt lat="45.5704108" lon="8.6825958"><ele>184.2</ele><time>2026-04-12T14:53:04.932Z</time></trkpt><trkpt lat="45.5704253" lon="8.682753"><ele>184.39999999999998</ele><time>2026-04-12T14:53:05.928Z</time></trkpt><trkpt lat="45.5704455" lon="8.6829053"><ele>184.6</ele><time>2026-04-12T14:53:06.937Z</time></trkpt><trkpt lat="45.5704663" lon="8.6830428"><ele>184.8</ele><time>2026-04-12T14:53:07.932Z</time></trkpt><trkpt lat="45.570485" lon="8.6831668"><ele>185.0</ele><time>2026-04-12T14:53:08.931Z</time></trkpt><trkpt lat="45.5704852" lon="8.6832678"><ele>184.7142857142857</ele><time>2026-04-12T14:53:09.928Z</time></trkpt><trkpt lat="45.5704717" lon="8.6833662"><ele>184.42857142857142</ele><time>2026-04-12T14:53:10.933Z</time></trkpt><trkpt lat="45.5704417" lon="8.6834474"><ele>184.14285714285714</ele><time>2026-04-12T14:53:11.924Z</time></trkpt><trkpt lat="45.5703986" lon="8.6835249"><ele>183.85714285714283</ele><time>2026-04-12T14:53:12.921Z</time></trkpt><trkpt lat="45.5703409" lon="8.6835928"><ele>183.57142857142858</ele><time>2026-04-12T14:53:13.933Z</time></trkpt><trkpt lat="45.5702724" lon="8.6836441"><ele>183.28571428571428</ele><time>2026-04-12T14:53:14.947Z</time></trkpt><trkpt lat="45.5701895" lon="8.6836891"><ele>183.0</ele><time>2026-04-12T14:53:15.931Z</time></trkpt><trkpt lat="45.5700957" lon="8.6837256"><ele>181.2</ele><time>2026-04-12T14:53:16.924Z</time></trkpt><trkpt lat="45.5699957" lon="8.6837613"><ele>179.4</ele><time>2026-04-12T14:53:17.931Z</time></trkpt><trkpt lat="45.5698963" lon="8.6837959"><ele>177.6</ele><time>2026-04-12T14:53:18.925Z</time></trkpt><trkpt lat="45.5697998" lon="8.6838314"><ele>175.79999999999998</ele><time>2026-04-12T14:53:19.922Z</time></trkpt><trkpt lat="45.5697056" lon="8.6838681"><ele>174.0</ele><time>2026-04-12T14:53:20.94Z</time></trkpt><trkpt lat="45.5696168" lon="8.6839053"><ele>174.0</ele><time>2026-04-12T14:53:21.928Z</time></trkpt><trkpt lat="45.5695314" lon="8.6839411"><ele>174.0</ele><time>2026-04-12T14:53:22.934Z</time></trkpt><trkpt lat="45.5694484" lon="8.6839748"><ele>174.0</ele><time>2026-04-12T14:53:23.933Z</time></trkpt><trkpt lat="45.5693688" lon="8.6840046"><ele>174.0</ele><time>2026-04-12T14:53:24.93Z</time></trkpt><trkpt lat="45.5692903" lon="8.6840322"><ele>174.0</ele><time>2026-04-12T14:53:25.923Z</time></trkpt><trkpt lat="45.5692154" lon="8.6840626"><ele>174.0</ele><time>2026-04-12T14:53:26.929Z</time></trkpt><trkpt lat="45.569143" lon="8.6840873"><ele>174.33333333333334</ele><time>2026-04-12T14:53:27.936Z</time></trkpt><trkpt lat="45.5690726" lon="8.6841105"><ele>174.66666666666666</ele><time>2026-04-12T14:53:28.928Z</time></trkpt><trkpt lat="45.5690053" lon="8.6841346"><ele>175.0</ele><time>2026-04-12T14:53:29.942Z</time></trkpt><trkpt lat="45.5689396" lon="8.6841591"><ele>175.33333333333331</ele><time>2026-04-12T14:53:30.929Z</time></trkpt><trkpt lat="45.5688766" lon="8.6841863"><ele>175.66666666666666</ele><time>2026-04-12T14:53:31.936Z</time></trkpt><trkpt lat="45.5687602" lon="8.6842455"><ele>176.0</ele><time>2026-04-12T14:53:33.931Z</time></trkpt><trkpt lat="45.5686657" lon="8.6843403"><ele>175.0</ele><time>2026-04-12T14:53:35.938Z</time></trkpt><trkpt lat="45.568609" lon="8.6844745"><ele>174.0</ele><time>2026-04-12T14:53:37.931Z</time></trkpt><trkpt lat="45.5685872" lon="8.6846219"><ele>173.0</ele><time>2026-04-12T14:53:39.941Z</time></trkpt><trkpt lat="45.5686068" lon="8.6847674"><ele>172.0</ele><time>2026-04-12T14:53:41.93Z</time></trkpt><trkpt lat="45.5686659" lon="8.6848877"><ele>171.0</ele><time>2026-04-12T14:53:43.936Z</time></trkpt><trkpt lat="45.5687205" lon="8.6849565"><ele>170.0</ele><time>2026-04-12T14:53:45.946Z</time></trkpt><trkpt lat="45.5687965" lon="8.6849882"><ele>169.0</ele><time>2026-04-12T14:53:48.932Z</time></trkpt><trkpt lat="45.5688799" lon="8.6849822"><ele>168.0</ele><time>2026-04-12T14:53:50.925Z</time></trkpt><trkpt lat="45.5690142" lon="8.6849585"><ele>167.0</ele><time>2026-04-12T14:53:52.931Z</time></trkpt><trkpt lat="45.5690922" lon="8.6849432"><ele>166.0</ele><time>2026-04-12T14:53:53.934Z</time></trkpt><trkpt lat="45.5691734" lon="8.6849316"><ele>166.0</ele><time>2026-04-12T14:53:54.922Z</time></trkpt><trkpt lat="45.5692517" lon="8.6849117"><ele>166.0</ele><time>2026-04-12T14:53:55.93Z</time></trkpt><trkpt lat="45.569337" lon="8.6848981"><ele>166.0</ele><time>2026-04-12T14:53:56.935Z</time></trkpt><trkpt lat="45.5694206" lon="8.6848851"><ele>166.0</ele><time>2026-04-12T14:53:57.925Z</time></trkpt><trkpt lat="45.5695092" lon="8.6848573"><ele>166.0</ele><time>2026-04-12T14:53:58.934Z</time></trkpt><trkpt lat="45.5695981" lon="8.6848294"><ele>166.0</ele><time>2026-04-12T14:53:59.929Z</time></trkpt><trkpt lat="45.5696924" lon="8.6848068"><ele>164.5</ele><time>2026-04-12T14:54:00.921Z</time></trkpt><trkpt lat="45.5697807" lon="8.6847874"><ele>163.0</ele><time>2026-04-12T14:54:01.929Z</time></trkpt><trkpt lat="45.5698682" lon="8.6847664"><ele>161.5</ele><time>2026-04-12T14:54:02.933Z</time></trkpt><trkpt lat="45.5699489" lon="8.684747"><ele>160.0</ele><time>2026-04-12T14:54:03.929Z</time></trkpt><trkpt lat="45.570021" lon="8.6847338"><ele>158.5</ele><time>2026-04-12T14:54:04.936Z</time></trkpt><trkpt lat="45.5700943" lon="8.6847318"><ele>157.0</ele><time>2026-04-12T14:54:05.921Z</time></trkpt><trkpt lat="45.5701738" lon="8.6847275"><ele>157.0</ele><time>2026-04-12T14:54:06.922Z</time></trkpt><trkpt lat="45.5702554" lon="8.6847386"><ele>157.0</ele><time>2026-04-12T14:54:07.937Z</time></trkpt><trkpt lat="45.5703338" lon="8.6847782"><ele>157.0</ele><time>2026-04-12T14:54:08.922Z</time></trkpt><trkpt lat="45.5703994" lon="8.6848539"><ele>157.0</ele><time>2026-04-12T14:54:09.935Z</time></trkpt><trkpt lat="45.5704512" lon="8.6849482"><ele>157.0</ele><time>2026-04-12T14:54:10.933Z</time></trkpt><trkpt lat="45.570492" lon="8.6850514"><ele>157.0</ele><time>2026-04-12T14:54:11.929Z</time></trkpt><trkpt lat="45.5705293" lon="8.6851535"><ele>156.7142857142857</ele><time>2026-04-12T14:54:12.931Z</time></trkpt><trkpt lat="45.5705588" lon="8.6852553"><ele>156.42857142857142</ele><time>2026-04-12T14:54:13.934Z</time></trkpt><trkpt lat="45.5705906" lon="8.6853525"><ele>156.14285714285714</ele><time>2026-04-12T14:54:14.935Z</time></trkpt><trkpt lat="45.5706201" lon="8.6854452"><ele>155.85714285714283</ele><time>2026-04-12T14:54:15.932Z</time></trkpt><trkpt lat="45.5706437" lon="8.6855339"><ele>155.57142857142856</ele><time>2026-04-12T14:54:16.931Z</time></trkpt><trkpt lat="45.570659" lon="8.6856214"><ele>155.28571428571428</ele><time>2026-04-12T14:54:17.923Z</time></trkpt><trkpt lat="45.5706697" lon="8.6857103"><ele>155.0</ele><time>2026-04-12T14:54:18.93Z</time></trkpt><trkpt lat="45.5706777" lon="8.6858767"><ele>154.25</ele><time>2026-04-12T14:54:20.933Z</time></trkpt><trkpt lat="45.5706604" lon="8.6860306"><ele>153.5</ele><time>2026-04-12T14:54:22.928Z</time></trkpt><trkpt lat="45.57063" lon="8.6861956"><ele>152.75</ele><time>2026-04-12T14:54:24.933Z</time></trkpt><trkpt lat="45.5705687" lon="8.6863362"><ele>152.0</ele><time>2026-04-12T14:54:26.935Z</time></trkpt><trkpt lat="45.5704822" lon="8.6864577"><ele>151.75</ele><time>2026-04-12T14:54:28.934Z</time></trkpt><trkpt lat="45.5704023" lon="8.6865873"><ele>151.5</ele><time>2026-04-12T14:54:30.938Z</time></trkpt><trkpt lat="45.57033" lon="8.6867309"><ele>151.25</ele><time>2026-04-12T14:54:32.923Z</time></trkpt><trkpt lat="45.5702851" lon="8.6868886"><ele>151.0</ele><time>2026-04-12T14:54:34.932Z</time></trkpt><trkpt lat="45.5702638" lon="8.6870489"><ele>150.83333333333334</ele><time>2026-04-12T14:54:36.938Z</time></trkpt><trkpt lat="45.5702589" lon="8.687152"><ele>150.66666666666669</ele><time>2026-04-12T14:54:37.93Z</time></trkpt><trkpt lat="45.5702529" lon="8.6872734"><ele>150.5</ele><time>2026-04-12T14:54:38.925Z</time></trkpt><trkpt lat="45.5702484" lon="8.6873977"><ele>150.33333333333334</ele><time>2026-04-12T14:54:39.923Z</time></trkpt><trkpt lat="45.5702524" lon="8.6875289"><ele>150.16666666666666</ele><time>2026-04-12T14:54:40.916Z</time></trkpt><trkpt lat="45.5702511" lon="8.6876659"><ele>150.0</ele><time>2026-04-12T14:54:41.915Z</time></trkpt><trkpt lat="45.570252" lon="8.6878068"><ele>150.0</ele><time>2026-04-12T14:54:42.93Z</time></trkpt><trkpt lat="45.5702587" lon="8.6879409"><ele>150.0</ele><time>2026-04-12T14:54:43.934Z</time></trkpt><trkpt lat="45.5702649" lon="8.6880674"><ele>150.0</ele><time>2026-04-12T14:54:44.937Z</time></trkpt><trkpt lat="45.5702802" lon="8.6881819"><ele>150.0</ele><time>2026-04-12T14:54:45.938Z</time></trkpt><trkpt lat="45.5702957" lon="8.688281"><ele>150.0</ele><time>2026-04-12T14:54:46.924Z</time></trkpt><trkpt lat="45.570313" lon="8.6884106"><ele>150.0</ele><time>2026-04-12T14:54:48.938Z</time></trkpt><trkpt lat="45.5703591" lon="8.6883318"><ele>150.75</ele><time>2026-04-12T14:54:54.921Z</time></trkpt><trkpt lat="45.5705069" lon="8.6883123"><ele>151.5</ele><time>2026-04-12T14:54:56.933Z</time></trkpt><trkpt lat="45.5706192" lon="8.6882973"><ele>152.25</ele><time>2026-04-12T14:54:57.928Z</time></trkpt><trkpt lat="45.5707253" lon="8.6882906"><ele>153.0</ele><time>2026-04-12T14:54:58.933Z</time></trkpt><trkpt lat="45.5708161" lon="8.6883023"><ele>153.0</ele><time>2026-04-12T14:54:59.924Z</time></trkpt><trkpt lat="45.5708901" lon="8.6883379"><ele>153.0</ele><time>2026-04-12T14:55:00.945Z</time></trkpt><trkpt lat="45.5709487" lon="8.688391"><ele>153.0</ele><time>2026-04-12T14:55:01.915Z</time></trkpt><trkpt lat="45.5710282" lon="8.6885253"><ele>153.0</ele><time>2026-04-12T14:55:03.936Z</time></trkpt><trkpt lat="45.571102" lon="8.6886337"><ele>153.0</ele><time>2026-04-12T14:55:05.932Z</time></trkpt><trkpt lat="45.5711343" lon="8.6887197"><ele>153.0</ele><time>2026-04-12T14:55:07.935Z</time></trkpt><trkpt lat="45.5711395" lon="8.6888223"><ele>152.20000000000002</ele><time>2026-04-12T14:55:10.945Z</time></trkpt><trkpt lat="45.5711546" lon="8.6889473"><ele>151.4</ele><time>2026-04-12T14:55:12.935Z</time></trkpt><trkpt lat="45.5711646" lon="8.6890728"><ele>150.60000000000002</ele><time>2026-04-12T14:55:14.925Z</time></trkpt><trkpt lat="45.5711842" lon="8.6892194"><ele>149.8</ele><time>2026-04-12T14:55:16.937Z</time></trkpt><trkpt lat="45.5712074" lon="8.6893852"><ele>149.0</ele><time>2026-04-12T14:55:18.934Z</time></trkpt><trkpt lat="45.5712466" lon="8.6895331"><ele>148.8</ele><time>2026-04-12T14:55:20.932Z</time></trkpt><trkpt lat="45.5712958" lon="8.6896926"><ele>148.60000000000002</ele><time>2026-04-12T14:55:22.931Z</time></trkpt><trkpt lat="45.5713287" lon="8.689801"><ele>148.4</ele><time>2026-04-12T14:55:23.921Z</time></trkpt><trkpt lat="45.5713643" lon="8.6899226"><ele>148.20000000000002</ele><time>2026-04-12T14:55:24.925Z</time></trkpt><trkpt lat="45.5714" lon="8.6900476"><ele>148.0</ele><time>2026-04-12T14:55:25.946Z</time></trkpt><trkpt lat="45.5714371" lon="8.6901668"><ele>148.20000000000002</ele><time>2026-04-12T14:55:26.922Z</time></trkpt><trkpt lat="45.5714724" lon="8.6902819"><ele>148.4</ele><time>2026-04-12T14:55:27.934Z</time></trkpt><trkpt lat="45.5715043" lon="8.6904115"><ele>148.60000000000002</ele><time>2026-04-12T14:55:28.934Z</time></trkpt><trkpt lat="45.5715287" lon="8.6905532"><ele>148.8</ele><time>2026-04-12T14:55:29.943Z</time></trkpt><trkpt lat="45.571551" lon="8.6906983"><ele>149.0</ele><time>2026-04-12T14:55:30.928Z</time></trkpt><trkpt lat="45.5715718" lon="8.6908534"><ele>149.0</ele><time>2026-04-12T14:55:31.937Z</time></trkpt><trkpt lat="45.571594" lon="8.6910106"><ele>149.0</ele><time>2026-04-12T14:55:32.925Z</time></trkpt><trkpt lat="45.5716197" lon="8.6911659"><ele>149.0</ele><time>2026-04-12T14:55:33.931Z</time></trkpt><trkpt lat="45.5716453" lon="8.691315"><ele>149.0</ele><time>2026-04-12T14:55:34.925Z</time></trkpt><trkpt lat="45.5716679" lon="8.6914618"><ele>149.0</ele><time>2026-04-12T14:55:35.926Z</time></trkpt><trkpt lat="45.5716866" lon="8.6916047"><ele>149.2</ele><time>2026-04-12T14:55:36.961Z</time></trkpt><trkpt lat="45.5717091" lon="8.6917435"><ele>149.4</ele><time>2026-04-12T14:55:37.926Z</time></trkpt><trkpt lat="45.5717373" lon="8.6918806"><ele>149.6</ele><time>2026-04-12T14:55:38.941Z</time></trkpt><trkpt lat="45.5717788" lon="8.6920155"><ele>149.8</ele><time>2026-04-12T14:55:39.93Z</time></trkpt><trkpt lat="45.5718366" lon="8.6921396"><ele>150.0</ele><time>2026-04-12T14:55:40.93Z</time></trkpt><trkpt lat="45.571909" lon="8.692264"><ele>150.5</ele><time>2026-04-12T14:55:41.928Z</time></trkpt><trkpt lat="45.5719831" lon="8.6923895"><ele>151.0</ele><time>2026-04-12T14:55:42.933Z</time></trkpt><trkpt lat="45.57206" lon="8.6925118"><ele>151.5</ele><time>2026-04-12T14:55:43.94Z</time></trkpt><trkpt lat="45.5721504" lon="8.6926431"><ele>152.0</ele><time>2026-04-12T14:55:44.941Z</time></trkpt><trkpt lat="45.5722361" lon="8.6927664"><ele>152.25</ele><time>2026-04-12T14:55:45.932Z</time></trkpt><trkpt lat="45.5723223" lon="8.6928932"><ele>152.5</ele><time>2026-04-12T14:55:46.938Z</time></trkpt><trkpt lat="45.5724072" lon="8.6930147"><ele>152.75</ele><time>2026-04-12T14:55:47.922Z</time></trkpt><trkpt lat="45.57249" lon="8.6931251"><ele>153.0</ele><time>2026-04-12T14:55:48.942Z</time></trkpt><trkpt lat="45.5725679" lon="8.6932273"><ele>153.0</ele><time>2026-04-12T14:55:49.924Z</time></trkpt><trkpt lat="45.5726498" lon="8.6933"><ele>153.0</ele><time>2026-04-12T14:55:50.926Z</time></trkpt><trkpt lat="45.5727367" lon="8.6933453"><ele>153.0</ele><time>2026-04-12T14:55:51.929Z</time></trkpt><trkpt lat="45.5728161" lon="8.6933875"><ele>153.0</ele><time>2026-04-12T14:55:52.933Z</time></trkpt><trkpt lat="45.5728804" lon="8.693421"><ele>153.0</ele><time>2026-04-12T14:55:53.935Z</time></trkpt><trkpt lat="45.5729402" lon="8.6934561"><ele>153.0</ele><time>2026-04-12T14:55:54.929Z</time></trkpt><trkpt lat="45.5730038" lon="8.6935036"><ele>153.0</ele><time>2026-04-12T14:55:55.936Z</time></trkpt><trkpt lat="45.5730827" lon="8.6935944"><ele>153.0</ele><time>2026-04-12T14:55:57.942Z</time></trkpt><trkpt lat="45.5731115" lon="8.6936932"><ele>153.0</ele><time>2026-04-12T14:55:59.949Z</time></trkpt><trkpt lat="45.5731344" lon="8.6938085"><ele>153.0</ele><time>2026-04-12T14:56:03.93Z</time></trkpt><trkpt lat="45.5732055" lon="8.6938384"><ele>153.0</ele><time>2026-04-12T14:56:07.941Z</time></trkpt><trkpt lat="45.5732955" lon="8.6938374"><ele>153.0</ele><time>2026-04-12T14:56:10.934Z</time></trkpt><trkpt lat="45.5733809" lon="8.6938338"><ele>153.0</ele><time>2026-04-12T14:56:12.93Z</time></trkpt><trkpt lat="45.5734742" lon="8.6938418"><ele>153.0</ele><time>2026-04-12T14:56:14.932Z</time></trkpt><trkpt lat="45.5735841" lon="8.693853"><ele>153.0</ele><time>2026-04-12T14:56:16.943Z</time></trkpt><trkpt lat="45.5736735" lon="8.6938587"><ele>153.0</ele><time>2026-04-12T14:56:18.933Z</time></trkpt><trkpt lat="45.5737584" lon="8.6938676"><ele>153.0</ele><time>2026-04-12T14:56:20.926Z</time></trkpt><trkpt lat="45.5738254" lon="8.6938665"><ele>153.0</ele><time>2026-04-12T14:56:22.938Z</time></trkpt><trkpt lat="45.5739228" lon="8.6938571"><ele>152.4</ele><time>2026-04-12T14:56:24.924Z</time></trkpt><trkpt lat="45.5740493" lon="8.6938344"><ele>151.8</ele><time>2026-04-12T14:56:26.921Z</time></trkpt><trkpt lat="45.5741261" lon="8.6938203"><ele>151.2</ele><time>2026-04-12T14:56:27.924Z</time></trkpt><trkpt lat="45.5742101" lon="8.6937898"><ele>150.6</ele><time>2026-04-12T14:56:28.935Z</time></trkpt><trkpt lat="45.5742953" lon="8.6937507"><ele>150.0</ele><time>2026-04-12T14:56:29.923Z</time></trkpt><trkpt lat="45.5743633" lon="8.6937006"><ele>150.0</ele><time>2026-04-12T14:56:30.929Z</time></trkpt><trkpt lat="45.574432" lon="8.6936343"><ele>150.0</ele><time>2026-04-12T14:56:31.929Z</time></trkpt><trkpt lat="45.5744999" lon="8.6935607"><ele>150.0</ele><time>2026-04-12T14:56:32.931Z</time></trkpt><trkpt lat="45.5745621" lon="8.6934876"><ele>150.0</ele><time>2026-04-12T14:56:33.94Z</time></trkpt><trkpt lat="45.5746282" lon="8.6934126"><ele>150.0</ele><time>2026-04-12T14:56:34.936Z</time></trkpt><trkpt lat="45.5746957" lon="8.6933407"><ele>150.0</ele><time>2026-04-12T14:56:35.933Z</time></trkpt><trkpt lat="45.5747575" lon="8.6932869"><ele>150.16666666666666</ele><time>2026-04-12T14:56:36.947Z</time></trkpt><trkpt lat="45.5748453" lon="8.6932414"><ele>150.33333333333334</ele><time>2026-04-12T14:56:38.927Z</time></trkpt><trkpt lat="45.5749536" lon="8.6932639"><ele>150.5</ele><time>2026-04-12T14:56:40.922Z</time></trkpt><trkpt lat="45.5750275" lon="8.6932848"><ele>150.66666666666669</ele><time>2026-04-12T14:56:41.931Z</time></trkpt><trkpt lat="45.5751146" lon="8.6933078"><ele>150.83333333333334</ele><time>2026-04-12T14:56:42.933Z</time></trkpt><trkpt lat="45.5751933" lon="8.6933342"><ele>151.0</ele><time>2026-04-12T14:56:43.927Z</time></trkpt><trkpt lat="45.5752617" lon="8.6933472"><ele>149.75</ele><time>2026-04-12T14:56:44.936Z</time></trkpt><trkpt lat="45.5753838" lon="8.6933146"><ele>148.5</ele><time>2026-04-12T14:56:46.924Z</time></trkpt><trkpt lat="45.5754699" lon="8.6932434"><ele>147.25</ele><time>2026-04-12T14:56:47.925Z</time></trkpt><trkpt lat="45.5755868" lon="8.6931691"><ele>146.0</ele><time>2026-04-12T14:56:48.924Z</time></trkpt><trkpt lat="45.5757056" lon="8.6930947"><ele>146.0</ele><time>2026-04-12T14:56:49.922Z</time></trkpt><trkpt lat="45.575822" lon="8.6930206"><ele>146.0</ele><time>2026-04-12T14:56:50.923Z</time></trkpt><trkpt lat="45.575933" lon="8.6929478"><ele>146.0</ele><time>2026-04-12T14:56:51.925Z</time></trkpt><trkpt lat="45.5760472" lon="8.6928698"><ele>146.0</ele><time>2026-04-12T14:56:52.926Z</time></trkpt><trkpt lat="45.5761653" lon="8.6927955"><ele>146.0</ele><time>2026-04-12T14:56:53.928Z</time></trkpt><trkpt lat="45.5762791" lon="8.6927399"><ele>146.0</ele><time>2026-04-12T14:56:54.927Z</time></trkpt><trkpt lat="45.5763945" lon="8.6926809"><ele>146.0</ele><time>2026-04-12T14:56:55.926Z</time></trkpt><trkpt lat="45.576501" lon="8.6926326"><ele>146.0</ele><time>2026-04-12T14:56:56.921Z</time></trkpt><trkpt lat="45.5765988" lon="8.6925909"><ele>146.0</ele><time>2026-04-12T14:56:57.935Z</time></trkpt><trkpt lat="45.5766993" lon="8.692536"><ele>146.0</ele><time>2026-04-12T14:56:58.926Z</time></trkpt><trkpt lat="45.5767911" lon="8.6924862"><ele>146.0</ele><time>2026-04-12T14:56:59.946Z</time></trkpt><trkpt lat="45.5768918" lon="8.6924272"><ele>146.0</ele><time>2026-04-12T14:57:00.922Z</time></trkpt><trkpt lat="45.576983" lon="8.6923721"><ele>146.0</ele><time>2026-04-12T14:57:01.926Z</time></trkpt><trkpt lat="45.5770927" lon="8.6923296"><ele>146.25</ele><time>2026-04-12T14:57:02.92Z</time></trkpt><trkpt lat="45.5771965" lon="8.6922816"><ele>146.5</ele><time>2026-04-12T14:57:03.946Z</time></trkpt><trkpt lat="45.5773006" lon="8.6922356"><ele>146.75</ele><time>2026-04-12T14:57:04.95Z</time></trkpt><trkpt lat="45.577411" lon="8.6921868"><ele>147.0</ele><time>2026-04-12T14:57:05.942Z</time></trkpt><trkpt lat="45.5775296" lon="8.6921413"><ele>147.0</ele><time>2026-04-12T14:57:06.946Z</time></trkpt><trkpt lat="45.577651" lon="8.6920989"><ele>147.0</ele><time>2026-04-12T14:57:07.936Z</time></trkpt><trkpt lat="45.577764" lon="8.6920612"><ele>147.0</ele><time>2026-04-12T14:57:08.93Z</time></trkpt><trkpt lat="45.5778726" lon="8.6920151"><ele>147.0</ele><time>2026-04-12T14:57:09.944Z</time></trkpt><trkpt lat="45.5779731" lon="8.6919713"><ele>146.79999999999998</ele><time>2026-04-12T14:57:10.932Z</time></trkpt><trkpt lat="45.5780627" lon="8.6919397"><ele>146.6</ele><time>2026-04-12T14:57:11.928Z</time></trkpt><trkpt lat="45.5781491" lon="8.6919227"><ele>146.39999999999998</ele><time>2026-04-12T14:57:12.945Z</time></trkpt><trkpt lat="45.5782236" lon="8.6919115"><ele>146.2</ele><time>2026-04-12T14:57:13.936Z</time></trkpt><trkpt lat="45.5783044" lon="8.6918531"><ele>146.0</ele><time>2026-04-12T14:57:15.933Z</time></trkpt><trkpt lat="45.5783966" lon="8.6917527"><ele>146.6</ele><time>2026-04-12T14:57:17.926Z</time></trkpt><trkpt lat="45.5784614" lon="8.6916963"><ele>147.2</ele><time>2026-04-12T14:57:18.93Z</time></trkpt><trkpt lat="45.5785628" lon="8.6916246"><ele>147.8</ele><time>2026-04-12T14:57:19.932Z</time></trkpt><trkpt lat="45.578679" lon="8.6915587"><ele>148.4</ele><time>2026-04-12T14:57:20.924Z</time></trkpt><trkpt lat="45.5787835" lon="8.6914998"><ele>149.0</ele><time>2026-04-12T14:57:21.93Z</time></trkpt><trkpt lat="45.5788758" lon="8.6914473"><ele>149.16666666666666</ele><time>2026-04-12T14:57:22.937Z</time></trkpt><trkpt lat="45.5789568" lon="8.691399"><ele>149.33333333333331</ele><time>2026-04-12T14:57:23.929Z</time></trkpt><trkpt lat="45.579034" lon="8.6913478"><ele>149.5</ele><time>2026-04-12T14:57:24.945Z</time></trkpt><trkpt lat="45.5791064" lon="8.6913185"><ele>149.66666666666666</ele><time>2026-04-12T14:57:25.931Z</time></trkpt><trkpt lat="45.5791702" lon="8.6912916"><ele>149.83333333333334</ele><time>2026-04-12T14:57:26.928Z</time></trkpt><trkpt lat="45.5792713" lon="8.6912489"><ele>150.0</ele><time>2026-04-12T14:57:28.931Z</time></trkpt><trkpt lat="45.5793619" lon="8.6912264"><ele>150.0</ele><time>2026-04-12T14:57:32.925Z</time></trkpt><trkpt lat="45.5794071" lon="8.6913061"><ele>150.0</ele><time>2026-04-12T14:57:36.929Z</time></trkpt><trkpt lat="45.5794156" lon="8.6914235"><ele>150.0</ele><time>2026-04-12T14:57:59.926Z</time></trkpt><trkpt lat="45.5794331" lon="8.6915638"><ele>150.0</ele><time>2026-04-12T14:58:01.925Z</time></trkpt><trkpt lat="45.5794501" lon="8.6916599"><ele>150.0</ele><time>2026-04-12T14:58:02.926Z</time></trkpt><trkpt lat="45.5794804" lon="8.6917553"><ele>150.0</ele><time>2026-04-12T14:58:03.92Z</time></trkpt><trkpt lat="45.5795212" lon="8.6918503"><ele>150.5</ele><time>2026-04-12T14:58:04.934Z</time></trkpt><trkpt lat="45.5795733" lon="8.6919318"><ele>151.0</ele><time>2026-04-12T14:58:05.928Z</time></trkpt><trkpt lat="45.5796395" lon="8.6920037"><ele>151.5</ele><time>2026-04-12T14:58:06.942Z</time></trkpt><trkpt lat="45.5797155" lon="8.6920654"><ele>152.0</ele><time>2026-04-12T14:58:07.923Z</time></trkpt><trkpt lat="45.5797975" lon="8.692112"><ele>152.5</ele><time>2026-04-12T14:58:08.934Z</time></trkpt><trkpt lat="45.5798734" lon="8.6921559"><ele>153.0</ele><time>2026-04-12T14:58:09.929Z</time></trkpt><trkpt lat="45.5799395" lon="8.6922129"><ele>153.0</ele><time>2026-04-12T14:58:10.951Z</time></trkpt><trkpt lat="45.5799906" lon="8.692288"><ele>153.0</ele><time>2026-04-12T14:58:11.927Z</time></trkpt><trkpt lat="45.5800287" lon="8.6923691"><ele>153.0</ele><time>2026-04-12T14:58:12.927Z</time></trkpt><trkpt lat="45.5801047" lon="8.6924798"><ele>153.0</ele><time>2026-04-12T14:58:14.934Z</time></trkpt><trkpt lat="45.5801871" lon="8.6924975"><ele>153.0</ele><time>2026-04-12T14:58:16.934Z</time></trkpt><trkpt lat="45.5802661" lon="8.6924226"><ele>153.0</ele><time>2026-04-12T14:58:18.923Z</time></trkpt><trkpt lat="45.5803544" lon="8.6923412"><ele>153.16666666666666</ele><time>2026-04-12T14:58:20.92Z</time></trkpt><trkpt lat="45.5804781" lon="8.6923045"><ele>153.33333333333334</ele><time>2026-04-12T14:58:22.919Z</time></trkpt><trkpt lat="45.5805509" lon="8.6923"><ele>153.5</ele><time>2026-04-12T14:58:23.938Z</time></trkpt><trkpt lat="45.5806224" lon="8.6922954"><ele>153.66666666666669</ele><time>2026-04-12T14:58:24.931Z</time></trkpt><trkpt lat="45.5806995" lon="8.6923178"><ele>153.83333333333334</ele><time>2026-04-12T14:58:25.928Z</time></trkpt><trkpt lat="45.5807786" lon="8.6923488"><ele>154.0</ele><time>2026-04-12T14:58:26.943Z</time></trkpt><trkpt lat="45.5808513" lon="8.6923796"><ele>154.0</ele><time>2026-04-12T14:58:27.926Z</time></trkpt><trkpt lat="45.580921" lon="8.6924121"><ele>154.0</ele><time>2026-04-12T14:58:28.923Z</time></trkpt><trkpt lat="45.5809921" lon="8.6924352"><ele>154.0</ele><time>2026-04-12T14:58:29.938Z</time></trkpt><trkpt lat="45.5810662" lon="8.6924405"><ele>154.0</ele><time>2026-04-12T14:58:30.928Z</time></trkpt><trkpt lat="45.5811368" lon="8.6924507"><ele>154.0</ele><time>2026-04-12T14:58:31.933Z</time></trkpt><trkpt lat="45.581204" lon="8.6924874"><ele>154.0</ele><time>2026-04-12T14:58:32.944Z</time></trkpt><trkpt lat="45.5812718" lon="8.69255"><ele>154.0</ele><time>2026-04-12T14:58:33.926Z</time></trkpt><trkpt lat="45.5813392" lon="8.6926233"><ele>154.4</ele><time>2026-04-12T14:58:34.927Z</time></trkpt><trkpt lat="45.5814118" lon="8.6926941"><ele>154.8</ele><time>2026-04-12T14:58:35.933Z</time></trkpt><trkpt lat="45.5814886" lon="8.6927665"><ele>155.2</ele><time>2026-04-12T14:58:36.923Z</time></trkpt><trkpt lat="45.5815656" lon="8.692837"><ele>155.6</ele><time>2026-04-12T14:58:37.927Z</time></trkpt><trkpt lat="45.5816324" lon="8.6929243"><ele>156.0</ele><time>2026-04-12T14:58:38.931Z</time></trkpt><trkpt lat="45.5817038" lon="8.6930054"><ele>155.5</ele><time>2026-04-12T14:58:39.921Z</time></trkpt><trkpt lat="45.5817828" lon="8.6930686"><ele>155.0</ele><time>2026-04-12T14:58:40.927Z</time></trkpt><trkpt lat="45.5818632" lon="8.6931182"><ele>154.5</ele><time>2026-04-12T14:58:41.924Z</time></trkpt><trkpt lat="45.581942" lon="8.6931488"><ele>154.0</ele><time>2026-04-12T14:58:42.921Z</time></trkpt><trkpt lat="45.5820162" lon="8.6931713"><ele>153.5</ele><time>2026-04-12T14:58:43.936Z</time></trkpt><trkpt lat="45.5820925" lon="8.693207"><ele>153.0</ele><time>2026-04-12T14:58:44.935Z</time></trkpt><trkpt lat="45.5821699" lon="8.6932467"><ele>153.0</ele><time>2026-04-12T14:58:45.93Z</time></trkpt><trkpt lat="45.5822486" lon="8.6933274"><ele>153.0</ele><time>2026-04-12T14:58:46.926Z</time></trkpt><trkpt lat="45.5823194" lon="8.6934474"><ele>153.0</ele><time>2026-04-12T14:58:47.931Z</time></trkpt><trkpt lat="45.5823798" lon="8.6935638"><ele>153.0</ele><time>2026-04-12T14:58:48.927Z</time></trkpt><trkpt lat="45.5824541" lon="8.6936477"><ele>153.0</ele><time>2026-04-12T14:58:49.924Z</time></trkpt><trkpt lat="45.5825418" lon="8.6937029"><ele>152.20000000000002</ele><time>2026-04-12T14:58:50.932Z</time></trkpt><trkpt lat="45.5826304" lon="8.6937407"><ele>151.4</ele><time>2026-04-12T14:58:51.939Z</time></trkpt><trkpt lat="45.5827159" lon="8.693795"><ele>150.60000000000002</ele><time>2026-04-12T14:58:52.936Z</time></trkpt><trkpt lat="45.5827968" lon="8.69387"><ele>149.8</ele><time>2026-04-12T14:58:53.931Z</time></trkpt><trkpt lat="45.5828686" lon="8.6939477"><ele>149.0</ele><time>2026-04-12T14:58:54.927Z</time></trkpt><trkpt lat="45.5829443" lon="8.6940161"><ele>149.0</ele><time>2026-04-12T14:58:55.931Z</time></trkpt><trkpt lat="45.5830328" lon="8.6940607"><ele>149.0</ele><time>2026-04-12T14:58:56.933Z</time></trkpt><trkpt lat="45.5831293" lon="8.6940976"><ele>149.0</ele><time>2026-04-12T14:58:57.931Z</time></trkpt><trkpt lat="45.5832301" lon="8.6941426"><ele>149.0</ele><time>2026-04-12T14:58:58.931Z</time></trkpt><trkpt lat="45.5833322" lon="8.6941903"><ele>149.0</ele><time>2026-04-12T14:58:59.93Z</time></trkpt><trkpt lat="45.583441" lon="8.6942324"><ele>149.0</ele><time>2026-04-12T14:59:00.933Z</time></trkpt><trkpt lat="45.583547" lon="8.6942772"><ele>149.0</ele><time>2026-04-12T14:59:01.945Z</time></trkpt><trkpt lat="45.5836537" lon="8.6943286"><ele>149.0</ele><time>2026-04-12T14:59:02.937Z</time></trkpt><trkpt lat="45.5837604" lon="8.6943748"><ele>149.0</ele><time>2026-04-12T14:59:03.94Z</time></trkpt><trkpt lat="45.583868" lon="8.6944181"><ele>149.0</ele><time>2026-04-12T14:59:04.939Z</time></trkpt><trkpt lat="45.5839749" lon="8.6944624"><ele>148.75</ele><time>2026-04-12T14:59:05.947Z</time></trkpt><trkpt lat="45.5840834" lon="8.6945057"><ele>148.5</ele><time>2026-04-12T14:59:06.926Z</time></trkpt><trkpt lat="45.584193" lon="8.6945516"><ele>148.25</ele><time>2026-04-12T14:59:07.928Z</time></trkpt><trkpt lat="45.5843023" lon="8.6945989"><ele>148.0</ele><time>2026-04-12T14:59:08.93Z</time></trkpt><trkpt lat="45.5844124" lon="8.6946415"><ele>148.20000000000002</ele><time>2026-04-12T14:59:09.925Z</time></trkpt><trkpt lat="45.5845212" lon="8.694685"><ele>148.4</ele><time>2026-04-12T14:59:10.934Z</time></trkpt><trkpt lat="45.5846293" lon="8.6947286"><ele>148.60000000000002</ele><time>2026-04-12T14:59:11.923Z</time></trkpt><trkpt lat="45.5847372" lon="8.6947629"><ele>148.8</ele><time>2026-04-12T14:59:12.936Z</time></trkpt><trkpt lat="45.5848471" lon="8.6947771"><ele>149.0</ele><time>2026-04-12T14:59:13.932Z</time></trkpt><trkpt lat="45.5849621" lon="8.6947771"><ele>149.0</ele><time>2026-04-12T14:59:14.932Z</time></trkpt><trkpt lat="45.5850809" lon="8.6947665"><ele>149.0</ele><time>2026-04-12T14:59:15.921Z</time></trkpt><trkpt lat="45.5852012" lon="8.6947549"><ele>149.0</ele><time>2026-04-12T14:59:16.925Z</time></trkpt><trkpt lat="45.5853204" lon="8.6947474"><ele>149.0</ele><time>2026-04-12T14:59:17.932Z</time></trkpt><trkpt lat="45.5854388" lon="8.6947383"><ele>150.0</ele><time>2026-04-12T14:59:18.929Z</time></trkpt><trkpt lat="45.5855566" lon="8.6947276"><ele>151.0</ele><time>2026-04-12T14:59:19.926Z</time></trkpt><trkpt lat="45.5856761" lon="8.6947232"><ele>152.0</ele><time>2026-04-12T14:59:20.944Z</time></trkpt><trkpt lat="45.5857963" lon="8.6947251"><ele>153.0</ele><time>2026-04-12T14:59:21.935Z</time></trkpt><trkpt lat="45.5859172" lon="8.6947188"><ele>153.0</ele><time>2026-04-12T14:59:22.927Z</time></trkpt><trkpt lat="45.5860369" lon="8.694709"><ele>153.0</ele><time>2026-04-12T14:59:23.921Z</time></trkpt><trkpt lat="45.5861567" lon="8.6947083"><ele>153.0</ele><time>2026-04-12T14:59:24.923Z</time></trkpt><trkpt lat="45.5862761" lon="8.6947035"><ele>153.0</ele><time>2026-04-12T14:59:25.941Z</time></trkpt><trkpt lat="45.5863936" lon="8.6946906"><ele>153.4</ele><time>2026-04-12T14:59:26.93Z</time></trkpt><trkpt lat="45.5865094" lon="8.6946784"><ele>153.8</ele><time>2026-04-12T14:59:27.936Z</time></trkpt><trkpt lat="45.5866232" lon="8.6946726"><ele>154.2</ele><time>2026-04-12T14:59:28.927Z</time></trkpt><trkpt lat="45.5867318" lon="8.6946685"><ele>154.6</ele><time>2026-04-12T14:59:29.95Z</time></trkpt><trkpt lat="45.5868342" lon="8.6946638"><ele>155.0</ele><time>2026-04-12T14:59:30.938Z</time></trkpt><trkpt lat="45.5869298" lon="8.6946589"><ele>154.5</ele><time>2026-04-12T14:59:31.924Z</time></trkpt><trkpt lat="45.5870227" lon="8.6946471"><ele>154.0</ele><time>2026-04-12T14:59:32.922Z</time></trkpt><trkpt lat="45.5871118" lon="8.6946361"><ele>153.5</ele><time>2026-04-12T14:59:33.937Z</time></trkpt><trkpt lat="45.5871933" lon="8.6945929"><ele>153.0</ele><time>2026-04-12T14:59:34.929Z</time></trkpt><trkpt lat="45.5872686" lon="8.6945293"><ele>152.5</ele><time>2026-04-12T14:59:35.925Z</time></trkpt><trkpt lat="45.5873389" lon="8.6944503"><ele>152.0</ele><time>2026-04-12T14:59:36.931Z</time></trkpt><trkpt lat="45.587411" lon="8.694368"><ele>152.0</ele><time>2026-04-12T14:59:37.926Z</time></trkpt><trkpt lat="45.5874859" lon="8.6942889"><ele>152.0</ele><time>2026-04-12T14:59:38.925Z</time></trkpt><trkpt lat="45.5875619" lon="8.6942157"><ele>152.0</ele><time>2026-04-12T14:59:39.931Z</time></trkpt><trkpt lat="45.5876327" lon="8.694144"><ele>152.0</ele><time>2026-04-12T14:59:40.943Z</time></trkpt><trkpt lat="45.5876931" lon="8.6940593"><ele>152.0</ele><time>2026-04-12T14:59:41.93Z</time></trkpt><trkpt lat="45.5877425" lon="8.6939605"><ele>152.0</ele><time>2026-04-12T14:59:42.941Z</time></trkpt><trkpt lat="45.5877901" lon="8.6938659"><ele>152.0</ele><time>2026-04-12T14:59:43.935Z</time></trkpt><trkpt lat="45.5878209" lon="8.6937636"><ele>152.0</ele><time>2026-04-12T14:59:44.939Z</time></trkpt><trkpt lat="45.5878458" lon="8.6936657"><ele>152.0</ele><time>2026-04-12T14:59:45.941Z</time></trkpt><trkpt lat="45.5878623" lon="8.6935646"><ele>152.0</ele><time>2026-04-12T14:59:46.929Z</time></trkpt><trkpt lat="45.5878721" lon="8.6934686"><ele>152.0</ele><time>2026-04-12T14:59:47.932Z</time></trkpt><trkpt lat="45.5878684" lon="8.6933211"><ele>152.0</ele><time>2026-04-12T14:59:49.918Z</time></trkpt><trkpt lat="45.5878502" lon="8.6931437"><ele>151.79999999999998</ele><time>2026-04-12T14:59:51.928Z</time></trkpt><trkpt lat="45.58785" lon="8.6930441"><ele>151.6</ele><time>2026-04-12T14:59:52.936Z</time></trkpt><trkpt lat="45.5878459" lon="8.6928819"><ele>151.39999999999998</ele><time>2026-04-12T14:59:54.925Z</time></trkpt><trkpt lat="45.5878351" lon="8.6927446"><ele>151.2</ele><time>2026-04-12T14:59:56.925Z</time></trkpt><trkpt lat="45.5878289" lon="8.6925887"><ele>151.0</ele><time>2026-04-12T14:59:58.932Z</time></trkpt><trkpt lat="45.5878203" lon="8.6924111"><ele>151.0</ele><time>2026-04-12T15:00:00.926Z</time></trkpt><trkpt lat="45.5878129" lon="8.692321"><ele>151.0</ele><time>2026-04-12T15:00:01.931Z</time></trkpt><trkpt lat="45.5877984" lon="8.6921467"><ele>151.0</ele><time>2026-04-12T15:00:03.944Z</time></trkpt><trkpt lat="45.5877875" lon="8.6920572"><ele>151.0</ele><time>2026-04-12T15:00:04.93Z</time></trkpt><trkpt lat="45.5877651" lon="8.6918866"><ele>151.0</ele><time>2026-04-12T15:00:06.933Z</time></trkpt><trkpt lat="45.5877441" lon="8.6917156"><ele>150.8</ele><time>2026-04-12T15:00:08.924Z</time></trkpt><trkpt lat="45.5877382" lon="8.6916249"><ele>150.6</ele><time>2026-04-12T15:00:09.914Z</time></trkpt><trkpt lat="45.5877298" lon="8.6914532"><ele>150.4</ele><time>2026-04-12T15:00:11.939Z</time></trkpt><trkpt lat="45.5877323" lon="8.6912987"><ele>150.2</ele><time>2026-04-12T15:00:13.936Z</time></trkpt><trkpt lat="45.5877525" lon="8.6911331"><ele>150.0</ele><time>2026-04-12T15:00:15.939Z</time></trkpt><trkpt lat="45.5877888" lon="8.6909817"><ele>150.0</ele><time>2026-04-12T15:00:17.926Z</time></trkpt><trkpt lat="45.5878425" lon="8.6908749"><ele>150.0</ele><time>2026-04-12T15:00:19.931Z</time></trkpt><trkpt lat="45.5878823" lon="8.6907977"><ele>150.0</ele><time>2026-04-12T15:00:21.925Z</time></trkpt><trkpt lat="45.5879079" lon="8.6907036"><ele>150.0</ele><time>2026-04-12T15:00:23.933Z</time></trkpt><trkpt lat="45.5879229" lon="8.6905966"><ele>150.0</ele><time>2026-04-12T15:00:30.933Z</time></trkpt><trkpt lat="45.5879543" lon="8.6904836"><ele>150.0</ele><time>2026-04-12T15:00:32.93Z</time></trkpt><trkpt lat="45.587994" lon="8.6903539"><ele>150.2</ele><time>2026-04-12T15:00:34.931Z</time></trkpt><trkpt lat="45.5880315" lon="8.6902207"><ele>150.4</ele><time>2026-04-12T15:00:36.928Z</time></trkpt><trkpt lat="45.5880797" lon="8.6900885"><ele>150.6</ele><time>2026-04-12T15:00:38.927Z</time></trkpt><trkpt lat="45.588133" lon="8.6899557"><ele>150.8</ele><time>2026-04-12T15:00:40.922Z</time></trkpt><trkpt lat="45.5882009" lon="8.6898408"><ele>151.0</ele><time>2026-04-12T15:00:42.928Z</time></trkpt><trkpt lat="45.5882894" lon="8.6897542"><ele>151.0</ele><time>2026-04-12T15:00:44.934Z</time></trkpt><trkpt lat="45.5883929" lon="8.6896779"><ele>151.0</ele><time>2026-04-12T15:00:46.941Z</time></trkpt><trkpt lat="45.588503" lon="8.6896008"><ele>151.0</ele><time>2026-04-12T15:00:48.93Z</time></trkpt><trkpt lat="45.5886118" lon="8.6895245"><ele>151.0</ele><time>2026-04-12T15:00:50.935Z</time></trkpt><trkpt lat="45.5887123" lon="8.6894172"><ele>151.2</ele><time>2026-04-12T15:00:52.935Z</time></trkpt><trkpt lat="45.5888066" lon="8.6893171"><ele>151.39999999999998</ele><time>2026-04-12T15:00:54.926Z</time></trkpt><trkpt lat="45.5888956" lon="8.6892373"><ele>151.6</ele><time>2026-04-12T15:00:56.93Z</time></trkpt><trkpt lat="45.5889779" lon="8.6891561"><ele>151.79999999999998</ele><time>2026-04-12T15:00:58.927Z</time></trkpt><trkpt lat="45.5890534" lon="8.689082"><ele>152.0</ele><time>2026-04-12T15:01:00.935Z</time></trkpt><trkpt lat="45.5891331" lon="8.6890283"><ele>152.0</ele><time>2026-04-12T15:01:02.936Z</time></trkpt><trkpt lat="45.5891881" lon="8.6889273"><ele>152.0</ele><time>2026-04-12T15:01:05.93Z</time></trkpt><trkpt lat="45.5891986" lon="8.6887834"><ele>152.0</ele><time>2026-04-12T15:01:08.929Z</time></trkpt><trkpt lat="45.5891963" lon="8.6886905"><ele>152.0</ele><time>2026-04-12T15:01:09.931Z</time></trkpt><trkpt lat="45.5892058" lon="8.6885603"><ele>152.0</ele><time>2026-04-12T15:01:10.929Z</time></trkpt><trkpt lat="45.5892014" lon="8.6883781"><ele>152.0</ele><time>2026-04-12T15:01:11.923Z</time></trkpt><trkpt lat="45.5892042" lon="8.6882169"><ele>152.0</ele><time>2026-04-12T15:01:12.937Z</time></trkpt><trkpt lat="45.5892134" lon="8.6880896"><ele>152.0</ele><time>2026-04-12T15:01:13.935Z</time></trkpt><trkpt lat="45.5892217" lon="8.6879982"><ele>152.0</ele><time>2026-04-12T15:01:14.932Z</time></trkpt><trkpt lat="45.5892211" lon="8.6878783"><ele>152.0</ele><time>2026-04-12T15:01:16.924Z</time></trkpt><trkpt lat="45.5891839" lon="8.6877847"><ele>152.0</ele><time>2026-04-12T15:01:37.923Z</time></trkpt><trkpt lat="45.5891803" lon="8.6876359"><ele>152.4</ele><time>2026-04-12T15:01:39.938Z</time></trkpt><trkpt lat="45.5891614" lon="8.6875103"><ele>152.79999999999998</ele><time>2026-04-12T15:01:40.922Z</time></trkpt><trkpt lat="45.5891434" lon="8.6873868"><ele>153.2</ele><time>2026-04-12T15:01:41.92Z</time></trkpt><trkpt lat="45.5891243" lon="8.6872566"><ele>153.6</ele><time>2026-04-12T15:01:42.929Z</time></trkpt><trkpt lat="45.5891011" lon="8.6871171"><ele>154.0</ele><time>2026-04-12T15:01:43.936Z</time></trkpt><trkpt lat="45.5890773" lon="8.6869973"><ele>154.0</ele><time>2026-04-12T15:01:44.931Z</time></trkpt><trkpt lat="45.5890447" lon="8.686861"><ele>154.0</ele><time>2026-04-12T15:01:45.938Z</time></trkpt><trkpt lat="45.589013" lon="8.6867262"><ele>154.0</ele><time>2026-04-12T15:01:46.926Z</time></trkpt><trkpt lat="45.589003" lon="8.6865996"><ele>154.0</ele><time>2026-04-12T15:01:47.933Z</time></trkpt><trkpt lat="45.5889955" lon="8.6864779"><ele>154.0</ele><time>2026-04-12T15:01:48.94Z</time></trkpt><trkpt lat="45.588997" lon="8.6863492"><ele>154.0</ele><time>2026-04-12T15:01:49.932Z</time></trkpt><trkpt lat="45.5890052" lon="8.6862162"><ele>154.0</ele><time>2026-04-12T15:01:50.926Z</time></trkpt><trkpt lat="45.5890208" lon="8.6860643"><ele>154.0</ele><time>2026-04-12T15:01:51.931Z</time></trkpt><trkpt lat="45.5890374" lon="8.6858993"><ele>154.0</ele><time>2026-04-12T15:01:52.937Z</time></trkpt><trkpt lat="45.5890628" lon="8.6857319"><ele>154.0</ele><time>2026-04-12T15:01:53.921Z</time></trkpt><trkpt lat="45.5890933" lon="8.6855654"><ele>153.75</ele><time>2026-04-12T15:01:54.94Z</time></trkpt><trkpt lat="45.5891265" lon="8.6853959"><ele>153.5</ele><time>2026-04-12T15:01:55.918Z</time></trkpt><trkpt lat="45.5891637" lon="8.6852265"><ele>153.25</ele><time>2026-04-12T15:01:56.932Z</time></trkpt><trkpt lat="45.589204" lon="8.6850601"><ele>153.0</ele><time>2026-04-12T15:01:57.922Z</time></trkpt><trkpt lat="45.5892409" lon="8.6848953"><ele>153.0</ele><time>2026-04-12T15:01:58.929Z</time></trkpt><trkpt lat="45.5892773" lon="8.6847327"><ele>153.0</ele><time>2026-04-12T15:01:59.928Z</time></trkpt><trkpt lat="45.5893142" lon="8.6845714"><ele>153.0</ele><time>2026-04-12T15:02:00.927Z</time></trkpt><trkpt lat="45.5893566" lon="8.6844044"><ele>153.0</ele><time>2026-04-12T15:02:01.942Z</time></trkpt><trkpt lat="45.5893987" lon="8.6842322"><ele>153.0</ele><time>2026-04-12T15:02:02.924Z</time></trkpt><trkpt lat="45.5894436" lon="8.6840645"><ele>153.0</ele><time>2026-04-12T15:02:03.932Z</time></trkpt><trkpt lat="45.5894895" lon="8.683896"><ele>153.0</ele><time>2026-04-12T15:02:04.947Z</time></trkpt><trkpt lat="45.5895258" lon="8.6837255"><ele>153.0</ele><time>2026-04-12T15:02:05.937Z</time></trkpt><trkpt lat="45.5895696" lon="8.6835698"><ele>153.4</ele><time>2026-04-12T15:02:06.945Z</time></trkpt><trkpt lat="45.5896153" lon="8.6834153"><ele>153.8</ele><time>2026-04-12T15:02:07.935Z</time></trkpt><trkpt lat="45.5896592" lon="8.6832675"><ele>154.2</ele><time>2026-04-12T15:02:08.933Z</time></trkpt><trkpt lat="45.5897022" lon="8.683131"><ele>154.6</ele><time>2026-04-12T15:02:09.936Z</time></trkpt><trkpt lat="45.5897386" lon="8.6830026"><ele>155.0</ele><time>2026-04-12T15:02:10.921Z</time></trkpt><trkpt lat="45.589769" lon="8.6828941"><ele>155.0</ele><time>2026-04-12T15:02:11.929Z</time></trkpt><trkpt lat="45.5898121" lon="8.6827555"><ele>155.0</ele><time>2026-04-12T15:02:13.929Z</time></trkpt><trkpt lat="45.5897601" lon="8.6828438"><ele>155.0</ele><time>2026-04-12T15:02:19.924Z</time></trkpt><trkpt lat="45.5897355" lon="8.6829283"><ele>155.0</ele><time>2026-04-12T15:02:20.927Z</time></trkpt><trkpt lat="45.5897082" lon="8.683022"><ele>155.0</ele><time>2026-04-12T15:02:21.922Z</time></trkpt><trkpt lat="45.5896803" lon="8.6831115"><ele>155.0</ele><time>2026-04-12T15:02:22.931Z</time></trkpt><trkpt lat="45.5896559" lon="8.6831947"><ele>155.0</ele><time>2026-04-12T15:02:23.929Z</time></trkpt><trkpt lat="45.5896753" lon="8.6833466"><ele>155.0</ele><time>2026-04-12T15:02:25.922Z</time></trkpt><trkpt lat="45.5897352" lon="8.6834117"><ele>155.0</ele><time>2026-04-12T15:02:26.933Z</time></trkpt><trkpt lat="45.5898125" lon="8.6834917"><ele>155.0</ele><time>2026-04-12T15:02:27.932Z</time></trkpt><trkpt lat="45.5899236" lon="8.683571"><ele>155.0</ele><time>2026-04-12T15:02:28.926Z</time></trkpt><trkpt lat="45.5900259" lon="8.6836669"><ele>154.6</ele><time>2026-04-12T15:02:29.922Z</time></trkpt><trkpt lat="45.5901305" lon="8.6837358"><ele>154.2</ele><time>2026-04-12T15:02:30.926Z</time></trkpt><trkpt lat="45.5902344" lon="8.6837904"><ele>153.8</ele><time>2026-04-12T15:02:31.924Z</time></trkpt><trkpt lat="45.5903172" lon="8.6838451"><ele>153.4</ele><time>2026-04-12T15:02:32.938Z</time></trkpt><trkpt lat="45.5903796" lon="8.6838714"><ele>153.0</ele><time>2026-04-12T15:02:33.951Z</time></trkpt><trkpt lat="45.5904634" lon="8.6837996"><ele>152.83333333333334</ele><time>2026-04-12T15:02:35.923Z</time></trkpt><trkpt lat="45.5904931" lon="8.6836856"><ele>152.66666666666666</ele><time>2026-04-12T15:02:36.922Z</time></trkpt><trkpt lat="45.5905263" lon="8.6835513"><ele>152.5</ele><time>2026-04-12T15:02:37.953Z</time></trkpt><trkpt lat="45.5905564" lon="8.6834165"><ele>152.33333333333331</ele><time>2026-04-12T15:02:38.936Z</time></trkpt><trkpt lat="45.5905899" lon="8.6833058"><ele>152.16666666666666</ele><time>2026-04-12T15:02:39.938Z</time></trkpt><trkpt lat="45.5906323" lon="8.6832207"><ele>152.0</ele><time>2026-04-12T15:02:40.926Z</time></trkpt><trkpt lat="45.5906802" lon="8.683141"><ele>152.0</ele><time>2026-04-12T15:02:41.93Z</time></trkpt><trkpt lat="45.5907909" lon="8.6830969"><ele>152.0</ele><time>2026-04-12T15:02:42.93Z</time></trkpt><trkpt lat="45.5909219" lon="8.6830461"><ele>152.0</ele><time>2026-04-12T15:02:43.922Z</time></trkpt><trkpt lat="45.5910574" lon="8.6829951"><ele>152.0</ele><time>2026-04-12T15:02:44.922Z</time></trkpt><trkpt lat="45.591178" lon="8.6829602"><ele>152.0</ele><time>2026-04-12T15:02:45.923Z</time></trkpt><trkpt lat="45.5913034" lon="8.6829537"><ele>152.0</ele><time>2026-04-12T15:02:46.923Z</time></trkpt><trkpt lat="45.591436" lon="8.6829444"><ele>152.0</ele><time>2026-04-12T15:02:47.923Z</time></trkpt><trkpt lat="45.5915658" lon="8.6829315"><ele>152.0</ele><time>2026-04-12T15:02:48.942Z</time></trkpt><trkpt lat="45.5916903" lon="8.6829148"><ele>152.0</ele><time>2026-04-12T15:02:49.925Z</time></trkpt><trkpt lat="45.5918051" lon="8.682896"><ele>152.0</ele><time>2026-04-12T15:02:50.932Z</time></trkpt><trkpt lat="45.5919127" lon="8.6828883"><ele>152.0</ele><time>2026-04-12T15:02:51.922Z</time></trkpt><trkpt lat="45.5920111" lon="8.6829052"><ele>152.0</ele><time>2026-04-12T15:02:52.952Z</time></trkpt><trkpt lat="45.5921077" lon="8.6829564"><ele>152.0</ele><time>2026-04-12T15:02:53.934Z</time></trkpt><trkpt lat="45.5922111" lon="8.6830154"><ele>152.5</ele><time>2026-04-12T15:02:54.924Z</time></trkpt><trkpt lat="45.5923123" lon="8.683131"><ele>153.0</ele><time>2026-04-12T15:02:55.934Z</time></trkpt><trkpt lat="45.5924126" lon="8.6832559"><ele>153.5</ele><time>2026-04-12T15:02:56.931Z</time></trkpt><trkpt lat="45.5925088" lon="8.6833677"><ele>154.0</ele><time>2026-04-12T15:02:57.938Z</time></trkpt><trkpt lat="45.5925914" lon="8.683475"><ele>154.0</ele><time>2026-04-12T15:02:58.936Z</time></trkpt><trkpt lat="45.5926705" lon="8.6835784"><ele>154.0</ele><time>2026-04-12T15:02:59.944Z</time></trkpt><trkpt lat="45.5927479" lon="8.6836611"><ele>154.0</ele><time>2026-04-12T15:03:00.932Z</time></trkpt><trkpt lat="45.5928268" lon="8.6837332"><ele>154.0</ele><time>2026-04-12T15:03:01.92Z</time></trkpt><trkpt lat="45.5929068" lon="8.6837985"><ele>154.0</ele><time>2026-04-12T15:03:02.927Z</time></trkpt><trkpt lat="45.5929822" lon="8.6838532"><ele>154.14285714285714</ele><time>2026-04-12T15:03:03.917Z</time></trkpt><trkpt lat="45.5930597" lon="8.68388"><ele>154.28571428571428</ele><time>2026-04-12T15:03:04.937Z</time></trkpt><trkpt lat="45.5931353" lon="8.6838826"><ele>154.42857142857144</ele><time>2026-04-12T15:03:05.935Z</time></trkpt><trkpt lat="45.5932131" lon="8.6838678"><ele>154.57142857142856</ele><time>2026-04-12T15:03:06.927Z</time></trkpt><trkpt lat="45.5932875" lon="8.6838501"><ele>154.71428571428572</ele><time>2026-04-12T15:03:07.938Z</time></trkpt><trkpt lat="45.5933491" lon="8.6837995"><ele>154.85714285714286</ele><time>2026-04-12T15:03:08.946Z</time></trkpt><trkpt lat="45.5933987" lon="8.6837406"><ele>155.0</ele><time>2026-04-12T15:03:09.937Z</time></trkpt><trkpt lat="45.5934917" lon="8.6836645"><ele>155.0</ele><time>2026-04-12T15:03:11.933Z</time></trkpt><trkpt lat="45.5935704" lon="8.6835987"><ele>155.0</ele><time>2026-04-12T15:03:13.93Z</time></trkpt><trkpt lat="45.5936335" lon="8.6835675"><ele>155.0</ele><time>2026-04-12T15:03:15.92Z</time></trkpt><trkpt lat="45.5936985" lon="8.6835596"><ele>155.0</ele><time>2026-04-12T15:03:58.934Z</time></trkpt><trkpt lat="45.5937644" lon="8.6835112"><ele>155.0</ele><time>2026-04-12T15:04:00.928Z</time></trkpt><trkpt lat="45.5938236" lon="8.6834625"><ele>155.0</ele><time>2026-04-12T15:04:01.939Z</time></trkpt><trkpt lat="45.5938932" lon="8.6834211"><ele>155.0</ele><time>2026-04-12T15:04:02.934Z</time></trkpt><trkpt lat="45.5939605" lon="8.6833758"><ele>154.83333333333331</ele><time>2026-04-12T15:04:03.93Z</time></trkpt><trkpt lat="45.5940313" lon="8.6833333"><ele>154.66666666666666</ele><time>2026-04-12T15:04:04.925Z</time></trkpt><trkpt lat="45.594104" lon="8.6832827"><ele>154.5</ele><time>2026-04-12T15:04:05.939Z</time></trkpt><trkpt lat="45.5941791" lon="8.6832314"><ele>154.33333333333334</ele><time>2026-04-12T15:04:06.937Z</time></trkpt><trkpt lat="45.5942581" lon="8.6831771"><ele>154.16666666666669</ele><time>2026-04-12T15:04:07.921Z</time></trkpt><trkpt lat="45.5943378" lon="8.683125"><ele>154.0</ele><time>2026-04-12T15:04:08.932Z</time></trkpt><trkpt lat="45.5944133" lon="8.683074"><ele>154.0</ele><time>2026-04-12T15:04:09.924Z</time></trkpt><trkpt lat="45.5944853" lon="8.6830283"><ele>154.0</ele><time>2026-04-12T15:04:10.919Z</time></trkpt><trkpt lat="45.5945524" lon="8.682986"><ele>154.0</ele><time>2026-04-12T15:04:11.934Z</time></trkpt><trkpt lat="45.5946696" lon="8.6829163"><ele>154.0</ele><time>2026-04-12T15:04:13.92Z</time></trkpt><trkpt lat="45.5947391" lon="8.6828918"><ele>154.0</ele><time>2026-04-12T15:04:14.928Z</time></trkpt><trkpt lat="45.5948132" lon="8.6828797"><ele>154.0</ele><time>2026-04-12T15:04:15.932Z</time></trkpt><trkpt lat="45.5948831" lon="8.6828795"><ele>154.14285714285714</ele><time>2026-04-12T15:04:16.936Z</time></trkpt><trkpt lat="45.5949512" lon="8.6828841"><ele>154.28571428571428</ele><time>2026-04-12T15:04:17.932Z</time></trkpt><trkpt lat="45.5950142" lon="8.6828925"><ele>154.42857142857144</ele><time>2026-04-12T15:04:18.92Z</time></trkpt><trkpt lat="45.5950792" lon="8.6829013"><ele>154.57142857142856</ele><time>2026-04-12T15:04:19.934Z</time></trkpt><trkpt lat="45.5951539" lon="8.6829028"><ele>154.71428571428572</ele><time>2026-04-12T15:04:20.924Z</time></trkpt><trkpt lat="45.5952328" lon="8.6829039"><ele>154.85714285714286</ele><time>2026-04-12T15:04:21.93Z</time></trkpt><trkpt lat="45.5953109" lon="8.6829086"><ele>155.0</ele><time>2026-04-12T15:04:22.928Z</time></trkpt><trkpt lat="45.5953887" lon="8.6829148"><ele>155.0</ele><time>2026-04-12T15:04:23.925Z</time></trkpt><trkpt lat="45.5954659" lon="8.6829199"><ele>155.0</ele><time>2026-04-12T15:04:24.927Z</time></trkpt><trkpt lat="45.5955411" lon="8.6829248"><ele>155.0</ele><time>2026-04-12T15:04:25.93Z</time></trkpt><trkpt lat="45.5956154" lon="8.6829275"><ele>155.0</ele><time>2026-04-12T15:04:26.945Z</time></trkpt><trkpt lat="45.5956836" lon="8.6829317"><ele>155.0</ele><time>2026-04-12T15:04:27.94Z</time></trkpt><trkpt lat="45.5958063" lon="8.6829363"><ele>155.0</ele><time>2026-04-12T15:04:29.932Z</time></trkpt><trkpt lat="45.5958953" lon="8.6829296"><ele>155.0</ele><time>2026-04-12T15:04:31.929Z</time></trkpt><trkpt lat="45.5959605" lon="8.6828977"><ele>155.0</ele><time>2026-04-12T15:04:33.942Z</time></trkpt><trkpt lat="45.5960535" lon="8.6828851"><ele>155.0</ele><time>2026-04-12T15:04:35.932Z</time></trkpt><trkpt lat="45.5961167" lon="8.6828955"><ele>155.0</ele><time>2026-04-12T15:04:36.947Z</time></trkpt><trkpt lat="45.5962013" lon="8.6829215"><ele>155.0</ele><time>2026-04-12T15:04:37.938Z</time></trkpt><trkpt lat="45.5962978" lon="8.6829562"><ele>155.0</ele><time>2026-04-12T15:04:38.93Z</time></trkpt><trkpt lat="45.596394" lon="8.6829949"><ele>155.16666666666666</ele><time>2026-04-12T15:04:39.922Z</time></trkpt><trkpt lat="45.5964896" lon="8.6830318"><ele>155.33333333333331</ele><time>2026-04-12T15:04:40.944Z</time></trkpt><trkpt lat="45.5965826" lon="8.6830664"><ele>155.5</ele><time>2026-04-12T15:04:41.939Z</time></trkpt><trkpt lat="45.5966671" lon="8.6831007"><ele>155.66666666666666</ele><time>2026-04-12T15:04:42.921Z</time></trkpt><trkpt lat="45.5967425" lon="8.6831344"><ele>155.83333333333334</ele><time>2026-04-12T15:04:43.925Z</time></trkpt><trkpt lat="45.5968084" lon="8.6831657"><ele>156.0</ele><time>2026-04-12T15:04:44.945Z</time></trkpt><trkpt lat="45.5969048" lon="8.6832223"><ele>156.0</ele><time>2026-04-12T15:04:46.926Z</time></trkpt><trkpt lat="45.5969629" lon="8.6832666"><ele>156.0</ele><time>2026-04-12T15:04:48.943Z</time></trkpt><trkpt lat="45.5970038" lon="8.6833385"><ele>156.0</ele><time>2026-04-12T15:05:00.921Z</time></trkpt><trkpt lat="45.5969445" lon="8.6834464"><ele>156.0</ele><time>2026-04-12T15:05:03.92Z</time></trkpt><trkpt lat="45.5968839" lon="8.6835632"><ele>156.0</ele><time>2026-04-12T15:05:05.927Z</time></trkpt><trkpt lat="45.596814" lon="8.6836982"><ele>156.0</ele><time>2026-04-12T15:05:07.922Z</time></trkpt><trkpt lat="45.5967505" lon="8.6838456"><ele>155.6</ele><time>2026-04-12T15:05:09.922Z</time></trkpt><trkpt lat="45.596683" lon="8.6839814"><ele>155.2</ele><time>2026-04-12T15:05:11.936Z</time></trkpt><trkpt lat="45.5966135" lon="8.6841233"><ele>154.8</ele><time>2026-04-12T15:05:13.944Z</time></trkpt><trkpt lat="45.5965493" lon="8.6842335"><ele>154.4</ele><time>2026-04-12T15:05:15.925Z</time></trkpt><trkpt lat="45.5964998" lon="8.6843344"><ele>154.0</ele><time>2026-04-12T15:05:17.93Z</time></trkpt><trkpt lat="45.5965214" lon="8.6844435"><ele>154.0</ele><time>2026-04-12T15:05:20.931Z</time></trkpt><trkpt lat="45.5965823" lon="8.6844195"><ele>154.0</ele><time>2026-04-12T15:05:23.927Z</time></trkpt><trkpt lat="45.5966451" lon="8.6843078"><ele>154.0</ele><time>2026-04-12T15:05:25.938Z</time></trkpt><trkpt lat="45.5966834" lon="8.6842352"><ele>154.0</ele><time>2026-04-12T15:05:26.941Z</time></trkpt><trkpt lat="45.5967281" lon="8.6841475"><ele>154.0</ele><time>2026-04-12T15:05:27.932Z</time></trkpt><trkpt lat="45.596774" lon="8.6840545"><ele>154.0</ele><time>2026-04-12T15:05:28.928Z</time></trkpt><trkpt lat="45.5968252" lon="8.683946"><ele>154.0</ele><time>2026-04-12T15:05:29.925Z</time></trkpt><trkpt lat="45.5968784" lon="8.6838282"><ele>154.0</ele><time>2026-04-12T15:05:30.937Z</time></trkpt><trkpt lat="45.5969333" lon="8.6837057"><ele>154.0</ele><time>2026-04-12T15:05:31.923Z</time></trkpt><trkpt lat="45.5969944" lon="8.6835766"><ele>154.0</ele><time>2026-04-12T15:05:32.928Z</time></trkpt><trkpt lat="45.5970575" lon="8.6834447"><ele>154.0</ele><time>2026-04-12T15:05:33.932Z</time></trkpt><trkpt lat="45.5971237" lon="8.6833092"><ele>155.25</ele><time>2026-04-12T15:05:34.938Z</time></trkpt><trkpt lat="45.5971939" lon="8.683171"><ele>156.5</ele><time>2026-04-12T15:05:35.926Z</time></trkpt><trkpt lat="45.5972696" lon="8.6830372"><ele>157.75</ele><time>2026-04-12T15:05:36.922Z</time></trkpt><trkpt lat="45.5973503" lon="8.6829123"><ele>159.0</ele><time>2026-04-12T15:05:37.929Z</time></trkpt><trkpt lat="45.5974338" lon="8.6827911"><ele>158.75</ele><time>2026-04-12T15:05:38.927Z</time></trkpt><trkpt lat="45.59752" lon="8.6826702"><ele>158.5</ele><time>2026-04-12T15:05:39.931Z</time></trkpt><trkpt lat="45.5976073" lon="8.6825471"><ele>158.25</ele><time>2026-04-12T15:05:40.923Z</time></trkpt><trkpt lat="45.5976986" lon="8.6824245"><ele>158.0</ele><time>2026-04-12T15:05:41.92Z</time></trkpt><trkpt lat="45.5977902" lon="8.6823008"><ele>157.75</ele><time>2026-04-12T15:05:42.925Z</time></trkpt><trkpt lat="45.5978829" lon="8.6821755"><ele>157.5</ele><time>2026-04-12T15:05:43.938Z</time></trkpt><trkpt lat="45.5979762" lon="8.6820525"><ele>157.25</ele><time>2026-04-12T15:05:44.938Z</time></trkpt><trkpt lat="45.5980681" lon="8.6819385"><ele>157.0</ele><time>2026-04-12T15:05:45.933Z</time></trkpt><trkpt lat="45.5981593" lon="8.6818213"><ele>156.75</ele><time>2026-04-12T15:05:46.94Z</time></trkpt><trkpt lat="45.5982489" lon="8.6817074"><ele>156.5</ele><time>2026-04-12T15:05:47.934Z</time></trkpt><trkpt lat="45.5983404" lon="8.6815922"><ele>156.25</ele><time>2026-04-12T15:05:48.921Z</time></trkpt><trkpt lat="45.5984275" lon="8.6814787"><ele>156.0</ele><time>2026-04-12T15:05:49.933Z</time></trkpt><trkpt lat="45.5985033" lon="8.6813604"><ele>156.0</ele><time>2026-04-12T15:05:50.925Z</time></trkpt><trkpt lat="45.5985677" lon="8.6812291"><ele>156.0</ele><time>2026-04-12T15:05:51.938Z</time></trkpt><trkpt lat="45.5986154" lon="8.6810875"><ele>156.0</ele><time>2026-04-12T15:05:52.94Z</time></trkpt><trkpt lat="45.5986467" lon="8.6809368"><ele>156.0</ele><time>2026-04-12T15:05:53.933Z</time></trkpt><trkpt lat="45.5986623" lon="8.6807776"><ele>156.0</ele><time>2026-04-12T15:05:54.932Z</time></trkpt><trkpt lat="45.5986656" lon="8.6806116"><ele>156.25</ele><time>2026-04-12T15:05:55.925Z</time></trkpt><trkpt lat="45.5986625" lon="8.6804403"><ele>156.5</ele><time>2026-04-12T15:05:56.922Z</time></trkpt><trkpt lat="45.5986595" lon="8.6802666"><ele>156.75</ele><time>2026-04-12T15:05:57.925Z</time></trkpt><trkpt lat="45.5986586" lon="8.6800853"><ele>157.0</ele><time>2026-04-12T15:05:58.938Z</time></trkpt><trkpt lat="45.5986561" lon="8.6799026"><ele>157.0</ele><time>2026-04-12T15:05:59.93Z</time></trkpt><trkpt lat="45.5986518" lon="8.6797154"><ele>157.0</ele><time>2026-04-12T15:06:00.933Z</time></trkpt><trkpt lat="45.5986445" lon="8.6795324"><ele>157.0</ele><time>2026-04-12T15:06:01.938Z</time></trkpt><trkpt lat="45.5986334" lon="8.679351"><ele>157.0</ele><time>2026-04-12T15:06:02.937Z</time></trkpt><trkpt lat="45.5986144" lon="8.679171"><ele>156.75</ele><time>2026-04-12T15:06:03.925Z</time></trkpt><trkpt lat="45.598587" lon="8.6789955"><ele>156.5</ele><time>2026-04-12T15:06:04.924Z</time></trkpt><trkpt lat="45.5985461" lon="8.6788258"><ele>156.25</ele><time>2026-04-12T15:06:05.935Z</time></trkpt><trkpt lat="45.5984969" lon="8.6786626"><ele>156.0</ele><time>2026-04-12T15:06:06.943Z</time></trkpt><trkpt lat="45.5984466" lon="8.6785112"><ele>155.6</ele><time>2026-04-12T15:06:07.936Z</time></trkpt><trkpt lat="45.5984016" lon="8.6783673"><ele>155.2</ele><time>2026-04-12T15:06:08.928Z</time></trkpt><trkpt lat="45.5983687" lon="8.6782221"><ele>154.8</ele><time>2026-04-12T15:06:09.937Z</time></trkpt><trkpt lat="45.5983546" lon="8.6780739"><ele>154.4</ele><time>2026-04-12T15:06:10.925Z</time></trkpt><trkpt lat="45.59836" lon="8.6779256"><ele>154.0</ele><time>2026-04-12T15:06:11.928Z</time></trkpt><trkpt lat="45.5983914" lon="8.6777874"><ele>154.4</ele><time>2026-04-12T15:06:12.931Z</time></trkpt><trkpt lat="45.5984422" lon="8.6776517"><ele>154.8</ele><time>2026-04-12T15:06:13.943Z</time></trkpt><trkpt lat="45.5985048" lon="8.6775221"><ele>155.2</ele><time>2026-04-12T15:06:14.932Z</time></trkpt><trkpt lat="45.5985764" lon="8.6773933"><ele>155.6</ele><time>2026-04-12T15:06:15.936Z</time></trkpt><trkpt lat="45.5986491" lon="8.6772633"><ele>156.0</ele><time>2026-04-12T15:06:16.939Z</time></trkpt><trkpt lat="45.5987222" lon="8.6771328"><ele>158.0</ele><time>2026-04-12T15:06:17.931Z</time></trkpt><trkpt lat="45.598793" lon="8.6769967"><ele>160.0</ele><time>2026-04-12T15:06:18.924Z</time></trkpt><trkpt lat="45.5988595" lon="8.676867"><ele>162.0</ele><time>2026-04-12T15:06:19.951Z</time></trkpt><trkpt lat="45.5989237" lon="8.6767349"><ele>164.0</ele><time>2026-04-12T15:06:20.925Z</time></trkpt><trkpt lat="45.5989837" lon="8.6766142"><ele>166.0</ele><time>2026-04-12T15:06:21.932Z</time></trkpt><trkpt lat="45.599035" lon="8.6765093"><ele>166.60000000000002</ele><time>2026-04-12T15:06:22.931Z</time></trkpt><trkpt lat="45.5990872" lon="8.6764001"><ele>167.2</ele><time>2026-04-12T15:06:23.935Z</time></trkpt><trkpt lat="45.5991439" lon="8.676279"><ele>167.8</ele><time>2026-04-12T15:06:24.925Z</time></trkpt><trkpt lat="45.5992001" lon="8.6761636"><ele>168.39999999999998</ele><time>2026-04-12T15:06:25.929Z</time></trkpt><trkpt lat="45.5992572" lon="8.6760436"><ele>169.0</ele><time>2026-04-12T15:06:26.93Z</time></trkpt><trkpt lat="45.5993078" lon="8.67592"><ele>170.2</ele><time>2026-04-12T15:06:27.944Z</time></trkpt><trkpt lat="45.599353" lon="8.6757914"><ele>171.39999999999998</ele><time>2026-04-12T15:06:28.932Z</time></trkpt><trkpt lat="45.5993973" lon="8.6756664"><ele>172.6</ele><time>2026-04-12T15:06:29.937Z</time></trkpt><trkpt lat="45.5994284" lon="8.6755311"><ele>173.8</ele><time>2026-04-12T15:06:30.918Z</time></trkpt><trkpt lat="45.5994437" lon="8.675402"><ele>175.0</ele><time>2026-04-12T15:06:31.928Z</time></trkpt><trkpt lat="45.5994625" lon="8.6752708"><ele>176.6</ele><time>2026-04-12T15:06:32.922Z</time></trkpt><trkpt lat="45.5994647" lon="8.675143"><ele>178.2</ele><time>2026-04-12T15:06:33.925Z</time></trkpt><trkpt lat="45.5994634" lon="8.6749097"><ele>179.8</ele><time>2026-04-12T15:06:35.93Z</time></trkpt><trkpt lat="45.5994681" lon="8.6747927"><ele>181.4</ele><time>2026-04-12T15:06:36.93Z</time></trkpt><trkpt lat="45.5994673" lon="8.6746322"><ele>183.0</ele><time>2026-04-12T15:06:37.926Z</time></trkpt><trkpt lat="45.5994686" lon="8.674479"><ele>183.4</ele><time>2026-04-12T15:06:38.935Z</time></trkpt><trkpt lat="45.5994671" lon="8.6743217"><ele>183.8</ele><time>2026-04-12T15:06:39.924Z</time></trkpt><trkpt lat="45.5994669" lon="8.6741837"><ele>184.2</ele><time>2026-04-12T15:06:40.933Z</time></trkpt><trkpt lat="45.5994707" lon="8.6740495"><ele>184.6</ele><time>2026-04-12T15:06:41.928Z</time></trkpt><trkpt lat="45.5994715" lon="8.6739143"><ele>185.0</ele><time>2026-04-12T15:06:42.917Z</time></trkpt><trkpt lat="45.5994712" lon="8.6737634"><ele>185.0</ele><time>2026-04-12T15:06:43.914Z</time></trkpt><trkpt lat="45.5994696" lon="8.6736341"><ele>185.0</ele><time>2026-04-12T15:06:44.92Z</time></trkpt><trkpt lat="45.5994764" lon="8.6735184"><ele>185.0</ele><time>2026-04-12T15:06:45.928Z</time></trkpt><trkpt lat="45.5994812" lon="8.6734278"><ele>185.0</ele><time>2026-04-12T15:06:46.93Z</time></trkpt><trkpt lat="45.5995345" lon="8.6733454"><ele>185.0</ele><time>2026-04-12T15:06:51.928Z</time></trkpt><trkpt lat="45.5996274" lon="8.6733267"><ele>185.0</ele><time>2026-04-12T15:06:53.928Z</time></trkpt><trkpt lat="45.5997005" lon="8.6732872"><ele>184.6</ele><time>2026-04-12T15:06:54.942Z</time></trkpt><trkpt lat="45.5997766" lon="8.6732475"><ele>184.2</ele><time>2026-04-12T15:06:55.929Z</time></trkpt><trkpt lat="45.5998687" lon="8.6732063"><ele>183.8</ele><time>2026-04-12T15:06:56.933Z</time></trkpt><trkpt lat="45.5999651" lon="8.6731667"><ele>183.4</ele><time>2026-04-12T15:06:57.921Z</time></trkpt><trkpt lat="45.6000601" lon="8.673127"><ele>183.0</ele><time>2026-04-12T15:06:58.931Z</time></trkpt><trkpt lat="45.6001394" lon="8.6730928"><ele>183.0</ele><time>2026-04-12T15:06:59.933Z</time></trkpt><trkpt lat="45.6002087" lon="8.673067"><ele>183.0</ele><time>2026-04-12T15:07:00.93Z</time></trkpt><trkpt lat="45.600276" lon="8.6730302"><ele>183.0</ele><time>2026-04-12T15:07:01.922Z</time></trkpt><trkpt lat="45.6003454" lon="8.6729782"><ele>183.0</ele><time>2026-04-12T15:07:02.934Z</time></trkpt><trkpt lat="45.6004139" lon="8.6729295"><ele>183.0</ele><time>2026-04-12T15:07:03.928Z</time></trkpt><trkpt lat="45.600491" lon="8.6728839"><ele>183.0</ele><time>2026-04-12T15:07:04.923Z</time></trkpt><trkpt lat="45.6005812" lon="8.672839"><ele>183.2</ele><time>2026-04-12T15:07:05.951Z</time></trkpt><trkpt lat="45.6006934" lon="8.6727958"><ele>183.4</ele><time>2026-04-12T15:07:06.921Z</time></trkpt><trkpt lat="45.6007834" lon="8.6727557"><ele>183.6</ele><time>2026-04-12T15:07:07.93Z</time></trkpt><trkpt lat="45.6008577" lon="8.6727224"><ele>183.79999999999998</ele><time>2026-04-12T15:07:08.929Z</time></trkpt><trkpt lat="45.6009749" lon="8.6726505"><ele>184.0</ele><time>2026-04-12T15:07:10.926Z</time></trkpt><trkpt lat="45.6010489" lon="8.6726086"><ele>184.0</ele><time>2026-04-12T15:07:11.933Z</time></trkpt><trkpt lat="45.6011368" lon="8.6725591"><ele>184.0</ele><time>2026-04-12T15:07:13.93Z</time></trkpt><trkpt lat="45.6012314" lon="8.6725031"><ele>184.0</ele><time>2026-04-12T15:07:15.919Z</time></trkpt><trkpt lat="45.6013039" lon="8.6724542"><ele>184.0</ele><time>2026-04-12T15:07:16.919Z</time></trkpt><trkpt lat="45.6013746" lon="8.6724132"><ele>184.0</ele><time>2026-04-12T15:07:17.928Z</time></trkpt><trkpt lat="45.6014371" lon="8.6723959"><ele>184.0</ele><time>2026-04-12T15:07:18.938Z</time></trkpt><trkpt lat="45.601512" lon="8.6723885"><ele>184.16666666666669</ele><time>2026-04-12T15:07:19.932Z</time></trkpt><trkpt lat="45.6015815" lon="8.672375"><ele>184.33333333333334</ele><time>2026-04-12T15:07:20.944Z</time></trkpt><trkpt lat="45.6016527" lon="8.6723637"><ele>184.5</ele><time>2026-04-12T15:07:21.923Z</time></trkpt><trkpt lat="45.6017334" lon="8.6723295"><ele>184.66666666666666</ele><time>2026-04-12T15:07:22.929Z</time></trkpt><trkpt lat="45.6017976" lon="8.6723026"><ele>184.83333333333331</ele><time>2026-04-12T15:07:23.923Z</time></trkpt><trkpt lat="45.6018644" lon="8.6722632"><ele>185.0</ele><time>2026-04-12T15:07:24.934Z</time></trkpt><trkpt lat="45.6019827" lon="8.6722101"><ele>185.4</ele><time>2026-04-12T15:07:26.924Z</time></trkpt><trkpt lat="45.6020693" lon="8.6721432"><ele>185.8</ele><time>2026-04-12T15:07:28.948Z</time></trkpt><trkpt lat="45.6021467" lon="8.672077"><ele>186.2</ele><time>2026-04-12T15:07:30.936Z</time></trkpt><trkpt lat="45.6022104" lon="8.6720988"><ele>186.6</ele><time>2026-04-12T15:07:32.932Z</time></trkpt><trkpt lat="45.6022931" lon="8.6720867"><ele>187.0</ele><time>2026-04-12T15:07:34.921Z</time></trkpt><trkpt lat="45.6024239" lon="8.672058"><ele>187.0</ele><time>2026-04-12T15:07:36.932Z</time></trkpt><trkpt lat="45.6025067" lon="8.6720318"><ele>187.0</ele><time>2026-04-12T15:07:37.931Z</time></trkpt><trkpt lat="45.6025671" lon="8.6720057"><ele>187.0</ele><time>2026-04-12T15:07:38.941Z</time></trkpt><trkpt lat="45.6026455" lon="8.6719475"><ele>187.0</ele><time>2026-04-12T15:07:40.931Z</time></trkpt><trkpt lat="45.602734" lon="8.6718998"><ele>187.0</ele><time>2026-04-12T15:07:42.938Z</time></trkpt><trkpt lat="45.6028569" lon="8.671846"><ele>187.16666666666669</ele><time>2026-04-12T15:07:44.943Z</time></trkpt><trkpt lat="45.6029285" lon="8.671813"><ele>187.33333333333334</ele><time>2026-04-12T15:07:45.931Z</time></trkpt><trkpt lat="45.6030183" lon="8.6717821"><ele>187.5</ele><time>2026-04-12T15:07:47.933Z</time></trkpt><trkpt lat="45.6031323" lon="8.6717916"><ele>187.66666666666666</ele><time>2026-04-12T15:08:09.933Z</time></trkpt><trkpt lat="45.6031775" lon="8.6718599"><ele>187.83333333333331</ele><time>2026-04-12T15:08:12.924Z</time></trkpt><trkpt lat="45.6032411" lon="8.6718372"><ele>188.0</ele><time>2026-04-12T15:08:14.923Z</time></trkpt><trkpt lat="45.6033238" lon="8.6718081"><ele>188.0</ele><time>2026-04-12T15:08:16.924Z</time></trkpt><trkpt lat="45.603451" lon="8.6718535"><ele>188.0</ele><time>2026-04-12T15:08:18.922Z</time></trkpt><trkpt lat="45.6035309" lon="8.6719214"><ele>188.0</ele><time>2026-04-12T15:08:19.932Z</time></trkpt><trkpt lat="45.6036317" lon="8.6720063"><ele>188.0</ele><time>2026-04-12T15:08:20.926Z</time></trkpt><trkpt lat="45.6037238" lon="8.6720654"><ele>188.0</ele><time>2026-04-12T15:08:21.926Z</time></trkpt><trkpt lat="45.6038018" lon="8.6721178"><ele>187.2</ele><time>2026-04-12T15:08:22.936Z</time></trkpt><trkpt lat="45.603891" lon="8.6721769"><ele>186.4</ele><time>2026-04-12T15:08:23.922Z</time></trkpt><trkpt lat="45.6039734" lon="8.6722048"><ele>185.6</ele><time>2026-04-12T15:08:24.929Z</time></trkpt><trkpt lat="45.6040383" lon="8.6722175"><ele>184.79999999999998</ele><time>2026-04-12T15:08:25.928Z</time></trkpt><trkpt lat="45.6041319" lon="8.6722779"><ele>184.0</ele><time>2026-04-12T15:08:27.929Z</time></trkpt><trkpt lat="45.6041996" lon="8.6723979"><ele>184.0</ele><time>2026-04-12T15:08:29.936Z</time></trkpt><trkpt lat="45.6042464" lon="8.6724914"><ele>184.0</ele><time>2026-04-12T15:08:32.931Z</time></trkpt><trkpt lat="45.6042718" lon="8.6725843"><ele>184.0</ele><time>2026-04-12T15:08:34.924Z</time></trkpt><trkpt lat="45.6043428" lon="8.6726175"><ele>184.0</ele><time>2026-04-12T15:08:37.927Z</time></trkpt><trkpt lat="45.6043922" lon="8.6725283"><ele>184.0</ele><time>2026-04-12T15:08:42.916Z</time></trkpt><trkpt lat="45.6044588" lon="8.6725385"><ele>184.0</ele><time>2026-04-12T15:08:44.92Z</time></trkpt><trkpt lat="45.6045909" lon="8.6725743"><ele>184.0</ele><time>2026-04-12T15:08:46.928Z</time></trkpt><trkpt lat="45.6046864" lon="8.6725948"><ele>184.0</ele><time>2026-04-12T15:08:47.938Z</time></trkpt><trkpt lat="45.6047524" lon="8.6726362"><ele>184.0</ele><time>2026-04-12T15:08:48.926Z</time></trkpt><trkpt lat="45.6048245" lon="8.6726802"><ele>184.0</ele><time>2026-04-12T15:08:49.924Z</time></trkpt><trkpt lat="45.6049117" lon="8.6727007"><ele>184.0</ele><time>2026-04-12T15:08:50.923Z</time></trkpt><trkpt lat="45.605014" lon="8.6727303"><ele>184.0</ele><time>2026-04-12T15:08:51.926Z</time></trkpt><trkpt lat="45.605107" lon="8.672755"><ele>184.0</ele><time>2026-04-12T15:08:52.934Z</time></trkpt><trkpt lat="45.6052127" lon="8.6727733"><ele>184.0</ele><time>2026-04-12T15:08:53.946Z</time></trkpt><trkpt lat="45.6053207" lon="8.6727831"><ele>184.0</ele><time>2026-04-12T15:08:54.93Z</time></trkpt><trkpt lat="45.6054088" lon="8.6728021"><ele>184.0</ele><time>2026-04-12T15:08:55.921Z</time></trkpt><trkpt lat="45.6054773" lon="8.672821"><ele>184.0</ele><time>2026-04-12T15:08:56.931Z</time></trkpt><trkpt lat="45.6055525" lon="8.6728498"><ele>184.0</ele><time>2026-04-12T15:08:57.932Z</time></trkpt><trkpt lat="45.6056277" lon="8.6728716"><ele>184.0</ele><time>2026-04-12T15:08:58.922Z</time></trkpt><trkpt lat="45.6057024" lon="8.6728751"><ele>184.0</ele><time>2026-04-12T15:08:59.93Z</time></trkpt><trkpt lat="45.6057878" lon="8.6728705"><ele>184.0</ele><time>2026-04-12T15:09:04.93Z</time></trkpt><trkpt lat="45.6058725" lon="8.6728478"><ele>184.0</ele><time>2026-04-12T15:09:07.939Z</time></trkpt><trkpt lat="45.6059382" lon="8.6728736"><ele>184.0</ele><time>2026-04-12T15:09:09.935Z</time></trkpt><trkpt lat="45.6059938" lon="8.6729362"><ele>184.0</ele><time>2026-04-12T15:09:10.932Z</time></trkpt><trkpt lat="45.6060322" lon="8.6730492"><ele>184.0</ele><time>2026-04-12T15:09:11.917Z</time></trkpt><trkpt lat="45.6060761" lon="8.6731894"><ele>184.0</ele><time>2026-04-12T15:09:12.927Z</time></trkpt><trkpt lat="45.6061093" lon="8.673316"><ele>184.0</ele><time>2026-04-12T15:09:13.935Z</time></trkpt><trkpt lat="45.6061435" lon="8.6734306"><ele>184.0</ele><time>2026-04-12T15:09:14.929Z</time></trkpt><trkpt lat="45.6061865" lon="8.6735398"><ele>184.2</ele><time>2026-04-12T15:09:15.931Z</time></trkpt><trkpt lat="45.60627" lon="8.6736521"><ele>184.39999999999998</ele><time>2026-04-12T15:09:17.926Z</time></trkpt><trkpt lat="45.6063407" lon="8.6736853"><ele>184.6</ele><time>2026-04-12T15:09:18.929Z</time></trkpt><trkpt lat="45.6064085" lon="8.6737208"><ele>184.8</ele><time>2026-04-12T15:09:19.928Z</time></trkpt><trkpt lat="45.6065319" lon="8.6737999"><ele>185.0</ele><time>2026-04-12T15:09:21.921Z</time></trkpt><trkpt lat="45.6065956" lon="8.6738471"><ele>185.0</ele><time>2026-04-12T15:09:22.936Z</time></trkpt><trkpt lat="45.6066596" lon="8.6739195"><ele>185.0</ele><time>2026-04-12T15:09:23.936Z</time></trkpt><trkpt lat="45.6067086" lon="8.6739808"><ele>185.0</ele><time>2026-04-12T15:09:24.932Z</time></trkpt><trkpt lat="45.6067729" lon="8.6740587"><ele>185.0</ele><time>2026-04-12T15:09:27.924Z</time></trkpt><trkpt lat="45.6068384" lon="8.6741225"><ele>185.0</ele><time>2026-04-12T15:09:52.934Z</time></trkpt><trkpt lat="45.6068839" lon="8.6742855"><ele>185.0</ele><time>2026-04-12T15:09:54.931Z</time></trkpt><trkpt lat="45.6069029" lon="8.674385"><ele>184.66666666666666</ele><time>2026-04-12T15:09:55.926Z</time></trkpt><trkpt lat="45.6069183" lon="8.6744888"><ele>184.33333333333331</ele><time>2026-04-12T15:09:56.944Z</time></trkpt><trkpt lat="45.6069366" lon="8.6746052"><ele>184.0</ele><time>2026-04-12T15:09:57.922Z</time></trkpt><trkpt lat="45.6069603" lon="8.6747356"><ele>183.66666666666666</ele><time>2026-04-12T15:09:58.93Z</time></trkpt><trkpt lat="45.6069859" lon="8.6748585"><ele>183.33333333333334</ele><time>2026-04-12T15:09:59.932Z</time></trkpt><trkpt lat="45.6070103" lon="8.6749757"><ele>183.0</ele><time>2026-04-12T15:10:00.926Z</time></trkpt><trkpt lat="45.6070346" lon="8.6750881"><ele>182.8</ele><time>2026-04-12T15:10:01.932Z</time></trkpt><trkpt lat="45.607057" lon="8.6751818"><ele>182.60000000000002</ele><time>2026-04-12T15:10:02.935Z</time></trkpt><trkpt lat="45.6070884" lon="8.67529"><ele>182.39999999999998</ele><time>2026-04-12T15:10:04.93Z</time></trkpt><trkpt lat="45.6071517" lon="8.6753495"><ele>182.2</ele><time>2026-04-12T15:10:06.924Z</time></trkpt><trkpt lat="45.6072616" lon="8.6753866"><ele>182.0</ele><time>2026-04-12T15:10:08.935Z</time></trkpt><trkpt lat="45.6073779" lon="8.6753996"><ele>182.0</ele><time>2026-04-12T15:10:10.921Z</time></trkpt><trkpt lat="45.6075136" lon="8.6754113"><ele>182.0</ele><time>2026-04-12T15:10:12.926Z</time></trkpt><trkpt lat="45.60758" lon="8.6754183"><ele>182.0</ele><time>2026-04-12T15:10:13.92Z</time></trkpt><trkpt lat="45.6076612" lon="8.6754454"><ele>182.0</ele><time>2026-04-12T15:10:15.921Z</time></trkpt><trkpt lat="45.6077342" lon="8.6754392"><ele>182.0</ele><time>2026-04-12T15:10:20.929Z</time></trkpt><trkpt lat="45.6078374" lon="8.6754357"><ele>182.66666666666666</ele><time>2026-04-12T15:10:22.932Z</time></trkpt><trkpt lat="45.6079036" lon="8.6754413"><ele>183.33333333333331</ele><time>2026-04-12T15:10:23.93Z</time></trkpt><trkpt lat="45.6079982" lon="8.6754577"><ele>184.0</ele><time>2026-04-12T15:10:25.919Z</time></trkpt><trkpt lat="45.6080682" lon="8.6754729"><ele>184.66666666666666</ele><time>2026-04-12T15:10:27.923Z</time></trkpt><trkpt lat="45.6081526" lon="8.6754899"><ele>185.33333333333334</ele><time>2026-04-12T15:10:29.929Z</time></trkpt><trkpt lat="45.6082815" lon="8.675508"><ele>186.0</ele><time>2026-04-12T15:10:31.943Z</time></trkpt><trkpt lat="45.6083511" lon="8.675535"><ele>186.0</ele><time>2026-04-12T15:10:32.918Z</time></trkpt><trkpt lat="45.6084266" lon="8.6755672"><ele>186.0</ele><time>2026-04-12T15:10:33.933Z</time></trkpt><trkpt lat="45.6085209" lon="8.6755958"><ele>186.0</ele><time>2026-04-12T15:10:34.924Z</time></trkpt><trkpt lat="45.6085961" lon="8.6756037"><ele>186.0</ele><time>2026-04-12T15:10:35.931Z</time></trkpt><trkpt lat="45.6086657" lon="8.675594"><ele>186.0</ele><time>2026-04-12T15:10:36.931Z</time></trkpt><trkpt lat="45.6087407" lon="8.675635"><ele>186.0</ele><time>2026-04-12T15:10:37.923Z</time></trkpt><trkpt lat="45.6088311" lon="8.6757005"><ele>186.16666666666666</ele><time>2026-04-12T15:10:38.927Z</time></trkpt><trkpt lat="45.6089185" lon="8.6757574"><ele>186.33333333333334</ele><time>2026-04-12T15:10:39.919Z</time></trkpt><trkpt lat="45.608994" lon="8.6758391"><ele>186.5</ele><time>2026-04-12T15:10:40.928Z</time></trkpt><trkpt lat="45.609045" lon="8.6759004"><ele>186.66666666666669</ele><time>2026-04-12T15:10:41.922Z</time></trkpt><trkpt lat="45.6091342" lon="8.6759282"><ele>186.83333333333334</ele><time>2026-04-12T15:10:43.927Z</time></trkpt><trkpt lat="45.6092117" lon="8.6759879"><ele>187.0</ele><time>2026-04-12T15:10:45.919Z</time></trkpt><trkpt lat="45.609305" lon="8.6759633"><ele>187.0</ele><time>2026-04-12T15:10:47.94Z</time></trkpt><trkpt lat="45.6093956" lon="8.6760209"><ele>187.0</ele><time>2026-04-12T15:10:49.924Z</time></trkpt><trkpt lat="45.6095141" lon="8.6760046"><ele>187.0</ele><time>2026-04-12T15:10:51.93Z</time></trkpt><trkpt lat="45.6095979" lon="8.6759176"><ele>187.0</ele><time>2026-04-12T15:10:53.925Z</time></trkpt><trkpt lat="45.6096746" lon="8.6759116"><ele>187.0</ele><time>2026-04-12T15:10:55.933Z</time></trkpt><trkpt lat="45.6097433" lon="8.6759223"><ele>186.6</ele><time>2026-04-12T15:10:57.925Z</time></trkpt><trkpt lat="45.6098178" lon="8.6758589"><ele>186.2</ele><time>2026-04-12T15:10:59.927Z</time></trkpt><trkpt lat="45.6099221" lon="8.6757781"><ele>185.8</ele><time>2026-04-12T15:11:01.935Z</time></trkpt><trkpt lat="45.6099901" lon="8.675697"><ele>185.4</ele><time>2026-04-12T15:11:03.93Z</time></trkpt><trkpt lat="45.6100775" lon="8.6755914"><ele>185.0</ele><time>2026-04-12T15:11:05.914Z</time></trkpt><trkpt lat="45.6101288" lon="8.6755372"><ele>184.99999999999997</ele><time>2026-04-12T15:11:06.931Z</time></trkpt><trkpt lat="45.6101745" lon="8.6754714"><ele>185.0</ele><time>2026-04-12T15:11:07.933Z</time></trkpt><trkpt lat="45.6102186" lon="8.6754067"><ele>185.0</ele><time>2026-04-12T15:11:08.932Z</time></trkpt><trkpt lat="45.6102744" lon="8.6753423"><ele>185.0</ele><time>2026-04-12T15:11:09.936Z</time></trkpt><trkpt lat="45.6103159" lon="8.6752643"><ele>185.0</ele><time>2026-04-12T15:11:10.933Z</time></trkpt><trkpt lat="45.6103631" lon="8.6751809"><ele>184.99999999999997</ele><time>2026-04-12T15:11:11.925Z</time></trkpt><trkpt lat="45.610409" lon="8.6751132"><ele>185.0</ele><time>2026-04-12T15:11:12.937Z</time></trkpt><trkpt lat="45.6104476" lon="8.6750279"><ele>183.8</ele><time>2026-04-12T15:11:13.932Z</time></trkpt><trkpt lat="45.610496" lon="8.674939"><ele>182.6</ele><time>2026-04-12T15:11:14.937Z</time></trkpt><trkpt lat="45.6105385" lon="8.6748545"><ele>181.39999999999998</ele><time>2026-04-12T15:11:15.926Z</time></trkpt><trkpt lat="45.6106064" lon="8.6747194"><ele>180.2</ele><time>2026-04-12T15:11:17.933Z</time></trkpt><trkpt lat="45.6106554" lon="8.6745704"><ele>179.0</ele><time>2026-04-12T15:11:19.928Z</time></trkpt><trkpt lat="45.6106855" lon="8.6744767"><ele>181.2</ele><time>2026-04-12T15:11:21.923Z</time></trkpt><trkpt lat="45.6107473" lon="8.6743546"><ele>183.39999999999998</ele><time>2026-04-12T15:11:23.927Z</time></trkpt><trkpt lat="45.6108032" lon="8.6742361"><ele>185.6</ele><time>2026-04-12T15:11:25.93Z</time></trkpt><trkpt lat="45.6108766" lon="8.6740803"><ele>187.8</ele><time>2026-04-12T15:11:27.939Z</time></trkpt><trkpt lat="45.6109182" lon="8.6739939"><ele>190.0</ele><time>2026-04-12T15:11:28.929Z</time></trkpt><trkpt lat="45.6109671" lon="8.6739105"><ele>190.0</ele><time>2026-04-12T15:11:29.931Z</time></trkpt><trkpt lat="45.6110323" lon="8.6738438"><ele>190.0</ele><time>2026-04-12T15:11:30.924Z</time></trkpt><trkpt lat="45.6111091" lon="8.6737324"><ele>190.0</ele><time>2026-04-12T15:11:32.93Z</time></trkpt><trkpt lat="45.6111441" lon="8.6736107"><ele>190.0</ele><time>2026-04-12T15:11:34.924Z</time></trkpt><trkpt lat="45.6111847" lon="8.6734563"><ele>190.0</ele><time>2026-04-12T15:12:15.934Z</time></trkpt><trkpt lat="45.6111366" lon="8.6733918"><ele>190.83333333333334</ele><time>2026-04-12T15:13:35.929Z</time></trkpt><trkpt lat="45.6110825" lon="8.6733137"><ele>191.66666666666669</ele><time>2026-04-12T15:13:37.92Z</time></trkpt><trkpt lat="45.6110307" lon="8.673215"><ele>192.5</ele><time>2026-04-12T15:13:38.928Z</time></trkpt><trkpt lat="45.610981" lon="8.6731224"><ele>193.33333333333334</ele><time>2026-04-12T15:13:39.925Z</time></trkpt><trkpt lat="45.6109347" lon="8.6730308"><ele>194.16666666666666</ele><time>2026-04-12T15:13:40.938Z</time></trkpt><trkpt lat="45.6108971" lon="8.6729572"><ele>195.0</ele><time>2026-04-12T15:13:41.93Z</time></trkpt><trkpt lat="45.610855" lon="8.6728779"><ele>196.5</ele><time>2026-04-12T15:13:42.929Z</time></trkpt><trkpt lat="45.6107683" lon="8.6726842"><ele>198.0</ele><time>2026-04-12T15:13:51.927Z</time></trkpt><trkpt lat="45.6107048" lon="8.672562"><ele>199.5</ele><time>2026-04-12T15:13:54.929Z</time></trkpt><trkpt lat="45.6106447" lon="8.6724529"><ele>201.0</ele><time>2026-04-12T15:13:56.927Z</time></trkpt><trkpt lat="45.6105865" lon="8.6723577"><ele>201.0</ele><time>2026-04-12T15:13:57.924Z</time></trkpt><trkpt lat="45.6105165" lon="8.6722472"><ele>201.0</ele><time>2026-04-12T15:13:59.934Z</time></trkpt><trkpt lat="45.6104517" lon="8.6721531"><ele>201.0</ele><time>2026-04-12T15:14:00.923Z</time></trkpt><trkpt lat="45.6103964" lon="8.6720901"><ele>201.0</ele><time>2026-04-12T15:14:01.917Z</time></trkpt><trkpt lat="45.6103361" lon="8.6720232"><ele>201.0</ele><time>2026-04-12T15:14:02.925Z</time></trkpt><trkpt lat="45.6102525" lon="8.6719227"><ele>200.33333333333334</ele><time>2026-04-12T15:14:03.936Z</time></trkpt><trkpt lat="45.6101837" lon="8.6718349"><ele>199.66666666666669</ele><time>2026-04-12T15:14:04.926Z</time></trkpt><trkpt lat="45.6101448" lon="8.6717599"><ele>199.0</ele><time>2026-04-12T15:14:05.915Z</time></trkpt><trkpt lat="45.6101001" lon="8.6716713"><ele>198.33333333333334</ele><time>2026-04-12T15:14:06.928Z</time></trkpt><trkpt lat="45.6101021" lon="8.6714958"><ele>197.66666666666669</ele><time>2026-04-12T15:14:08.926Z</time></trkpt><trkpt lat="45.6101263" lon="8.6714019"><ele>197.0</ele><time>2026-04-12T15:14:09.929Z</time></trkpt><trkpt lat="45.6101511" lon="8.6713045"><ele>197.00000000000003</ele><time>2026-04-12T15:14:10.93Z</time></trkpt><trkpt lat="45.6101962" lon="8.6712148"><ele>197.0</ele><time>2026-04-12T15:14:12.925Z</time></trkpt><trkpt lat="45.6102864" lon="8.6712395"><ele>197.0</ele><time>2026-04-12T15:14:14.934Z</time></trkpt><trkpt lat="45.6103433" lon="8.6712841"><ele>197.0</ele><time>2026-04-12T15:14:15.934Z</time></trkpt><trkpt lat="45.6104404" lon="8.6713266"><ele>197.00000000000003</ele><time>2026-04-12T15:14:17.928Z</time></trkpt><trkpt lat="45.6105186" lon="8.6713557"><ele>197.0</ele><time>2026-04-12T15:14:26.926Z</time></trkpt><trkpt lat="45.610601" lon="8.6714054"><ele>198.2</ele><time>2026-04-12T15:14:28.93Z</time></trkpt><trkpt lat="45.6106605" lon="8.6715508"><ele>199.39999999999998</ele><time>2026-04-12T15:14:30.924Z</time></trkpt><trkpt lat="45.6107573" lon="8.6716385"><ele>200.60000000000002</ele><time>2026-04-12T15:14:32.935Z</time></trkpt><trkpt lat="45.6108242" lon="8.6716596"><ele>201.8</ele><time>2026-04-12T15:14:33.92Z</time></trkpt><trkpt lat="45.6109221" lon="8.6716983"><ele>203.0</ele><time>2026-04-12T15:14:35.924Z</time></trkpt><trkpt lat="45.6110125" lon="8.6717179"><ele>203.0</ele><time>2026-04-12T15:14:37.93Z</time></trkpt><trkpt lat="45.6110974" lon="8.6716723"><ele>203.0</ele><time>2026-04-12T15:14:38.926Z</time></trkpt><trkpt lat="45.6111871" lon="8.6716163"><ele>203.0</ele><time>2026-04-12T15:14:39.929Z</time></trkpt><trkpt lat="45.6112645" lon="8.6715997"><ele>203.0</ele><time>2026-04-12T15:14:40.937Z</time></trkpt><trkpt lat="45.6113572" lon="8.6715762"><ele>203.0</ele><time>2026-04-12T15:14:41.93Z</time></trkpt><trkpt lat="45.611442" lon="8.6715174"><ele>203.66666666666669</ele><time>2026-04-12T15:14:42.934Z</time></trkpt><trkpt lat="45.6114891" lon="8.6714344"><ele>204.33333333333334</ele><time>2026-04-12T15:14:43.92Z</time></trkpt><trkpt lat="45.6115202" lon="8.6713433"><ele>205.0</ele><time>2026-04-12T15:14:44.927Z</time></trkpt><trkpt lat="45.6115595" lon="8.6712645"><ele>205.66666666666669</ele><time>2026-04-12T15:14:45.931Z</time></trkpt><trkpt lat="45.6116765" lon="8.6711635"><ele>206.33333333333334</ele><time>2026-04-12T15:14:47.932Z</time></trkpt><trkpt lat="45.6117255" lon="8.6710964"><ele>207.0</ele><time>2026-04-12T15:14:48.943Z</time></trkpt><trkpt lat="45.6117729" lon="8.6710145"><ele>207.0</ele><time>2026-04-12T15:14:49.935Z</time></trkpt><trkpt lat="45.6118162" lon="8.6709248"><ele>207.0</ele><time>2026-04-12T15:14:50.926Z</time></trkpt><trkpt lat="45.611858" lon="8.6708464"><ele>207.0</ele><time>2026-04-12T15:14:51.927Z</time></trkpt><trkpt lat="45.6119097" lon="8.6707852"><ele>207.0</ele><time>2026-04-12T15:14:52.933Z</time></trkpt><trkpt lat="45.611998" lon="8.6706908"><ele>207.0</ele><time>2026-04-12T15:14:54.928Z</time></trkpt><trkpt lat="45.6120328" lon="8.6706126"><ele>207.0</ele><time>2026-04-12T15:14:55.923Z</time></trkpt><trkpt lat="45.6120712" lon="8.6705176"><ele>206.16666666666666</ele><time>2026-04-12T15:14:56.933Z</time></trkpt><trkpt lat="45.6121206" lon="8.6704328"><ele>205.33333333333331</ele><time>2026-04-12T15:14:57.929Z</time></trkpt><trkpt lat="45.6121675" lon="8.6703438"><ele>204.5</ele><time>2026-04-12T15:14:58.934Z</time></trkpt><trkpt lat="45.6121932" lon="8.6702112"><ele>203.66666666666666</ele><time>2026-04-12T15:15:00.927Z</time></trkpt><trkpt lat="45.6122225" lon="8.6701097"><ele>202.83333333333331</ele><time>2026-04-12T15:15:03.928Z</time></trkpt><trkpt lat="45.6122427" lon="8.6699618"><ele>202.0</ele><time>2026-04-12T15:15:26.925Z</time></trkpt><trkpt lat="45.6121633" lon="8.6698732"><ele>201.99999999999997</ele><time>2026-04-12T15:16:37.919Z</time></trkpt><trkpt lat="45.6121089" lon="8.6698002"><ele>202.0</ele><time>2026-04-12T15:20:40.927Z</time></trkpt><trkpt lat="45.6120616" lon="8.6696546"><ele>202.0</ele><time>2026-04-12T15:20:42.933Z</time></trkpt><trkpt lat="45.6120227" lon="8.6695582"><ele>202.0</ele><time>2026-04-12T15:20:43.924Z</time></trkpt><trkpt lat="45.6119781" lon="8.6694677"><ele>201.99999999999997</ele><time>2026-04-12T15:20:44.938Z</time></trkpt><trkpt lat="45.6119347" lon="8.6693868"><ele>202.0</ele><time>2026-04-12T15:20:45.922Z</time></trkpt><trkpt lat="45.6118941" lon="8.669266"><ele>202.57142857142856</ele><time>2026-04-12T15:20:47.937Z</time></trkpt><trkpt lat="45.6118932" lon="8.6691646"><ele>203.14285714285714</ele><time>2026-04-12T15:20:49.939Z</time></trkpt><trkpt lat="45.6119274" lon="8.6690767"><ele>203.71428571428572</ele><time>2026-04-12T15:20:59.929Z</time></trkpt><trkpt lat="45.6119867" lon="8.6689903"><ele>204.28571428571428</ele><time>2026-04-12T15:21:01.923Z</time></trkpt><trkpt lat="45.6120428" lon="8.6689143"><ele>204.85714285714286</ele><time>2026-04-12T15:21:03.922Z</time></trkpt><trkpt lat="45.6121189" lon="8.6689426"><ele>205.42857142857142</ele><time>2026-04-12T15:21:36.92Z</time></trkpt><trkpt lat="45.612086" lon="8.6688657"><ele>206.0</ele><time>2026-04-12T15:21:54.934Z</time></trkpt><trkpt lat="45.6120623" lon="8.6687659"><ele>206.00000000000003</ele><time>2026-04-12T15:21:57.941Z</time></trkpt><trkpt lat="45.6120314" lon="8.6686466"><ele>206.0</ele><time>2026-04-12T15:21:59.943Z</time></trkpt><trkpt lat="45.6119915" lon="8.6685128"><ele>206.0</ele><time>2026-04-12T15:22:01.943Z</time></trkpt><trkpt lat="45.6119595" lon="8.6683788"><ele>206.0</ele><time>2026-04-12T15:22:03.931Z</time></trkpt><trkpt lat="45.6119313" lon="8.6682745"><ele>206.00000000000003</ele><time>2026-04-12T15:22:05.929Z</time></trkpt><trkpt lat="45.61193" lon="8.6681844"><ele>206.0</ele><time>2026-04-12T15:22:10.926Z</time></trkpt><trkpt lat="45.6119982" lon="8.6681385"><ele>206.14285714285714</ele><time>2026-04-12T15:22:15.926Z</time></trkpt><trkpt lat="45.6120691" lon="8.668151"><ele>206.28571428571428</ele><time>2026-04-12T15:22:27.938Z</time></trkpt><trkpt lat="45.6121293" lon="8.6680755"><ele>206.42857142857144</ele><time>2026-04-12T15:22:48.93Z</time></trkpt><trkpt lat="45.6122089" lon="8.6680586"><ele>206.57142857142856</ele><time>2026-04-12T15:22:53.936Z</time></trkpt><trkpt lat="45.6122726" lon="8.6680604"><ele>206.71428571428572</ele><time>2026-04-12T15:22:56.924Z</time></trkpt><trkpt lat="45.6123344" lon="8.6681505"><ele>206.85714285714286</ele><time>2026-04-12T15:23:10.93Z</time></trkpt><trkpt lat="45.612377" lon="8.6680793"><ele>207.0</ele><time>2026-04-12T15:23:12.932Z</time></trkpt><trkpt lat="45.6124928" lon="8.6679897"><ele>207.00000000000003</ele><time>2026-04-12T15:23:14.94Z</time></trkpt><trkpt lat="45.6125538" lon="8.6679583"><ele>207.0</ele><time>2026-04-12T15:23:15.932Z</time></trkpt><trkpt lat="45.6126184" lon="8.6679177"><ele>207.0</ele><time>2026-04-12T15:23:16.92Z</time></trkpt><trkpt lat="45.6127079" lon="8.6679537"><ele>207.0</ele><time>2026-04-12T15:23:18.929Z</time></trkpt><trkpt lat="45.6127719" lon="8.6679618"><ele>207.0</ele><time>2026-04-12T15:23:19.93Z</time></trkpt><trkpt lat="45.6128368" lon="8.6679568"><ele>207.00000000000003</ele><time>2026-04-12T15:23:20.92Z</time></trkpt><trkpt lat="45.6128861" lon="8.667894"><ele>207.0</ele><time>2026-04-12T15:23:21.921Z</time></trkpt><trkpt lat="45.6129479" lon="8.6677812"><ele>206.66666666666666</ele><time>2026-04-12T15:23:23.923Z</time></trkpt><trkpt lat="45.6130258" lon="8.6677248"><ele>206.33333333333331</ele><time>2026-04-12T15:23:25.922Z</time></trkpt><trkpt lat="45.6131181" lon="8.6676012"><ele>206.0</ele><time>2026-04-12T15:23:27.929Z</time></trkpt><trkpt lat="45.613161" lon="8.6675333"><ele>205.66666666666666</ele><time>2026-04-12T15:23:28.929Z</time></trkpt><trkpt lat="45.6132074" lon="8.6674718"><ele>205.33333333333331</ele><time>2026-04-12T15:23:29.933Z</time></trkpt><trkpt lat="45.613288" lon="8.6673723"><ele>205.0</ele><time>2026-04-12T15:23:31.928Z</time></trkpt><trkpt lat="45.6133492" lon="8.6672884"><ele>205.0</ele><time>2026-04-12T15:23:33.931Z</time></trkpt><trkpt lat="45.6134082" lon="8.6672028"><ele>205.0</ele><time>2026-04-12T15:23:36.932Z</time></trkpt><trkpt lat="45.6133861" lon="8.6670996"><ele>205.0</ele><time>2026-04-12T15:23:40.937Z</time></trkpt><trkpt lat="45.6135034" lon="8.6670541"><ele>205.0</ele><time>2026-04-12T15:23:51.928Z</time></trkpt><trkpt lat="45.6135904" lon="8.6670899"><ele>205.0</ele><time>2026-04-12T15:23:54.938Z</time></trkpt><trkpt lat="45.6136825" lon="8.6671519"><ele>203.16666666666666</ele><time>2026-04-12T15:23:56.93Z</time></trkpt><trkpt lat="45.6137384" lon="8.6672034"><ele>201.33333333333331</ele><time>2026-04-12T15:23:57.952Z</time></trkpt><trkpt lat="45.6138308" lon="8.6672789"><ele>199.5</ele><time>2026-04-12T15:23:59.937Z</time></trkpt><trkpt lat="45.6138955" lon="8.6673221"><ele>197.66666666666669</ele><time>2026-04-12T15:24:00.932Z</time></trkpt><trkpt lat="45.6139467" lon="8.6673941"><ele>195.83333333333334</ele><time>2026-04-12T15:24:01.934Z</time></trkpt><trkpt lat="45.6139595" lon="8.6675798"><ele>194.0</ele><time>2026-04-12T15:24:03.924Z</time></trkpt><trkpt lat="45.6139377" lon="8.6676741"><ele>194.00000000000003</ele><time>2026-04-12T15:24:04.933Z</time></trkpt><trkpt lat="45.6139048" lon="8.6677699"><ele>194.0</ele><time>2026-04-12T15:24:05.931Z</time></trkpt><trkpt lat="45.6138705" lon="8.6678762"><ele>194.0</ele><time>2026-04-12T15:24:06.935Z</time></trkpt><trkpt lat="45.6138477" lon="8.6679845"><ele>194.0</ele><time>2026-04-12T15:24:07.93Z</time></trkpt><trkpt lat="45.6138226" lon="8.6681189"><ele>194.00000000000003</ele><time>2026-04-12T15:24:09.931Z</time></trkpt><trkpt lat="45.6138703" lon="8.6681794"><ele>194.0</ele><time>2026-04-12T15:24:12.934Z</time></trkpt><trkpt lat="45.6139485" lon="8.6680789"><ele>194.0</ele><time>2026-04-12T15:24:15.919Z</time></trkpt><trkpt lat="45.6139821" lon="8.6679931"><ele>194.0</ele><time>2026-04-12T15:24:16.925Z</time></trkpt><trkpt lat="45.6140147" lon="8.6679093"><ele>194.0</ele><time>2026-04-12T15:24:17.937Z</time></trkpt><trkpt lat="45.6140638" lon="8.6678323"><ele>194.0</ele><time>2026-04-12T15:24:18.934Z</time></trkpt><trkpt lat="45.6141066" lon="8.6677636"><ele>194.0</ele><time>2026-04-12T15:24:19.936Z</time></trkpt><trkpt lat="45.6141726" lon="8.6677416"><ele>194.0</ele><time>2026-04-12T15:24:20.937Z</time></trkpt><trkpt lat="45.6142538" lon="8.6677711"><ele>194.0</ele><time>2026-04-12T15:24:21.921Z</time></trkpt><trkpt lat="45.6143403" lon="8.6678458"><ele>192.39999999999998</ele><time>2026-04-12T15:24:22.921Z</time></trkpt><trkpt lat="45.6144216" lon="8.6679401"><ele>190.8</ele><time>2026-04-12T15:24:23.921Z</time></trkpt><trkpt lat="45.6144913" lon="8.6680176"><ele>189.2</ele><time>2026-04-12T15:24:24.936Z</time></trkpt><trkpt lat="45.614611" lon="8.6680792"><ele>187.60000000000002</ele><time>2026-04-12T15:24:26.925Z</time></trkpt><trkpt lat="45.6146923" lon="8.6680877"><ele>186.0</ele><time>2026-04-12T15:24:27.921Z</time></trkpt><trkpt lat="45.6147701" lon="8.6680859"><ele>184.33333333333334</ele><time>2026-04-12T15:24:28.935Z</time></trkpt><trkpt lat="45.6148327" lon="8.6681"><ele>182.66666666666666</ele><time>2026-04-12T15:24:29.932Z</time></trkpt><trkpt lat="45.6149251" lon="8.6681172"><ele>181.0</ele><time>2026-04-12T15:24:31.926Z</time></trkpt><trkpt lat="45.6149689" lon="8.6681934"><ele>179.33333333333331</ele><time>2026-04-12T15:24:33.924Z</time></trkpt><trkpt lat="45.6149727" lon="8.6682891"><ele>177.66666666666666</ele><time>2026-04-12T15:24:34.931Z</time></trkpt><trkpt lat="45.6149636" lon="8.668422"><ele>176.0</ele><time>2026-04-12T15:24:35.924Z</time></trkpt><trkpt lat="45.6149449" lon="8.6685424"><ele>174.83333333333331</ele><time>2026-04-12T15:24:36.924Z</time></trkpt><trkpt lat="45.6149343" lon="8.6686728"><ele>173.66666666666666</ele><time>2026-04-12T15:24:37.931Z</time></trkpt><trkpt lat="45.614953" lon="8.6687969"><ele>172.5</ele><time>2026-04-12T15:24:38.939Z</time></trkpt><trkpt lat="45.6149683" lon="8.6689019"><ele>171.33333333333334</ele><time>2026-04-12T15:24:39.93Z</time></trkpt><trkpt lat="45.6150156" lon="8.6690069"><ele>170.16666666666669</ele><time>2026-04-12T15:24:40.929Z</time></trkpt><trkpt lat="45.6150698" lon="8.6690941"><ele>169.0</ele><time>2026-04-12T15:24:41.943Z</time></trkpt><trkpt lat="45.6151175" lon="8.6691665"><ele>169.0</ele><time>2026-04-12T15:24:42.933Z</time></trkpt><trkpt lat="45.6151699" lon="8.669234"><ele>169.0</ele><time>2026-04-12T15:24:43.933Z</time></trkpt><trkpt lat="45.6152151" lon="8.6693004"><ele>169.0</ele><time>2026-04-12T15:24:44.917Z</time></trkpt><trkpt lat="45.6152679" lon="8.6694249"><ele>169.0</ele><time>2026-04-12T15:24:46.942Z</time></trkpt><trkpt lat="45.615343" lon="8.6695068"><ele>169.0</ele><time>2026-04-12T15:24:48.933Z</time></trkpt><trkpt lat="45.6154179" lon="8.6695273"><ele>169.0</ele><time>2026-04-12T15:24:50.935Z</time></trkpt><trkpt lat="45.6154904" lon="8.6695109"><ele>168.39999999999998</ele><time>2026-04-12T15:24:53.926Z</time></trkpt><trkpt lat="45.6155938" lon="8.6695189"><ele>167.8</ele><time>2026-04-12T15:25:36.922Z</time></trkpt><trkpt lat="45.615715" lon="8.6694807"><ele>167.2</ele><time>2026-04-12T15:25:38.92Z</time></trkpt><trkpt lat="45.615809" lon="8.6693535"><ele>166.60000000000002</ele><time>2026-04-12T15:25:40.922Z</time></trkpt><trkpt lat="45.6158497" lon="8.6692631"><ele>166.0</ele><time>2026-04-12T15:25:41.946Z</time></trkpt><trkpt lat="45.6158875" lon="8.6691411"><ele>165.8</ele><time>2026-04-12T15:25:42.93Z</time></trkpt><trkpt lat="45.6159259" lon="8.6690008"><ele>165.60000000000002</ele><time>2026-04-12T15:25:43.922Z</time></trkpt><trkpt lat="45.615965" lon="8.6688562"><ele>165.4</ele><time>2026-04-12T15:25:44.937Z</time></trkpt><trkpt lat="45.6160128" lon="8.6687229"><ele>165.2</ele><time>2026-04-12T15:25:45.924Z</time></trkpt><trkpt lat="45.6160684" lon="8.6686089"><ele>165.0</ele><time>2026-04-12T15:25:46.934Z</time></trkpt><trkpt lat="45.6161326" lon="8.6685092"><ele>165.2</ele><time>2026-04-12T15:25:47.931Z</time></trkpt><trkpt lat="45.6162143" lon="8.6684118"><ele>165.4</ele><time>2026-04-12T15:25:48.928Z</time></trkpt><trkpt lat="45.616304" lon="8.6683095"><ele>165.60000000000002</ele><time>2026-04-12T15:25:49.924Z</time></trkpt><trkpt lat="45.6163927" lon="8.6682013"><ele>165.8</ele><time>2026-04-12T15:25:50.938Z</time></trkpt><trkpt lat="45.6164684" lon="8.668093"><ele>166.0</ele><time>2026-04-12T15:25:51.925Z</time></trkpt><trkpt lat="45.6165404" lon="8.6679914"><ele>166.0</ele><time>2026-04-12T15:25:52.922Z</time></trkpt><trkpt lat="45.6166194" lon="8.6678942"><ele>166.0</ele><time>2026-04-12T15:25:53.933Z</time></trkpt><trkpt lat="45.6166987" lon="8.6677994"><ele>166.0</ele><time>2026-04-12T15:25:54.926Z</time></trkpt><trkpt lat="45.6168531" lon="8.6676448"><ele>166.0</ele><time>2026-04-12T15:25:56.919Z</time></trkpt><trkpt lat="45.6169353" lon="8.6675775"><ele>166.33333333333334</ele><time>2026-04-12T15:25:57.929Z</time></trkpt><trkpt lat="45.6170155" lon="8.6675295"><ele>166.66666666666669</ele><time>2026-04-12T15:25:58.932Z</time></trkpt><trkpt lat="45.6170915" lon="8.6674909"><ele>167.0</ele><time>2026-04-12T15:25:59.935Z</time></trkpt><trkpt lat="45.6171647" lon="8.667457"><ele>167.33333333333334</ele><time>2026-04-12T15:26:00.932Z</time></trkpt><trkpt lat="45.617234" lon="8.6674138"><ele>167.66666666666666</ele><time>2026-04-12T15:26:01.934Z</time></trkpt><trkpt lat="45.6172996" lon="8.6673446"><ele>168.0</ele><time>2026-04-12T15:26:02.932Z</time></trkpt><trkpt lat="45.6173657" lon="8.6672738"><ele>168.0</ele><time>2026-04-12T15:26:03.922Z</time></trkpt><trkpt lat="45.6174373" lon="8.6672011"><ele>168.0</ele><time>2026-04-12T15:26:04.93Z</time></trkpt><trkpt lat="45.6175017" lon="8.667153"><ele>168.0</ele><time>2026-04-12T15:26:05.918Z</time></trkpt><trkpt lat="45.6175829" lon="8.667102"><ele>168.0</ele><time>2026-04-12T15:26:06.924Z</time></trkpt><trkpt lat="45.6176735" lon="8.667048"><ele>168.0</ele><time>2026-04-12T15:26:07.925Z</time></trkpt><trkpt lat="45.6177646" lon="8.6669929"><ele>168.0</ele><time>2026-04-12T15:26:08.926Z</time></trkpt><trkpt lat="45.6178524" lon="8.6669501"><ele>168.2</ele><time>2026-04-12T15:26:09.932Z</time></trkpt><trkpt lat="45.6179315" lon="8.6669183"><ele>168.4</ele><time>2026-04-12T15:26:10.923Z</time></trkpt><trkpt lat="45.6180066" lon="8.6668062"><ele>168.6</ele><time>2026-04-12T15:26:12.929Z</time></trkpt><trkpt lat="45.6179307" lon="8.6666345"><ele>168.79999999999998</ele><time>2026-04-12T15:26:14.938Z</time></trkpt><trkpt lat="45.6178617" lon="8.6665389"><ele>169.0</ele><time>2026-04-12T15:26:15.944Z</time></trkpt><trkpt lat="45.6178183" lon="8.6664504"><ele>169.0</ele><time>2026-04-12T15:26:16.92Z</time></trkpt><trkpt lat="45.6177941" lon="8.6663621"><ele>169.0</ele><time>2026-04-12T15:26:17.915Z</time></trkpt><trkpt lat="45.6178416" lon="8.6661669"><ele>169.0</ele><time>2026-04-12T15:26:19.922Z</time></trkpt><trkpt lat="45.6179017" lon="8.6660296"><ele>169.0</ele><time>2026-04-12T15:26:20.934Z</time></trkpt><trkpt lat="45.6179653" lon="8.6658767"><ele>169.0</ele><time>2026-04-12T15:26:21.928Z</time></trkpt><trkpt lat="45.6180182" lon="8.6657188"><ele>168.0</ele><time>2026-04-12T15:26:22.941Z</time></trkpt><trkpt lat="45.6180545" lon="8.6655591"><ele>167.0</ele><time>2026-04-12T15:26:23.921Z</time></trkpt><trkpt lat="45.6180721" lon="8.6653768"><ele>166.0</ele><time>2026-04-12T15:26:24.915Z</time></trkpt><trkpt lat="45.6180849" lon="8.6651903"><ele>165.0</ele><time>2026-04-12T15:26:25.936Z</time></trkpt><trkpt lat="45.6181006" lon="8.6650204"><ele>165.0</ele><time>2026-04-12T15:26:26.93Z</time></trkpt><trkpt lat="45.6181171" lon="8.6648581"><ele>165.0</ele><time>2026-04-12T15:26:27.939Z</time></trkpt><trkpt lat="45.6181481" lon="8.6647038"><ele>165.0</ele><time>2026-04-12T15:26:28.936Z</time></trkpt><trkpt lat="45.618184" lon="8.6645548"><ele>165.0</ele><time>2026-04-12T15:26:29.933Z</time></trkpt><trkpt lat="45.618248" lon="8.6644271"><ele>165.0</ele><time>2026-04-12T15:26:30.927Z</time></trkpt><trkpt lat="45.6183145" lon="8.6643016"><ele>165.0</ele><time>2026-04-12T15:26:31.935Z</time></trkpt><trkpt lat="45.6183825" lon="8.6641876"><ele>165.0</ele><time>2026-04-12T15:26:32.928Z</time></trkpt><trkpt lat="45.6184489" lon="8.664077"><ele>165.0</ele><time>2026-04-12T15:26:33.93Z</time></trkpt><trkpt lat="45.6185065" lon="8.6639703"><ele>165.0</ele><time>2026-04-12T15:26:34.934Z</time></trkpt><trkpt lat="45.6185607" lon="8.6638716"><ele>165.0</ele><time>2026-04-12T15:26:35.933Z</time></trkpt><trkpt lat="45.6186093" lon="8.663793"><ele>164.83333333333334</ele><time>2026-04-12T15:26:36.927Z</time></trkpt><trkpt lat="45.6186904" lon="8.6637083"><ele>164.66666666666666</ele><time>2026-04-12T15:26:38.93Z</time></trkpt><trkpt lat="45.6187516" lon="8.6637437"><ele>164.5</ele><time>2026-04-12T15:26:40.929Z</time></trkpt><trkpt lat="45.6188067" lon="8.6638283"><ele>164.33333333333331</ele><time>2026-04-12T15:26:42.934Z</time></trkpt><trkpt lat="45.618888" lon="8.6639505"><ele>164.16666666666666</ele><time>2026-04-12T15:26:44.93Z</time></trkpt><trkpt lat="45.6189377" lon="8.6640256"><ele>164.0</ele><time>2026-04-12T15:26:45.94Z</time></trkpt><trkpt lat="45.6189951" lon="8.664112"><ele>164.0</ele><time>2026-04-12T15:26:46.922Z</time></trkpt><trkpt lat="45.6190543" lon="8.6642039"><ele>164.0</ele><time>2026-04-12T15:26:47.928Z</time></trkpt><trkpt lat="45.6191166" lon="8.6642921"><ele>164.0</ele><time>2026-04-12T15:26:48.936Z</time></trkpt><trkpt lat="45.6191739" lon="8.6643724"><ele>164.0</ele><time>2026-04-12T15:26:49.945Z</time></trkpt><trkpt lat="45.6192264" lon="8.6644276"><ele>164.0</ele><time>2026-04-12T15:26:50.917Z</time></trkpt><trkpt lat="45.6193275" lon="8.6644653"><ele>164.0</ele><time>2026-04-12T15:26:52.921Z</time></trkpt><trkpt lat="45.6194411" lon="8.6643675"><ele>163.75</ele><time>2026-04-12T15:26:54.926Z</time></trkpt><trkpt lat="45.6194983" lon="8.6642565"><ele>163.5</ele><time>2026-04-12T15:26:55.929Z</time></trkpt><trkpt lat="45.6195711" lon="8.6641095"><ele>163.25</ele><time>2026-04-12T15:26:56.923Z</time></trkpt><trkpt lat="45.6196748" lon="8.663977"><ele>163.0</ele><time>2026-04-12T15:26:57.927Z</time></trkpt><trkpt lat="45.6198029" lon="8.663856"><ele>163.0</ele><time>2026-04-12T15:26:58.936Z</time></trkpt><trkpt lat="45.6199525" lon="8.6636971"><ele>163.0</ele><time>2026-04-12T15:26:59.933Z</time></trkpt><trkpt lat="45.6200926" lon="8.6635504"><ele>163.0</ele><time>2026-04-12T15:27:00.93Z</time></trkpt><trkpt lat="45.6202168" lon="8.6634175"><ele>162.5</ele><time>2026-04-12T15:27:01.922Z</time></trkpt><trkpt lat="45.6203382" lon="8.6632863"><ele>162.0</ele><time>2026-04-12T15:27:02.935Z</time></trkpt><trkpt lat="45.6204509" lon="8.6631558"><ele>161.5</ele><time>2026-04-12T15:27:03.93Z</time></trkpt><trkpt lat="45.6205624" lon="8.6630195"><ele>161.0</ele><time>2026-04-12T15:27:04.922Z</time></trkpt><trkpt lat="45.6206729" lon="8.6628822"><ele>161.5</ele><time>2026-04-12T15:27:05.943Z</time></trkpt><trkpt lat="45.6207886" lon="8.6627522"><ele>162.0</ele><time>2026-04-12T15:27:06.935Z</time></trkpt><trkpt lat="45.6209033" lon="8.6626359"><ele>162.5</ele><time>2026-04-12T15:27:07.932Z</time></trkpt><trkpt lat="45.6210261" lon="8.6625292"><ele>163.0</ele><time>2026-04-12T15:27:08.934Z</time></trkpt><trkpt lat="45.621144" lon="8.6624229"><ele>162.75</ele><time>2026-04-12T15:27:09.942Z</time></trkpt><trkpt lat="45.6212403" lon="8.6622973"><ele>162.5</ele><time>2026-04-12T15:27:10.933Z</time></trkpt><trkpt lat="45.6213336" lon="8.6621584"><ele>162.25</ele><time>2026-04-12T15:27:11.933Z</time></trkpt><trkpt lat="45.6214131" lon="8.6619898"><ele>162.0</ele><time>2026-04-12T15:27:12.93Z</time></trkpt><trkpt lat="45.6215051" lon="8.6618073"><ele>163.66666666666666</ele><time>2026-04-12T15:27:13.927Z</time></trkpt><trkpt lat="45.6215992" lon="8.6616161"><ele>165.33333333333331</ele><time>2026-04-12T15:27:14.931Z</time></trkpt><trkpt lat="45.6216908" lon="8.6614204"><ele>167.0</ele><time>2026-04-12T15:27:15.93Z</time></trkpt><trkpt lat="45.6217771" lon="8.6612309"><ele>167.25</ele><time>2026-04-12T15:27:16.924Z</time></trkpt><trkpt lat="45.6218536" lon="8.6610449"><ele>167.5</ele><time>2026-04-12T15:27:17.945Z</time></trkpt><trkpt lat="45.6219369" lon="8.6608661"><ele>167.75</ele><time>2026-04-12T15:27:18.929Z</time></trkpt><trkpt lat="45.6220194" lon="8.6607029"><ele>168.0</ele><time>2026-04-12T15:27:19.941Z</time></trkpt><trkpt lat="45.6220953" lon="8.6605284"><ele>168.0</ele><time>2026-04-12T15:27:20.931Z</time></trkpt><trkpt lat="45.6221786" lon="8.6603685"><ele>168.0</ele><time>2026-04-12T15:27:21.931Z</time></trkpt><trkpt lat="45.6222637" lon="8.6601963"><ele>168.0</ele><time>2026-04-12T15:27:22.934Z</time></trkpt><trkpt lat="45.622346" lon="8.6600196"><ele>168.0</ele><time>2026-04-12T15:27:23.929Z</time></trkpt><trkpt lat="45.6224168" lon="8.6598614"><ele>168.0</ele><time>2026-04-12T15:27:24.934Z</time></trkpt><trkpt lat="45.6224875" lon="8.6597111"><ele>168.0</ele><time>2026-04-12T15:27:25.932Z</time></trkpt><trkpt lat="45.6225651" lon="8.659552"><ele>168.0</ele><time>2026-04-12T15:27:26.924Z</time></trkpt><trkpt lat="45.6226387" lon="8.6593811"><ele>168.0</ele><time>2026-04-12T15:27:27.93Z</time></trkpt><trkpt lat="45.622705" lon="8.6592296"><ele>167.75</ele><time>2026-04-12T15:27:28.925Z</time></trkpt><trkpt lat="45.6227893" lon="8.6591066"><ele>167.5</ele><time>2026-04-12T15:27:29.926Z</time></trkpt><trkpt lat="45.6228698" lon="8.6589744"><ele>167.25</ele><time>2026-04-12T15:27:30.925Z</time></trkpt><trkpt lat="45.6229636" lon="8.6588516"><ele>167.0</ele><time>2026-04-12T15:27:31.933Z</time></trkpt><trkpt lat="45.6230672" lon="8.6587448"><ele>167.0</ele><time>2026-04-12T15:27:32.922Z</time></trkpt><trkpt lat="45.6231792" lon="8.658656"><ele>167.0</ele><time>2026-04-12T15:27:33.938Z</time></trkpt><trkpt lat="45.6232902" lon="8.6585571"><ele>167.0</ele><time>2026-04-12T15:27:34.931Z</time></trkpt><trkpt lat="45.623393" lon="8.6584473"><ele>167.0</ele><time>2026-04-12T15:27:35.929Z</time></trkpt><trkpt lat="45.6234903" lon="8.6583433"><ele>167.0</ele><time>2026-04-12T15:27:36.952Z</time></trkpt><trkpt lat="45.6236177" lon="8.658242"><ele>167.0</ele><time>2026-04-12T15:27:37.931Z</time></trkpt><trkpt lat="45.6237261" lon="8.6581364"><ele>167.0</ele><time>2026-04-12T15:27:38.919Z</time></trkpt><trkpt lat="45.623831" lon="8.6580331"><ele>167.0</ele><time>2026-04-12T15:27:39.936Z</time></trkpt><trkpt lat="45.6239294" lon="8.6579336"><ele>166.8</ele><time>2026-04-12T15:27:40.938Z</time></trkpt><trkpt lat="45.6240274" lon="8.6578474"><ele>166.6</ele><time>2026-04-12T15:27:41.941Z</time></trkpt><trkpt lat="45.6241111" lon="8.6577605"><ele>166.4</ele><time>2026-04-12T15:27:42.933Z</time></trkpt><trkpt lat="45.6241961" lon="8.6576881"><ele>166.20000000000002</ele><time>2026-04-12T15:27:43.937Z</time></trkpt><trkpt lat="45.6242708" lon="8.6576311"><ele>166.0</ele><time>2026-04-12T15:27:44.937Z</time></trkpt><trkpt lat="45.6243292" lon="8.6575748"><ele>166.0</ele><time>2026-04-12T15:27:45.938Z</time></trkpt><trkpt lat="45.6244156" lon="8.6574901"><ele>166.0</ele><time>2026-04-12T15:27:47.929Z</time></trkpt><trkpt lat="45.6244948" lon="8.6574483"><ele>166.0</ele><time>2026-04-12T15:27:49.938Z</time></trkpt><trkpt lat="45.6246051" lon="8.6574078"><ele>166.0</ele><time>2026-04-12T15:27:51.938Z</time></trkpt><trkpt lat="45.6247206" lon="8.6573488"><ele>166.0</ele><time>2026-04-12T15:27:53.928Z</time></trkpt><trkpt lat="45.6247849" lon="8.6573177"><ele>166.20000000000002</ele><time>2026-04-12T15:27:54.938Z</time></trkpt><trkpt lat="45.6248462" lon="8.6572896"><ele>166.4</ele><time>2026-04-12T15:27:55.924Z</time></trkpt><trkpt lat="45.6249481" lon="8.6572474"><ele>166.6</ele><time>2026-04-12T15:27:57.927Z</time></trkpt><trkpt lat="45.6250667" lon="8.6571985"><ele>166.8</ele><time>2026-04-12T15:28:49.931Z</time></trkpt><trkpt lat="45.6251376" lon="8.657165"><ele>167.0</ele><time>2026-04-12T15:28:51.94Z</time></trkpt><trkpt lat="45.625242" lon="8.6571144"><ele>167.0</ele><time>2026-04-12T15:28:53.92Z</time></trkpt><trkpt lat="45.6253075" lon="8.6570902"><ele>167.0</ele><time>2026-04-12T15:28:54.927Z</time></trkpt><trkpt lat="45.6253722" lon="8.6570601"><ele>167.0</ele><time>2026-04-12T15:28:55.928Z</time></trkpt><trkpt lat="45.6254368" lon="8.6570301"><ele>167.0</ele><time>2026-04-12T15:28:56.935Z</time></trkpt><trkpt lat="45.6255111" lon="8.6569972"><ele>167.0</ele><time>2026-04-12T15:28:57.932Z</time></trkpt><trkpt lat="45.6255931" lon="8.6569579"><ele>167.0</ele><time>2026-04-12T15:28:58.937Z</time></trkpt><trkpt lat="45.6256788" lon="8.6569194"><ele>167.6</ele><time>2026-04-12T15:28:59.922Z</time></trkpt><trkpt lat="45.6257699" lon="8.6568798"><ele>168.2</ele><time>2026-04-12T15:29:00.932Z</time></trkpt><trkpt lat="45.6258684" lon="8.6568391"><ele>168.8</ele><time>2026-04-12T15:29:01.93Z</time></trkpt><trkpt lat="45.6259684" lon="8.6567915"><ele>169.4</ele><time>2026-04-12T15:29:02.925Z</time></trkpt><trkpt lat="45.6260712" lon="8.6567447"><ele>170.0</ele><time>2026-04-12T15:29:03.936Z</time></trkpt><trkpt lat="45.6261742" lon="8.6566982"><ele>170.2</ele><time>2026-04-12T15:29:04.922Z</time></trkpt><trkpt lat="45.6262762" lon="8.6566435"><ele>170.4</ele><time>2026-04-12T15:29:05.931Z</time></trkpt><trkpt lat="45.626377" lon="8.6565791"><ele>170.60000000000002</ele><time>2026-04-12T15:29:06.93Z</time></trkpt><trkpt lat="45.6264732" lon="8.656507"><ele>170.8</ele><time>2026-04-12T15:29:07.93Z</time></trkpt><trkpt lat="45.6265667" lon="8.6564344"><ele>171.0</ele><time>2026-04-12T15:29:08.921Z</time></trkpt><trkpt lat="45.6266477" lon="8.6563529"><ele>171.0</ele><time>2026-04-12T15:29:09.94Z</time></trkpt><trkpt lat="45.6267428" lon="8.6562814"><ele>171.0</ele><time>2026-04-12T15:29:10.928Z</time></trkpt><trkpt lat="45.6268343" lon="8.6562044"><ele>171.0</ele><time>2026-04-12T15:29:11.928Z</time></trkpt><trkpt lat="45.6269216" lon="8.6561349"><ele>171.0</ele><time>2026-04-12T15:29:12.93Z</time></trkpt><trkpt lat="45.6270143" lon="8.6560675"><ele>171.0</ele><time>2026-04-12T15:29:13.923Z</time></trkpt><trkpt lat="45.6270985" lon="8.6559965"><ele>171.16666666666666</ele><time>2026-04-12T15:29:14.925Z</time></trkpt><trkpt lat="45.6271791" lon="8.6559294"><ele>171.33333333333334</ele><time>2026-04-12T15:29:15.922Z</time></trkpt><trkpt lat="45.6272626" lon="8.6558659"><ele>171.5</ele><time>2026-04-12T15:29:16.917Z</time></trkpt><trkpt lat="45.6273399" lon="8.655806"><ele>171.66666666666669</ele><time>2026-04-12T15:29:17.945Z</time></trkpt><trkpt lat="45.627411" lon="8.6557424"><ele>171.83333333333334</ele><time>2026-04-12T15:29:18.946Z</time></trkpt><trkpt lat="45.6274792" lon="8.6556782"><ele>172.0</ele><time>2026-04-12T15:29:19.93Z</time></trkpt><trkpt lat="45.6275474" lon="8.6556262"><ele>172.0</ele><time>2026-04-12T15:29:20.935Z</time></trkpt><trkpt lat="45.6276078" lon="8.6555874"><ele>172.0</ele><time>2026-04-12T15:29:21.928Z</time></trkpt><trkpt lat="45.627726" lon="8.6555597"><ele>172.0</ele><time>2026-04-12T15:29:23.923Z</time></trkpt><trkpt lat="45.6277843" lon="8.6555962"><ele>172.0</ele><time>2026-04-12T15:29:24.931Z</time></trkpt><trkpt lat="45.6278579" lon="8.6556577"><ele>172.0</ele><time>2026-04-12T15:29:25.932Z</time></trkpt><trkpt lat="45.6279327" lon="8.6557143"><ele>172.0</ele><time>2026-04-12T15:29:26.928Z</time></trkpt><trkpt lat="45.6280172" lon="8.6557752"><ele>171.2</ele><time>2026-04-12T15:29:27.923Z</time></trkpt><trkpt lat="45.6280996" lon="8.6558513"><ele>170.39999999999998</ele><time>2026-04-12T15:29:28.94Z</time></trkpt><trkpt lat="45.6281755" lon="8.6559289"><ele>169.60000000000002</ele><time>2026-04-12T15:29:29.931Z</time></trkpt><trkpt lat="45.6282474" lon="8.6560336"><ele>168.8</ele><time>2026-04-12T15:29:30.919Z</time></trkpt><trkpt lat="45.6283128" lon="8.6561454"><ele>168.0</ele><time>2026-04-12T15:29:31.926Z</time></trkpt><trkpt lat="45.6283813" lon="8.6562568"><ele>167.8</ele><time>2026-04-12T15:29:32.922Z</time></trkpt><trkpt lat="45.6284563" lon="8.6563653"><ele>167.60000000000002</ele><time>2026-04-12T15:29:33.94Z</time></trkpt><trkpt lat="45.628533" lon="8.6564689"><ele>167.39999999999998</ele><time>2026-04-12T15:29:34.92Z</time></trkpt><trkpt lat="45.6286076" lon="8.6565766"><ele>167.2</ele><time>2026-04-12T15:29:35.932Z</time></trkpt><trkpt lat="45.6286826" lon="8.65668"><ele>167.0</ele><time>2026-04-12T15:29:36.929Z</time></trkpt><trkpt lat="45.6287662" lon="8.6567696"><ele>167.0</ele><time>2026-04-12T15:29:37.929Z</time></trkpt><trkpt lat="45.6288582" lon="8.6568349"><ele>167.0</ele><time>2026-04-12T15:29:38.92Z</time></trkpt><trkpt lat="45.6289587" lon="8.6568862"><ele>167.0</ele><time>2026-04-12T15:29:39.923Z</time></trkpt><trkpt lat="45.6290621" lon="8.6569247"><ele>167.0</ele><time>2026-04-12T15:29:40.922Z</time></trkpt><trkpt lat="45.6291632" lon="8.6569629"><ele>167.0</ele><time>2026-04-12T15:29:41.918Z</time></trkpt><trkpt lat="45.629263" lon="8.6570025"><ele>166.8</ele><time>2026-04-12T15:29:42.923Z</time></trkpt><trkpt lat="45.6293633" lon="8.6570445"><ele>166.6</ele><time>2026-04-12T15:29:43.929Z</time></trkpt><trkpt lat="45.6294652" lon="8.6570855"><ele>166.4</ele><time>2026-04-12T15:29:44.935Z</time></trkpt><trkpt lat="45.6295659" lon="8.6571261"><ele>166.20000000000002</ele><time>2026-04-12T15:29:45.932Z</time></trkpt><trkpt lat="45.629667" lon="8.6571638"><ele>166.0</ele><time>2026-04-12T15:29:46.927Z</time></trkpt><trkpt lat="45.6297643" lon="8.6571953"><ele>166.33333333333334</ele><time>2026-04-12T15:29:47.952Z</time></trkpt><trkpt lat="45.6298562" lon="8.6572269"><ele>166.66666666666669</ele><time>2026-04-12T15:29:48.934Z</time></trkpt><trkpt lat="45.6299417" lon="8.6572596"><ele>167.0</ele><time>2026-04-12T15:29:49.928Z</time></trkpt><trkpt lat="45.6300233" lon="8.6573007"><ele>167.33333333333334</ele><time>2026-04-12T15:29:50.931Z</time></trkpt><trkpt lat="45.630097" lon="8.657349"><ele>167.66666666666666</ele><time>2026-04-12T15:29:51.941Z</time></trkpt><trkpt lat="45.6301638" lon="8.6574172"><ele>168.0</ele><time>2026-04-12T15:29:52.949Z</time></trkpt><trkpt lat="45.6302165" lon="8.6575114"><ele>168.0</ele><time>2026-04-12T15:29:53.923Z</time></trkpt><trkpt lat="45.6302515" lon="8.6576256"><ele>168.0</ele><time>2026-04-12T15:29:54.922Z</time></trkpt><trkpt lat="45.6302905" lon="8.6577375"><ele>168.0</ele><time>2026-04-12T15:29:55.931Z</time></trkpt><trkpt lat="45.6303312" lon="8.6578397"><ele>168.0</ele><time>2026-04-12T15:29:56.923Z</time></trkpt><trkpt lat="45.630382" lon="8.6579198"><ele>168.0</ele><time>2026-04-12T15:29:57.94Z</time></trkpt><trkpt lat="45.6304341" lon="8.6579979"><ele>168.0</ele><time>2026-04-12T15:29:58.926Z</time></trkpt><trkpt lat="45.6305175" lon="8.6580262"><ele>167.60000000000002</ele><time>2026-04-12T15:29:59.927Z</time></trkpt><trkpt lat="45.6306072" lon="8.6580455"><ele>167.20000000000002</ele><time>2026-04-12T15:30:00.933Z</time></trkpt><trkpt lat="45.630702" lon="8.6580843"><ele>166.8</ele><time>2026-04-12T15:30:01.918Z</time></trkpt><trkpt lat="45.6307936" lon="8.6581642"><ele>166.4</ele><time>2026-04-12T15:30:02.927Z</time></trkpt><trkpt lat="45.6308672" lon="8.65829"><ele>166.0</ele><time>2026-04-12T15:30:03.945Z</time></trkpt><trkpt lat="45.6309191" lon="8.6584432"><ele>166.0</ele><time>2026-04-12T15:30:04.921Z</time></trkpt><trkpt lat="45.6309674" lon="8.6586036"><ele>166.0</ele><time>2026-04-12T15:30:05.933Z</time></trkpt><trkpt lat="45.6310169" lon="8.6587638"><ele>166.0</ele><time>2026-04-12T15:30:06.93Z</time></trkpt><trkpt lat="45.6310634" lon="8.6589202"><ele>166.0</ele><time>2026-04-12T15:30:07.938Z</time></trkpt><trkpt lat="45.6311091" lon="8.6590773"><ele>165.75</ele><time>2026-04-12T15:30:08.918Z</time></trkpt><trkpt lat="45.6311534" lon="8.6592337"><ele>165.5</ele><time>2026-04-12T15:30:09.933Z</time></trkpt><trkpt lat="45.6311986" lon="8.6593863"><ele>165.25</ele><time>2026-04-12T15:30:10.944Z</time></trkpt><trkpt lat="45.6312438" lon="8.6595362"><ele>165.0</ele><time>2026-04-12T15:30:11.933Z</time></trkpt><trkpt lat="45.6312875" lon="8.6596772"><ele>165.33333333333334</ele><time>2026-04-12T15:30:12.933Z</time></trkpt><trkpt lat="45.6313259" lon="8.6598112"><ele>165.66666666666666</ele><time>2026-04-12T15:30:13.931Z</time></trkpt><trkpt lat="45.631359" lon="8.659937"><ele>166.0</ele><time>2026-04-12T15:30:14.932Z</time></trkpt><trkpt lat="45.6313926" lon="8.6600537"><ele>166.33333333333331</ele><time>2026-04-12T15:30:15.953Z</time></trkpt><trkpt lat="45.6314297" lon="8.6601593"><ele>166.66666666666666</ele><time>2026-04-12T15:30:16.938Z</time></trkpt><trkpt lat="45.6314783" lon="8.6602514"><ele>167.0</ele><time>2026-04-12T15:30:17.918Z</time></trkpt><trkpt lat="45.6315412" lon="8.660327"><ele>167.0</ele><time>2026-04-12T15:30:18.939Z</time></trkpt><trkpt lat="45.6316138" lon="8.660384"><ele>167.0</ele><time>2026-04-12T15:30:19.918Z</time></trkpt><trkpt lat="45.6316919" lon="8.6604292"><ele>167.0</ele><time>2026-04-12T15:30:20.921Z</time></trkpt><trkpt lat="45.6317684" lon="8.6604719"><ele>167.0</ele><time>2026-04-12T15:30:21.931Z</time></trkpt><trkpt lat="45.6318445" lon="8.6605069"><ele>167.0</ele><time>2026-04-12T15:30:22.922Z</time></trkpt><trkpt lat="45.6319224" lon="8.6605438"><ele>167.0</ele><time>2026-04-12T15:30:23.932Z</time></trkpt><trkpt lat="45.6319923" lon="8.660575"><ele>167.0</ele><time>2026-04-12T15:30:24.927Z</time></trkpt><trkpt lat="45.6320504" lon="8.6606112"><ele>167.0</ele><time>2026-04-12T15:30:25.935Z</time></trkpt><trkpt lat="45.6321212" lon="8.6607358"><ele>167.0</ele><time>2026-04-12T15:30:27.93Z</time></trkpt><trkpt lat="45.632208" lon="8.6608092"><ele>167.0</ele><time>2026-04-12T15:30:29.933Z</time></trkpt><trkpt lat="45.6323109" lon="8.6607504"><ele>167.0</ele><time>2026-04-12T15:30:31.928Z</time></trkpt><trkpt lat="45.6323661" lon="8.6607019"><ele>167.0</ele><time>2026-04-12T15:30:32.924Z</time></trkpt><trkpt lat="45.632485" lon="8.6606018"><ele>167.0</ele><time>2026-04-12T15:30:34.926Z</time></trkpt><trkpt lat="45.632561" lon="8.6605409"><ele>167.0</ele><time>2026-04-12T15:30:35.928Z</time></trkpt><trkpt lat="45.6326431" lon="8.6604722"><ele>167.0</ele><time>2026-04-12T15:30:36.926Z</time></trkpt><trkpt lat="45.6327302" lon="8.6604077"><ele>167.0</ele><time>2026-04-12T15:30:37.932Z</time></trkpt><trkpt lat="45.6328185" lon="8.6603407"><ele>167.6</ele><time>2026-04-12T15:30:38.931Z</time></trkpt><trkpt lat="45.6329042" lon="8.6602728"><ele>168.2</ele><time>2026-04-12T15:30:39.938Z</time></trkpt><trkpt lat="45.6329866" lon="8.6602063"><ele>168.8</ele><time>2026-04-12T15:30:40.925Z</time></trkpt><trkpt lat="45.633068" lon="8.6601411"><ele>169.4</ele><time>2026-04-12T15:30:41.937Z</time></trkpt><trkpt lat="45.6331495" lon="8.6600842"><ele>170.0</ele><time>2026-04-12T15:30:42.926Z</time></trkpt><trkpt lat="45.6332322" lon="8.6600232"><ele>170.0</ele><time>2026-04-12T15:30:43.938Z</time></trkpt><trkpt lat="45.6333098" lon="8.6599628"><ele>170.0</ele><time>2026-04-12T15:30:44.928Z</time></trkpt><trkpt lat="45.6333869" lon="8.659904"><ele>170.0</ele><time>2026-04-12T15:30:45.944Z</time></trkpt><trkpt lat="45.6334541" lon="8.6598414"><ele>170.0</ele><time>2026-04-12T15:30:46.925Z</time></trkpt><trkpt lat="45.6335113" lon="8.6597697"><ele>170.0</ele><time>2026-04-12T15:30:47.927Z</time></trkpt><trkpt lat="45.6335572" lon="8.6596935"><ele>170.0</ele><time>2026-04-12T15:30:48.935Z</time></trkpt><trkpt lat="45.6336273" lon="8.6595801"><ele>170.5</ele><time>2026-04-12T15:30:50.931Z</time></trkpt><trkpt lat="45.6336939" lon="8.6595293"><ele>171.0</ele><time>2026-04-12T15:30:52.919Z</time></trkpt><trkpt lat="45.6337578" lon="8.6594097"><ele>171.5</ele><time>2026-04-12T15:30:54.934Z</time></trkpt><trkpt lat="45.6337997" lon="8.6593282"><ele>172.0</ele><time>2026-04-12T15:30:55.934Z</time></trkpt><trkpt lat="45.6338526" lon="8.6592456"><ele>172.5</ele><time>2026-04-12T15:30:56.927Z</time></trkpt><trkpt lat="45.6339412" lon="8.6591458"><ele>173.0</ele><time>2026-04-12T15:30:58.92Z</time></trkpt><trkpt lat="45.6340549" lon="8.6590783"><ele>173.0</ele><time>2026-04-12T15:31:00.933Z</time></trkpt><trkpt lat="45.6341223" lon="8.6590464"><ele>173.0</ele><time>2026-04-12T15:31:01.932Z</time></trkpt><trkpt lat="45.6341856" lon="8.6590138"><ele>173.0</ele><time>2026-04-12T15:31:02.925Z</time></trkpt><trkpt lat="45.6342543" lon="8.6589832"><ele>173.0</ele><time>2026-04-12T15:31:03.921Z</time></trkpt><trkpt lat="45.6343371" lon="8.6589596"><ele>173.0</ele><time>2026-04-12T15:31:04.931Z</time></trkpt><trkpt lat="45.6344455" lon="8.658901"><ele>173.0</ele><time>2026-04-12T15:31:06.935Z</time></trkpt><trkpt lat="45.6345002" lon="8.6587942"><ele>173.2</ele><time>2026-04-12T15:31:08.932Z</time></trkpt><trkpt lat="45.6345417" lon="8.6586631"><ele>173.4</ele><time>2026-04-12T15:31:10.927Z</time></trkpt><trkpt lat="45.6345634" lon="8.6585743"><ele>173.6</ele><time>2026-04-12T15:31:11.933Z</time></trkpt><trkpt lat="45.634627" lon="8.6584015"><ele>173.79999999999998</ele><time>2026-04-12T15:31:13.927Z</time></trkpt><trkpt lat="45.6346799" lon="8.6583018"><ele>174.0</ele><time>2026-04-12T15:31:14.933Z</time></trkpt><trkpt lat="45.6347536" lon="8.6581887"><ele>174.6</ele><time>2026-04-12T15:31:16.926Z</time></trkpt><trkpt lat="45.6348554" lon="8.6581199"><ele>175.2</ele><time>2026-04-12T15:31:18.928Z</time></trkpt><trkpt lat="45.6349846" lon="8.6581563"><ele>175.79999999999998</ele><time>2026-04-12T15:31:20.929Z</time></trkpt><trkpt lat="45.6350482" lon="8.658174"><ele>176.39999999999998</ele><time>2026-04-12T15:31:21.925Z</time></trkpt><trkpt lat="45.6351556" lon="8.658163"><ele>177.0</ele><time>2026-04-12T15:31:23.923Z</time></trkpt><trkpt lat="45.6352575" lon="8.658188"><ele>176.2</ele><time>2026-04-12T15:31:25.928Z</time></trkpt><trkpt lat="45.6353821" lon="8.658173"><ele>175.39999999999998</ele><time>2026-04-12T15:31:27.933Z</time></trkpt><trkpt lat="45.6354956" lon="8.6581488"><ele>174.60000000000002</ele><time>2026-04-12T15:31:29.925Z</time></trkpt><trkpt lat="45.6355577" lon="8.6580977"><ele>173.8</ele><time>2026-04-12T15:31:30.924Z</time></trkpt><trkpt lat="45.6356211" lon="8.6580431"><ele>173.0</ele><time>2026-04-12T15:31:31.92Z</time></trkpt><trkpt lat="45.6356809" lon="8.6579891"><ele>173.0</ele><time>2026-04-12T15:31:32.921Z</time></trkpt><trkpt lat="45.6357389" lon="8.6579405"><ele>173.0</ele><time>2026-04-12T15:31:33.921Z</time></trkpt><trkpt lat="45.6358" lon="8.6578916"><ele>173.0</ele><time>2026-04-12T15:31:34.92Z</time></trkpt><trkpt lat="45.6358586" lon="8.6578469"><ele>173.0</ele><time>2026-04-12T15:31:35.927Z</time></trkpt><trkpt lat="45.6359191" lon="8.6578076"><ele>173.0</ele><time>2026-04-12T15:31:36.935Z</time></trkpt><trkpt lat="45.6359945" lon="8.6577666"><ele>173.0</ele><time>2026-04-12T15:31:37.932Z</time></trkpt><trkpt lat="45.6360652" lon="8.6577188"><ele>173.0</ele><time>2026-04-12T15:31:38.934Z</time></trkpt><trkpt lat="45.6361287" lon="8.6576642"><ele>173.16666666666666</ele><time>2026-04-12T15:31:39.93Z</time></trkpt><trkpt lat="45.6361893" lon="8.6576068"><ele>173.33333333333331</ele><time>2026-04-12T15:31:40.937Z</time></trkpt><trkpt lat="45.6362523" lon="8.6575469"><ele>173.5</ele><time>2026-04-12T15:31:41.925Z</time></trkpt><trkpt lat="45.6363288" lon="8.6574855"><ele>173.66666666666666</ele><time>2026-04-12T15:31:42.923Z</time></trkpt><trkpt lat="45.6364038" lon="8.6574176"><ele>173.83333333333334</ele><time>2026-04-12T15:31:43.924Z</time></trkpt><trkpt lat="45.6364809" lon="8.6573432"><ele>174.0</ele><time>2026-04-12T15:31:44.934Z</time></trkpt><trkpt lat="45.6365481" lon="8.657287"><ele>174.0</ele><time>2026-04-12T15:31:45.931Z</time></trkpt><trkpt lat="45.6366242" lon="8.6572352"><ele>174.0</ele><time>2026-04-12T15:31:46.924Z</time></trkpt><trkpt lat="45.636694" lon="8.6571903"><ele>174.0</ele><time>2026-04-12T15:31:47.923Z</time></trkpt><trkpt lat="45.6367754" lon="8.6571528"><ele>174.0</ele><time>2026-04-12T15:31:48.918Z</time></trkpt><trkpt lat="45.6368538" lon="8.6571259"><ele>174.0</ele><time>2026-04-12T15:31:49.92Z</time></trkpt><trkpt lat="45.6369314" lon="8.6571089"><ele>174.0</ele><time>2026-04-12T15:31:50.917Z</time></trkpt><trkpt lat="45.6370121" lon="8.657103"><ele>174.5</ele><time>2026-04-12T15:31:51.932Z</time></trkpt><trkpt lat="45.6370887" lon="8.6571198"><ele>175.0</ele><time>2026-04-12T15:31:52.933Z</time></trkpt><trkpt lat="45.637167" lon="8.6571355"><ele>175.5</ele><time>2026-04-12T15:31:53.923Z</time></trkpt><trkpt lat="45.6372376" lon="8.6571392"><ele>176.0</ele><time>2026-04-12T15:31:54.929Z</time></trkpt><trkpt lat="45.6373071" lon="8.6571412"><ele>176.5</ele><time>2026-04-12T15:31:55.924Z</time></trkpt><trkpt lat="45.6374033" lon="8.6570702"><ele>177.0</ele><time>2026-04-12T15:31:57.928Z</time></trkpt><trkpt lat="45.6375069" lon="8.6569162"><ele>177.0</ele><time>2026-04-12T15:31:59.925Z</time></trkpt><trkpt lat="45.6375921" lon="8.656856"><ele>177.0</ele><time>2026-04-12T15:32:00.926Z</time></trkpt><trkpt lat="45.6376714" lon="8.6567696"><ele>177.0</ele><time>2026-04-12T15:32:01.935Z</time></trkpt><trkpt lat="45.6377632" lon="8.6566911"><ele>177.0</ele><time>2026-04-12T15:32:02.929Z</time></trkpt><trkpt lat="45.6378387" lon="8.6566398"><ele>177.0</ele><time>2026-04-12T15:32:03.931Z</time></trkpt><trkpt lat="45.6379099" lon="8.6566002"><ele>175.83333333333334</ele><time>2026-04-12T15:32:04.924Z</time></trkpt><trkpt lat="45.6379899" lon="8.6565721"><ele>174.66666666666666</ele><time>2026-04-12T15:32:05.929Z</time></trkpt><trkpt lat="45.6380693" lon="8.656545"><ele>173.5</ele><time>2026-04-12T15:32:06.924Z</time></trkpt><trkpt lat="45.6381475" lon="8.6565029"><ele>172.33333333333331</ele><time>2026-04-12T15:32:08.921Z</time></trkpt><trkpt lat="45.63821" lon="8.6564586"><ele>171.16666666666666</ele><time>2026-04-12T15:32:10.932Z</time></trkpt><trkpt lat="45.6382671" lon="8.6563799"><ele>170.0</ele><time>2026-04-12T15:32:14.924Z</time></trkpt><trkpt lat="45.6383353" lon="8.6563561"><ele>170.0</ele><time>2026-04-12T15:32:31.933Z</time></trkpt><trkpt lat="45.6383888" lon="8.6562998"><ele>170.0</ele><time>2026-04-12T15:32:34.928Z</time></trkpt><trkpt lat="45.6384741" lon="8.6562305"><ele>170.0</ele><time>2026-04-12T15:34:07.932Z</time></trkpt><trkpt lat="45.6385435" lon="8.6562062"><ele>170.0</ele><time>2026-04-12T15:34:10.941Z</time></trkpt><trkpt lat="45.6386181" lon="8.6561925"><ele>170.0</ele><time>2026-04-12T15:34:14.932Z</time></trkpt><trkpt lat="45.638716" lon="8.6561488"><ele>170.0</ele><time>2026-04-12T15:39:07.916Z</time></trkpt><trkpt lat="45.6386877" lon="8.6556449"><ele>169.0</ele><time>2026-04-12T15:46:04.791Z</time></trkpt><trkpt lat="45.6386592" lon="8.6561616"><ele>168.0</ele><time>2026-04-12T15:46:07.788Z</time></trkpt><trkpt lat="45.6387268" lon="8.6560761"><ele>169.66666666666666</ele><time>2026-04-12T15:47:50.419Z</time></trkpt><trkpt lat="45.6387819" lon="8.6559976"><ele>171.33333333333334</ele><time>2026-04-12T15:47:53.408Z</time></trkpt><trkpt lat="45.6388224" lon="8.6559285"><ele>173.0</ele><time>2026-04-12T15:47:54.413Z</time></trkpt><trkpt lat="45.638888" lon="8.6558188"><ele>174.66666666666669</ele><time>2026-04-12T15:47:55.418Z</time></trkpt><trkpt lat="45.6389563" lon="8.6557086"><ele>176.33333333333334</ele><time>2026-04-12T15:47:56.422Z</time></trkpt><trkpt lat="45.6390045" lon="8.6556319"><ele>178.0</ele><time>2026-04-12T15:47:57.415Z</time></trkpt><trkpt lat="45.6390544" lon="8.6555634"><ele>178.0</ele><time>2026-04-12T15:47:58.419Z</time></trkpt><trkpt lat="45.6391795" lon="8.6554061"><ele>178.0</ele><time>2026-04-12T15:48:00.407Z</time></trkpt><trkpt lat="45.6392396" lon="8.6553291"><ele>178.0</ele><time>2026-04-12T15:48:01.42Z</time></trkpt><trkpt lat="45.6392938" lon="8.6552435"><ele>178.0</ele><time>2026-04-12T15:48:02.415Z</time></trkpt><trkpt lat="45.6393248" lon="8.655165"><ele>178.0</ele><time>2026-04-12T15:48:03.413Z</time></trkpt><trkpt lat="45.6393595" lon="8.655078"><ele>178.2</ele><time>2026-04-12T15:48:05.415Z</time></trkpt><trkpt lat="45.6393944" lon="8.654964"><ele>178.4</ele><time>2026-04-12T15:48:14.406Z</time></trkpt><trkpt lat="45.6394855" lon="8.6548447"><ele>178.6</ele><time>2026-04-12T15:48:17.407Z</time></trkpt><trkpt lat="45.6395519" lon="8.6547926"><ele>178.79999999999998</ele><time>2026-04-12T15:48:18.41Z</time></trkpt><trkpt lat="45.6396688" lon="8.6547788"><ele>179.0</ele><time>2026-04-12T15:48:20.415Z</time></trkpt><trkpt lat="45.6397766" lon="8.6547746"><ele>179.0</ele><time>2026-04-12T15:48:28.421Z</time></trkpt><trkpt lat="45.6398517" lon="8.6547646"><ele>179.0</ele><time>2026-04-12T15:48:30.409Z</time></trkpt><trkpt lat="45.6399549" lon="8.6547842"><ele>179.0</ele><time>2026-04-12T15:48:32.42Z</time></trkpt><trkpt lat="45.6400342" lon="8.6547728"><ele>179.0</ele><time>2026-04-12T15:48:34.429Z</time></trkpt><trkpt lat="45.6401158" lon="8.6547379"><ele>179.0</ele><time>2026-04-12T15:48:36.412Z</time></trkpt><trkpt lat="45.6401859" lon="8.6547054"><ele>179.0</ele><time>2026-04-12T15:48:49.425Z</time></trkpt><trkpt lat="45.640283" lon="8.6547111"><ele>179.0</ele><time>2026-04-12T15:48:56.419Z</time></trkpt><trkpt lat="45.6403482" lon="8.6546975"><ele>179.0</ele><time>2026-04-12T15:48:57.409Z</time></trkpt><trkpt lat="45.6404823" lon="8.654644"><ele>179.0</ele><time>2026-04-12T15:48:59.422Z</time></trkpt><trkpt lat="45.6405591" lon="8.6546143"><ele>179.0</ele><time>2026-04-12T15:49:00.42Z</time></trkpt><trkpt lat="45.6406351" lon="8.6545869"><ele>179.0</ele><time>2026-04-12T15:49:01.409Z</time></trkpt><trkpt lat="45.6407107" lon="8.6545594"><ele>179.0</ele><time>2026-04-12T15:49:02.404Z</time></trkpt><trkpt lat="45.6408081" lon="8.6545333"><ele>179.0</ele><time>2026-04-12T15:49:03.404Z</time></trkpt><trkpt lat="45.6408996" lon="8.6545281"><ele>179.0</ele><time>2026-04-12T15:49:04.423Z</time></trkpt><trkpt lat="45.6409832" lon="8.6545365"><ele>179.0</ele><time>2026-04-12T15:49:05.418Z</time></trkpt><trkpt lat="45.6410776" lon="8.6545495"><ele>179.0</ele><time>2026-04-12T15:49:06.409Z</time></trkpt><trkpt lat="45.6411835" lon="8.6545647"><ele>179.0</ele><time>2026-04-12T15:49:07.423Z</time></trkpt><trkpt lat="45.6413052" lon="8.654584"><ele>179.0</ele><time>2026-04-12T15:49:08.418Z</time></trkpt><trkpt lat="45.6414294" lon="8.6546042"><ele>179.0</ele><time>2026-04-12T15:49:09.401Z</time></trkpt><trkpt lat="45.6415473" lon="8.6546262"><ele>179.0</ele><time>2026-04-12T15:49:10.404Z</time></trkpt><trkpt lat="45.64168" lon="8.6546611"><ele>179.0</ele><time>2026-04-12T15:49:11.416Z</time></trkpt><trkpt lat="45.6418245" lon="8.6546901"><ele>179.0</ele><time>2026-04-12T15:49:12.423Z</time></trkpt><trkpt lat="45.6419556" lon="8.6547054"><ele>179.0</ele><time>2026-04-12T15:49:13.415Z</time></trkpt><trkpt lat="45.6420798" lon="8.6547194"><ele>179.0</ele><time>2026-04-12T15:49:14.409Z</time></trkpt><trkpt lat="45.6421972" lon="8.6547299"><ele>179.0</ele><time>2026-04-12T15:49:15.426Z</time></trkpt><trkpt lat="45.642326" lon="8.6547467"><ele>179.0</ele><time>2026-04-12T15:49:16.415Z</time></trkpt><trkpt lat="45.6424483" lon="8.6547683"><ele>179.0</ele><time>2026-04-12T15:49:17.415Z</time></trkpt><trkpt lat="45.6425646" lon="8.6547888"><ele>179.0</ele><time>2026-04-12T15:49:18.41Z</time></trkpt><trkpt lat="45.6426747" lon="8.6548166"><ele>179.0</ele><time>2026-04-12T15:49:19.42Z</time></trkpt><trkpt lat="45.6427823" lon="8.6548435"><ele>179.5</ele><time>2026-04-12T15:49:20.412Z</time></trkpt><trkpt lat="45.6428825" lon="8.6548788"><ele>180.0</ele><time>2026-04-12T15:49:21.414Z</time></trkpt><trkpt lat="45.6429747" lon="8.6549047"><ele>180.5</ele><time>2026-04-12T15:49:22.41Z</time></trkpt><trkpt lat="45.6430559" lon="8.6549214"><ele>181.0</ele><time>2026-04-12T15:49:23.411Z</time></trkpt><trkpt lat="45.6431303" lon="8.6549413"><ele>181.5</ele><time>2026-04-12T15:49:24.413Z</time></trkpt><trkpt lat="45.6431937" lon="8.6549611"><ele>182.0</ele><time>2026-04-12T15:49:25.409Z</time></trkpt><trkpt lat="45.6432757" lon="8.6549738"><ele>182.0</ele><time>2026-04-12T15:49:27.421Z</time></trkpt><trkpt lat="45.6433429" lon="8.6549719"><ele>182.0</ele><time>2026-04-12T15:49:33.422Z</time></trkpt><trkpt lat="45.6434713" lon="8.6550116"><ele>182.0</ele><time>2026-04-12T15:49:35.412Z</time></trkpt><trkpt lat="45.6435507" lon="8.6550461"><ele>182.0</ele><time>2026-04-12T15:49:36.42Z</time></trkpt><trkpt lat="45.6436813" lon="8.6550944"><ele>182.0</ele><time>2026-04-12T15:49:37.412Z</time></trkpt><trkpt lat="45.6438211" lon="8.6551238"><ele>181.66666666666666</ele><time>2026-04-12T15:49:38.416Z</time></trkpt><trkpt lat="45.6439951" lon="8.655174"><ele>181.33333333333334</ele><time>2026-04-12T15:49:39.41Z</time></trkpt><trkpt lat="45.6441516" lon="8.6552048"><ele>181.0</ele><time>2026-04-12T15:49:40.409Z</time></trkpt><trkpt lat="45.644297" lon="8.6552271"><ele>181.0</ele><time>2026-04-12T15:49:41.418Z</time></trkpt><trkpt lat="45.6444299" lon="8.6552525"><ele>181.0</ele><time>2026-04-12T15:49:42.415Z</time></trkpt><trkpt lat="45.644555" lon="8.6552774"><ele>181.0</ele><time>2026-04-12T15:49:43.409Z</time></trkpt><trkpt lat="45.6446762" lon="8.6552966"><ele>181.0</ele><time>2026-04-12T15:49:44.414Z</time></trkpt><trkpt lat="45.6447932" lon="8.6553096"><ele>181.25</ele><time>2026-04-12T15:49:45.409Z</time></trkpt><trkpt lat="45.644892" lon="8.655328"><ele>181.5</ele><time>2026-04-12T15:49:46.406Z</time></trkpt><trkpt lat="45.6450057" lon="8.6553439"><ele>181.75</ele><time>2026-04-12T15:49:47.416Z</time></trkpt><trkpt lat="45.6451251" lon="8.6553607"><ele>182.0</ele><time>2026-04-12T15:49:48.424Z</time></trkpt><trkpt lat="45.6452482" lon="8.6553709"><ele>181.75</ele><time>2026-04-12T15:49:49.411Z</time></trkpt><trkpt lat="45.6453787" lon="8.6553823"><ele>181.5</ele><time>2026-04-12T15:49:50.416Z</time></trkpt><trkpt lat="45.6455015" lon="8.6553989"><ele>181.25</ele><time>2026-04-12T15:49:51.406Z</time></trkpt><trkpt lat="45.6456251" lon="8.655412"><ele>181.0</ele><time>2026-04-12T15:49:52.415Z</time></trkpt><trkpt lat="45.6457454" lon="8.6554282"><ele>181.0</ele><time>2026-04-12T15:49:53.411Z</time></trkpt><trkpt lat="45.6458721" lon="8.6554461"><ele>181.0</ele><time>2026-04-12T15:49:54.408Z</time></trkpt><trkpt lat="45.6459971" lon="8.655469"><ele>181.0</ele><time>2026-04-12T15:49:55.42Z</time></trkpt><trkpt lat="45.6461245" lon="8.6554823"><ele>181.0</ele><time>2026-04-12T15:49:56.414Z</time></trkpt><trkpt lat="45.6462513" lon="8.6554994"><ele>182.0</ele><time>2026-04-12T15:49:57.419Z</time></trkpt><trkpt lat="45.6463687" lon="8.6555107"><ele>183.0</ele><time>2026-04-12T15:49:58.423Z</time></trkpt><trkpt lat="45.6464771" lon="8.6555244"><ele>184.0</ele><time>2026-04-12T15:49:59.409Z</time></trkpt><trkpt lat="45.6466001" lon="8.6555532"><ele>185.0</ele><time>2026-04-12T15:50:00.414Z</time></trkpt><trkpt lat="45.6467245" lon="8.6555821"><ele>185.0</ele><time>2026-04-12T15:50:01.414Z</time></trkpt><trkpt lat="45.6468473" lon="8.6556059"><ele>185.0</ele><time>2026-04-12T15:50:02.414Z</time></trkpt><trkpt lat="45.6469724" lon="8.6556297"><ele>185.0</ele><time>2026-04-12T15:50:03.411Z</time></trkpt><trkpt lat="45.6470828" lon="8.6556497"><ele>185.0</ele><time>2026-04-12T15:50:04.426Z</time></trkpt><trkpt lat="45.6472011" lon="8.6556837"><ele>185.0</ele><time>2026-04-12T15:50:05.414Z</time></trkpt><trkpt lat="45.6473146" lon="8.6557124"><ele>185.0</ele><time>2026-04-12T15:50:06.404Z</time></trkpt><trkpt lat="45.6474207" lon="8.6557411"><ele>185.0</ele><time>2026-04-12T15:50:07.417Z</time></trkpt><trkpt lat="45.6475254" lon="8.6557606"><ele>185.0</ele><time>2026-04-12T15:50:08.422Z</time></trkpt><trkpt lat="45.6476262" lon="8.6557796"><ele>185.0</ele><time>2026-04-12T15:50:09.421Z</time></trkpt><trkpt lat="45.6477199" lon="8.6558029"><ele>185.0</ele><time>2026-04-12T15:50:10.413Z</time></trkpt><trkpt lat="45.6478171" lon="8.6558316"><ele>185.0</ele><time>2026-04-12T15:50:11.415Z</time></trkpt><trkpt lat="45.6479107" lon="8.6558589"><ele>185.0</ele><time>2026-04-12T15:50:12.415Z</time></trkpt><trkpt lat="45.6480087" lon="8.6558842"><ele>185.0</ele><time>2026-04-12T15:50:13.423Z</time></trkpt><trkpt lat="45.6481164" lon="8.655892"><ele>185.0</ele><time>2026-04-12T15:50:14.414Z</time></trkpt><trkpt lat="45.6482306" lon="8.6558949"><ele>185.0</ele><time>2026-04-12T15:50:15.407Z</time></trkpt><trkpt lat="45.6483383" lon="8.6559024"><ele>185.0</ele><time>2026-04-12T15:50:16.416Z</time></trkpt><trkpt lat="45.64844" lon="8.6559184"><ele>185.0</ele><time>2026-04-12T15:50:17.412Z</time></trkpt><trkpt lat="45.6485364" lon="8.6559341"><ele>185.0</ele><time>2026-04-12T15:50:18.418Z</time></trkpt><trkpt lat="45.6486271" lon="8.6559492"><ele>185.0</ele><time>2026-04-12T15:50:19.407Z</time></trkpt><trkpt lat="45.6487302" lon="8.6559617"><ele>185.2</ele><time>2026-04-12T15:50:20.414Z</time></trkpt><trkpt lat="45.6488395" lon="8.6559777"><ele>185.4</ele><time>2026-04-12T15:50:21.411Z</time></trkpt><trkpt lat="45.6489523" lon="8.6560072"><ele>185.60000000000002</ele><time>2026-04-12T15:50:22.412Z</time></trkpt><trkpt lat="45.649059" lon="8.6560336"><ele>185.8</ele><time>2026-04-12T15:50:23.421Z</time></trkpt><trkpt lat="45.6491626" lon="8.6560469"><ele>186.0</ele><time>2026-04-12T15:50:24.414Z</time></trkpt><trkpt lat="45.6492736" lon="8.6560607"><ele>186.0</ele><time>2026-04-12T15:50:25.418Z</time></trkpt><trkpt lat="45.6493861" lon="8.6560786"><ele>186.0</ele><time>2026-04-12T15:50:26.403Z</time></trkpt><trkpt lat="45.6495092" lon="8.6561047"><ele>186.0</ele><time>2026-04-12T15:50:27.417Z</time></trkpt><trkpt lat="45.6496603" lon="8.656123"><ele>186.0</ele><time>2026-04-12T15:50:28.428Z</time></trkpt><trkpt lat="45.649819" lon="8.6561598"><ele>186.25</ele><time>2026-04-12T15:50:29.416Z</time></trkpt><trkpt lat="45.6499696" lon="8.6561916"><ele>186.5</ele><time>2026-04-12T15:50:30.42Z</time></trkpt><trkpt lat="45.6501101" lon="8.656216"><ele>186.75</ele><time>2026-04-12T15:50:31.409Z</time></trkpt><trkpt lat="45.6502396" lon="8.6562427"><ele>187.0</ele><time>2026-04-12T15:50:32.414Z</time></trkpt><trkpt lat="45.6503665" lon="8.6562756"><ele>187.25</ele><time>2026-04-12T15:50:33.402Z</time></trkpt><trkpt lat="45.6504903" lon="8.6563141"><ele>187.5</ele><time>2026-04-12T15:50:34.411Z</time></trkpt><trkpt lat="45.6506071" lon="8.6563468"><ele>187.75</ele><time>2026-04-12T15:50:35.426Z</time></trkpt><trkpt lat="45.650721" lon="8.6563703"><ele>188.0</ele><time>2026-04-12T15:50:36.419Z</time></trkpt><trkpt lat="45.6508315" lon="8.6563826"><ele>188.0</ele><time>2026-04-12T15:50:37.419Z</time></trkpt><trkpt lat="45.6509335" lon="8.6563968"><ele>188.0</ele><time>2026-04-12T15:50:38.427Z</time></trkpt><trkpt lat="45.6510195" lon="8.6564202"><ele>188.0</ele><time>2026-04-12T15:50:39.403Z</time></trkpt><trkpt lat="45.6510793" lon="8.6564557"><ele>188.0</ele><time>2026-04-12T15:50:40.41Z</time></trkpt><trkpt lat="45.6511833" lon="8.6564536"><ele>188.0</ele><time>2026-04-12T15:51:08.412Z</time></trkpt><trkpt lat="45.6512169" lon="8.6563185"><ele>187.4</ele><time>2026-04-12T15:51:10.42Z</time></trkpt><trkpt lat="45.6512421" lon="8.656125"><ele>186.8</ele><time>2026-04-12T15:51:12.42Z</time></trkpt><trkpt lat="45.6512494" lon="8.6560271"><ele>186.2</ele><time>2026-04-12T15:51:13.407Z</time></trkpt><trkpt lat="45.6512626" lon="8.6558681"><ele>185.6</ele><time>2026-04-12T15:51:15.413Z</time></trkpt><trkpt lat="45.6512795" lon="8.6557394"><ele>185.0</ele><time>2026-04-12T15:51:17.42Z</time></trkpt><trkpt lat="45.6513245" lon="8.655654"><ele>184.4</ele><time>2026-04-12T15:51:19.412Z</time></trkpt><trkpt lat="45.651462" lon="8.6556849"><ele>183.8</ele><time>2026-04-12T15:51:21.412Z</time></trkpt><trkpt lat="45.6515439" lon="8.6557192"><ele>183.2</ele><time>2026-04-12T15:51:22.412Z</time></trkpt><trkpt lat="45.6516388" lon="8.6557599"><ele>182.6</ele><time>2026-04-12T15:51:23.43Z</time></trkpt><trkpt lat="45.6517354" lon="8.6557907"><ele>182.0</ele><time>2026-04-12T15:51:24.417Z</time></trkpt><trkpt lat="45.65183" lon="8.6558254"><ele>182.0</ele><time>2026-04-12T15:51:25.411Z</time></trkpt><trkpt lat="45.6519269" lon="8.655861"><ele>182.0</ele><time>2026-04-12T15:51:26.417Z</time></trkpt><trkpt lat="45.6520237" lon="8.6558966"><ele>182.0</ele><time>2026-04-12T15:51:27.407Z</time></trkpt><trkpt lat="45.6521229" lon="8.6559341"><ele>182.0</ele><time>2026-04-12T15:51:28.405Z</time></trkpt><trkpt lat="45.6522215" lon="8.6559702"><ele>182.0</ele><time>2026-04-12T15:51:29.417Z</time></trkpt><trkpt lat="45.6523202" lon="8.6560086"><ele>182.6</ele><time>2026-04-12T15:51:30.421Z</time></trkpt><trkpt lat="45.6524206" lon="8.6560482"><ele>183.2</ele><time>2026-04-12T15:51:31.41Z</time></trkpt><trkpt lat="45.6525187" lon="8.6560859"><ele>183.8</ele><time>2026-04-12T15:51:32.418Z</time></trkpt><trkpt lat="45.6526177" lon="8.6561249"><ele>184.4</ele><time>2026-04-12T15:51:33.41Z</time></trkpt><trkpt lat="45.652715" lon="8.6561564"><ele>185.0</ele><time>2026-04-12T15:51:34.414Z</time></trkpt><trkpt lat="45.6528168" lon="8.6562008"><ele>185.0</ele><time>2026-04-12T15:51:35.407Z</time></trkpt><trkpt lat="45.6529208" lon="8.6562442"><ele>185.0</ele><time>2026-04-12T15:51:36.425Z</time></trkpt><trkpt lat="45.6530249" lon="8.6562837"><ele>185.0</ele><time>2026-04-12T15:51:37.415Z</time></trkpt><trkpt lat="45.6531265" lon="8.6563242"><ele>185.0</ele><time>2026-04-12T15:51:38.414Z</time></trkpt><trkpt lat="45.6532319" lon="8.6563658"><ele>185.0</ele><time>2026-04-12T15:51:39.418Z</time></trkpt><trkpt lat="45.6533353" lon="8.6564065"><ele>185.0</ele><time>2026-04-12T15:51:40.423Z</time></trkpt><trkpt lat="45.6534249" lon="8.6564374"><ele>185.0</ele><time>2026-04-12T15:51:41.421Z</time></trkpt><trkpt lat="45.6535161" lon="8.6564688"><ele>185.0</ele><time>2026-04-12T15:51:42.417Z</time></trkpt><trkpt lat="45.6536111" lon="8.6565198"><ele>185.0</ele><time>2026-04-12T15:51:43.415Z</time></trkpt><trkpt lat="45.6537038" lon="8.6565711"><ele>185.0</ele><time>2026-04-12T15:51:44.413Z</time></trkpt><trkpt lat="45.6537842" lon="8.6566374"><ele>185.2</ele><time>2026-04-12T15:51:45.415Z</time></trkpt><trkpt lat="45.6538685" lon="8.6566925"><ele>185.4</ele><time>2026-04-12T15:51:46.42Z</time></trkpt><trkpt lat="45.6539623" lon="8.6567138"><ele>185.60000000000002</ele><time>2026-04-12T15:51:47.419Z</time></trkpt><trkpt lat="45.6540617" lon="8.6567304"><ele>185.8</ele><time>2026-04-12T15:51:48.417Z</time></trkpt><trkpt lat="45.6541592" lon="8.6567664"><ele>186.0</ele><time>2026-04-12T15:51:49.422Z</time></trkpt><trkpt lat="45.654261" lon="8.6568126"><ele>186.0</ele><time>2026-04-12T15:51:50.407Z</time></trkpt><trkpt lat="45.6543724" lon="8.6568461"><ele>186.0</ele><time>2026-04-12T15:51:51.422Z</time></trkpt><trkpt lat="45.6544816" lon="8.6568756"><ele>186.0</ele><time>2026-04-12T15:51:52.413Z</time></trkpt><trkpt lat="45.6545912" lon="8.6569205"><ele>186.0</ele><time>2026-04-12T15:51:53.412Z</time></trkpt><trkpt lat="45.6547002" lon="8.6569652"><ele>186.0</ele><time>2026-04-12T15:51:54.416Z</time></trkpt><trkpt lat="45.6547993" lon="8.6570097"><ele>186.0</ele><time>2026-04-12T15:51:55.421Z</time></trkpt><trkpt lat="45.6548934" lon="8.6570577"><ele>186.0</ele><time>2026-04-12T15:51:56.417Z</time></trkpt><trkpt lat="45.6549814" lon="8.6570954"><ele>186.0</ele><time>2026-04-12T15:51:57.415Z</time></trkpt><trkpt lat="45.6550601" lon="8.6571226"><ele>186.0</ele><time>2026-04-12T15:51:58.411Z</time></trkpt><trkpt lat="45.6551224" lon="8.6571392"><ele>186.0</ele><time>2026-04-12T15:51:59.418Z</time></trkpt><trkpt lat="45.655186" lon="8.6571636"><ele>186.0</ele><time>2026-04-12T15:52:01.415Z</time></trkpt><trkpt lat="45.6552201" lon="8.657243"><ele>186.0</ele><time>2026-04-12T15:52:06.415Z</time></trkpt><trkpt lat="45.6551564" lon="8.6572901"><ele>186.0</ele><time>2026-04-12T15:52:08.42Z</time></trkpt><trkpt lat="45.6550786" lon="8.6573461"><ele>186.0</ele><time>2026-04-12T15:52:10.427Z</time></trkpt><trkpt lat="45.6549945" lon="8.6573909"><ele>186.0</ele><time>2026-04-12T15:52:12.417Z</time></trkpt><trkpt lat="45.6548714" lon="8.657457"><ele>186.0</ele><time>2026-04-12T15:52:14.426Z</time></trkpt><trkpt lat="45.6547956" lon="8.6574959"><ele>186.0</ele><time>2026-04-12T15:52:15.423Z</time></trkpt><trkpt lat="45.6547202" lon="8.6575384"><ele>186.0</ele><time>2026-04-12T15:52:16.419Z</time></trkpt><trkpt lat="45.6546402" lon="8.6575906"><ele>186.0</ele><time>2026-04-12T15:52:17.415Z</time></trkpt><trkpt lat="45.6545717" lon="8.6576488"><ele>186.0</ele><time>2026-04-12T15:52:18.413Z</time></trkpt><trkpt lat="45.6544981" lon="8.6577177"><ele>186.0</ele><time>2026-04-12T15:52:19.405Z</time></trkpt><trkpt lat="45.6544379" lon="8.6577921"><ele>186.0</ele><time>2026-04-12T15:52:20.417Z</time></trkpt><trkpt lat="45.6543787" lon="8.6578606"><ele>186.8</ele><time>2026-04-12T15:52:21.41Z</time></trkpt><trkpt lat="45.6543095" lon="8.6579268"><ele>187.60000000000002</ele><time>2026-04-12T15:52:22.406Z</time></trkpt><trkpt lat="45.6542498" lon="8.6579744"><ele>188.4</ele><time>2026-04-12T15:52:23.412Z</time></trkpt><trkpt lat="45.6541668" lon="8.6580801"><ele>189.2</ele><time>2026-04-12T15:52:25.417Z</time></trkpt><trkpt lat="45.6541209" lon="8.6582153"><ele>190.0</ele><time>2026-04-12T15:52:27.424Z</time></trkpt><trkpt lat="45.6540671" lon="8.658359"><ele>190.0</ele><time>2026-04-12T15:52:29.41Z</time></trkpt><trkpt lat="45.6540474" lon="8.6584836"><ele>190.0</ele><time>2026-04-12T15:52:30.421Z</time></trkpt><trkpt lat="45.6540056" lon="8.6585988"><ele>190.0</ele><time>2026-04-12T15:52:31.426Z</time></trkpt><trkpt lat="45.6539774" lon="8.6587685"><ele>190.0</ele><time>2026-04-12T15:52:32.419Z</time></trkpt><trkpt lat="45.6539381" lon="8.6588473"><ele>190.0</ele><time>2026-04-12T15:52:33.414Z</time></trkpt><trkpt lat="45.6538646" lon="8.6590435"><ele>189.83333333333334</ele><time>2026-04-12T15:52:35.416Z</time></trkpt><trkpt lat="45.6538668" lon="8.6591863"><ele>189.66666666666669</ele><time>2026-04-12T15:52:36.413Z</time></trkpt><trkpt lat="45.6538591" lon="8.6592927"><ele>189.5</ele><time>2026-04-12T15:52:37.408Z</time></trkpt><trkpt lat="45.653841" lon="8.6593829"><ele>189.33333333333334</ele><time>2026-04-12T15:52:38.415Z</time></trkpt><trkpt lat="45.6538052" lon="8.6594612"><ele>189.16666666666666</ele><time>2026-04-12T15:52:39.413Z</time></trkpt><trkpt lat="45.6537903" lon="8.6595633"><ele>189.0</ele><time>2026-04-12T15:52:40.415Z</time></trkpt><trkpt lat="45.6537223" lon="8.659727"><ele>189.0</ele><time>2026-04-12T15:52:42.421Z</time></trkpt><trkpt lat="45.653667" lon="8.6598123"><ele>189.0</ele><time>2026-04-12T15:52:43.41Z</time></trkpt><trkpt lat="45.6536087" lon="8.6598495"><ele>189.0</ele><time>2026-04-12T15:52:44.412Z</time></trkpt><trkpt lat="45.6535446" lon="8.6599114"><ele>189.0</ele><time>2026-04-12T15:52:45.418Z</time></trkpt><trkpt lat="45.653469" lon="8.659987"><ele>189.0</ele><time>2026-04-12T15:52:46.427Z</time></trkpt><trkpt lat="45.653399" lon="8.6600547"><ele>189.0</ele><time>2026-04-12T15:52:47.408Z</time></trkpt><trkpt lat="45.6533401" lon="8.6601153"><ele>189.0</ele><time>2026-04-12T15:52:48.417Z</time></trkpt><trkpt lat="45.6532753" lon="8.6601758"><ele>189.0</ele><time>2026-04-12T15:52:49.418Z</time></trkpt><trkpt lat="45.6531981" lon="8.6602272"><ele>189.0</ele><time>2026-04-12T15:52:50.403Z</time></trkpt><trkpt lat="45.6531289" lon="8.6602722"><ele>189.0</ele><time>2026-04-12T15:52:51.408Z</time></trkpt><trkpt lat="45.6530729" lon="8.6603136"><ele>189.0</ele><time>2026-04-12T15:52:52.407Z</time></trkpt><trkpt lat="45.653023" lon="8.6603818"><ele>189.0</ele><time>2026-04-12T15:52:54.411Z</time></trkpt><trkpt lat="45.6529254" lon="8.6604947"><ele>189.16666666666666</ele><time>2026-04-12T15:53:19.421Z</time></trkpt><trkpt lat="45.652906" lon="8.6606205"><ele>189.33333333333334</ele><time>2026-04-12T15:53:22.417Z</time></trkpt><trkpt lat="45.6528944" lon="8.6607828"><ele>189.5</ele><time>2026-04-12T15:53:24.426Z</time></trkpt><trkpt lat="45.6528902" lon="8.6608817"><ele>189.66666666666669</ele><time>2026-04-12T15:53:25.419Z</time></trkpt><trkpt lat="45.6528865" lon="8.6609834"><ele>189.83333333333334</ele><time>2026-04-12T15:53:26.418Z</time></trkpt><trkpt lat="45.6529119" lon="8.6610981"><ele>190.0</ele><time>2026-04-12T15:53:27.415Z</time></trkpt><trkpt lat="45.6529414" lon="8.6612347"><ele>190.0</ele><time>2026-04-12T15:53:28.419Z</time></trkpt><trkpt lat="45.6529653" lon="8.6613939"><ele>190.0</ele><time>2026-04-12T15:53:29.415Z</time></trkpt><trkpt lat="45.6529925" lon="8.6615452"><ele>190.0</ele><time>2026-04-12T15:53:30.417Z</time></trkpt><trkpt lat="45.6530291" lon="8.6616839"><ele>190.0</ele><time>2026-04-12T15:53:31.411Z</time></trkpt><trkpt lat="45.6530639" lon="8.661777"><ele>190.0</ele><time>2026-04-12T15:53:32.406Z</time></trkpt><trkpt lat="45.6530946" lon="8.6618942"><ele>190.0</ele><time>2026-04-12T15:53:33.415Z</time></trkpt><trkpt lat="45.6531147" lon="8.6619953"><ele>190.0</ele><time>2026-04-12T15:53:34.413Z</time></trkpt><trkpt lat="45.6531218" lon="8.6621401"><ele>190.0</ele><time>2026-04-12T15:53:35.409Z</time></trkpt><trkpt lat="45.6531185" lon="8.6622621"><ele>190.0</ele><time>2026-04-12T15:53:36.413Z</time></trkpt><trkpt lat="45.6531428" lon="8.6624001"><ele>190.0</ele><time>2026-04-12T15:53:37.419Z</time></trkpt><trkpt lat="45.6531639" lon="8.6625257"><ele>190.0</ele><time>2026-04-12T15:53:38.414Z</time></trkpt><trkpt lat="45.6531725" lon="8.6626551"><ele>190.0</ele><time>2026-04-12T15:53:39.412Z</time></trkpt><trkpt lat="45.6531744" lon="8.6627834"><ele>190.0</ele><time>2026-04-12T15:53:40.429Z</time></trkpt><trkpt lat="45.6531708" lon="8.6628946"><ele>190.0</ele><time>2026-04-12T15:53:41.41Z</time></trkpt><trkpt lat="45.6531645" lon="8.663006"><ele>190.0</ele><time>2026-04-12T15:53:42.419Z</time></trkpt><trkpt lat="45.6531697" lon="8.6631497"><ele>190.0</ele><time>2026-04-12T15:53:43.411Z</time></trkpt><trkpt lat="45.6531561" lon="8.663277"><ele>190.4</ele><time>2026-04-12T15:53:44.419Z</time></trkpt><trkpt lat="45.6531256" lon="8.6634057"><ele>190.8</ele><time>2026-04-12T15:53:45.411Z</time></trkpt><trkpt lat="45.6531081" lon="8.6635551"><ele>191.2</ele><time>2026-04-12T15:53:46.426Z</time></trkpt><trkpt lat="45.6531" lon="8.663692"><ele>191.6</ele><time>2026-04-12T15:53:47.41Z</time></trkpt><trkpt lat="45.6530985" lon="8.6638112"><ele>192.0</ele><time>2026-04-12T15:53:48.412Z</time></trkpt><trkpt lat="45.6531029" lon="8.6639171"><ele>192.0</ele><time>2026-04-12T15:53:49.415Z</time></trkpt><trkpt lat="45.6531053" lon="8.6640471"><ele>192.0</ele><time>2026-04-12T15:53:50.425Z</time></trkpt><trkpt lat="45.6531157" lon="8.6641716"><ele>192.0</ele><time>2026-04-12T15:53:51.416Z</time></trkpt><trkpt lat="45.6531202" lon="8.6642936"><ele>192.0</ele><time>2026-04-12T15:53:52.424Z</time></trkpt><trkpt lat="45.65313" lon="8.6644032"><ele>192.0</ele><time>2026-04-12T15:53:53.422Z</time></trkpt><trkpt lat="45.6531189" lon="8.6645125"><ele>192.0</ele><time>2026-04-12T15:53:54.415Z</time></trkpt><trkpt lat="45.6530775" lon="8.6646351"><ele>191.8</ele><time>2026-04-12T15:53:55.423Z</time></trkpt><trkpt lat="45.6530532" lon="8.6647728"><ele>191.6</ele><time>2026-04-12T15:53:56.41Z</time></trkpt><trkpt lat="45.6530322" lon="8.6648824"><ele>191.4</ele><time>2026-04-12T15:53:57.416Z</time></trkpt><trkpt lat="45.653063" lon="8.6650798"><ele>191.20000000000002</ele><time>2026-04-12T15:53:59.408Z</time></trkpt><trkpt lat="45.6531334" lon="8.6651609"><ele>191.0</ele><time>2026-04-12T15:54:00.418Z</time></trkpt><trkpt lat="45.6532022" lon="8.6652549"><ele>191.4</ele><time>2026-04-12T15:54:01.426Z</time></trkpt><trkpt lat="45.6532658" lon="8.6653521"><ele>191.8</ele><time>2026-04-12T15:54:02.413Z</time></trkpt><trkpt lat="45.6533209" lon="8.6654985"><ele>192.20000000000002</ele><time>2026-04-12T15:54:03.416Z</time></trkpt><trkpt lat="45.6533288" lon="8.6655914"><ele>192.60000000000002</ele><time>2026-04-12T15:54:04.413Z</time></trkpt><trkpt lat="45.6532403" lon="8.6657085"><ele>193.0</ele><time>2026-04-12T15:54:06.414Z</time></trkpt><trkpt lat="45.6531269" lon="8.6657928"><ele>193.0</ele><time>2026-04-12T15:54:08.422Z</time></trkpt><trkpt lat="45.6530599" lon="8.6659184"><ele>193.0</ele><time>2026-04-12T15:54:09.422Z</time></trkpt><trkpt lat="45.6529739" lon="8.6660285"><ele>193.0</ele><time>2026-04-12T15:54:10.415Z</time></trkpt><trkpt lat="45.6528996" lon="8.6661625"><ele>193.0</ele><time>2026-04-12T15:54:11.417Z</time></trkpt><trkpt lat="45.6527891" lon="8.6662744"><ele>191.66666666666666</ele><time>2026-04-12T15:54:12.418Z</time></trkpt><trkpt lat="45.6526673" lon="8.6663887"><ele>190.33333333333331</ele><time>2026-04-12T15:54:13.415Z</time></trkpt><trkpt lat="45.6525483" lon="8.6665087"><ele>189.0</ele><time>2026-04-12T15:54:14.414Z</time></trkpt><trkpt lat="45.6523874" lon="8.6667032"><ele>189.0</ele><time>2026-04-12T15:54:15.415Z</time></trkpt><trkpt lat="45.6522608" lon="8.6668448"><ele>189.0</ele><time>2026-04-12T15:54:16.418Z</time></trkpt><trkpt lat="45.652158" lon="8.6670058"><ele>189.0</ele><time>2026-04-12T15:54:17.417Z</time></trkpt><trkpt lat="45.6520674" lon="8.6671358"><ele>189.0</ele><time>2026-04-12T15:54:18.41Z</time></trkpt><trkpt lat="45.651977" lon="8.6672538"><ele>188.83333333333334</ele><time>2026-04-12T15:54:19.426Z</time></trkpt><trkpt lat="45.6519149" lon="8.6673601"><ele>188.66666666666666</ele><time>2026-04-12T15:54:20.421Z</time></trkpt><trkpt lat="45.6518571" lon="8.6674535"><ele>188.5</ele><time>2026-04-12T15:54:21.417Z</time></trkpt><trkpt lat="45.6518272" lon="8.6675456"><ele>188.33333333333331</ele><time>2026-04-12T15:54:22.41Z</time></trkpt><trkpt lat="45.6518053" lon="8.6676624"><ele>188.16666666666666</ele><time>2026-04-12T15:54:23.406Z</time></trkpt><trkpt lat="45.651794" lon="8.6677897"><ele>188.0</ele><time>2026-04-12T15:54:24.429Z</time></trkpt><trkpt lat="45.6517797" lon="8.6679112"><ele>188.33333333333331</ele><time>2026-04-12T15:54:25.409Z</time></trkpt><trkpt lat="45.6517895" lon="8.6680238"><ele>188.66666666666666</ele><time>2026-04-12T15:54:26.422Z</time></trkpt><trkpt lat="45.6518079" lon="8.6681274"><ele>189.0</ele><time>2026-04-12T15:54:27.411Z</time></trkpt><trkpt lat="45.651825" lon="8.6682271"><ele>189.33333333333334</ele><time>2026-04-12T15:54:28.414Z</time></trkpt><trkpt lat="45.6518424" lon="8.6683818"><ele>189.66666666666669</ele><time>2026-04-12T15:54:29.415Z</time></trkpt><trkpt lat="45.6518464" lon="8.6685286"><ele>190.0</ele><time>2026-04-12T15:54:30.418Z</time></trkpt><trkpt lat="45.6518517" lon="8.6686627"><ele>190.2</ele><time>2026-04-12T15:54:31.413Z</time></trkpt><trkpt lat="45.6518694" lon="8.6688423"><ele>190.4</ele><time>2026-04-12T15:54:32.422Z</time></trkpt><trkpt lat="45.6518811" lon="8.6689889"><ele>190.60000000000002</ele><time>2026-04-12T15:54:33.411Z</time></trkpt><trkpt lat="45.6518799" lon="8.6691519"><ele>190.8</ele><time>2026-04-12T15:54:34.42Z</time></trkpt><trkpt lat="45.6518771" lon="8.6692904"><ele>191.0</ele><time>2026-04-12T15:54:35.422Z</time></trkpt><trkpt lat="45.6518783" lon="8.6694032"><ele>191.33333333333331</ele><time>2026-04-12T15:54:36.403Z</time></trkpt><trkpt lat="45.6518881" lon="8.6695211"><ele>191.66666666666666</ele><time>2026-04-12T15:54:37.405Z</time></trkpt><trkpt lat="45.6519023" lon="8.6696492"><ele>192.0</ele><time>2026-04-12T15:54:38.424Z</time></trkpt><trkpt lat="45.6519286" lon="8.6697716"><ele>192.33333333333331</ele><time>2026-04-12T15:54:39.409Z</time></trkpt><trkpt lat="45.6519409" lon="8.6698871"><ele>192.66666666666666</ele><time>2026-04-12T15:54:40.419Z</time></trkpt><trkpt lat="45.6519637" lon="8.6699927"><ele>193.0</ele><time>2026-04-12T15:54:44.413Z</time></trkpt><trkpt lat="45.6520307" lon="8.6699307"><ele>195.4</ele><time>2026-04-12T15:55:18.422Z</time></trkpt><trkpt lat="45.652125" lon="8.6698207"><ele>197.8</ele><time>2026-04-12T15:55:20.421Z</time></trkpt><trkpt lat="45.6522169" lon="8.6697411"><ele>200.2</ele><time>2026-04-12T15:55:22.418Z</time></trkpt><trkpt lat="45.6522864" lon="8.6697058"><ele>202.6</ele><time>2026-04-12T15:55:24.408Z</time></trkpt><trkpt lat="45.65235" lon="8.6696239"><ele>205.0</ele><time>2026-04-12T15:55:27.407Z</time></trkpt><trkpt lat="45.6524063" lon="8.6695414"><ele>204.99999999999997</ele><time>2026-04-12T15:55:29.417Z</time></trkpt><trkpt lat="45.6524593" lon="8.6694732"><ele>205.0</ele><time>2026-04-12T15:55:30.423Z</time></trkpt><trkpt lat="45.6525055" lon="8.669406"><ele>205.0</ele><time>2026-04-12T15:55:31.413Z</time></trkpt><trkpt lat="45.6525721" lon="8.6693168"><ele>205.0</ele><time>2026-04-12T15:55:32.427Z</time></trkpt><trkpt lat="45.6526279" lon="8.6692337"><ele>204.99999999999997</ele><time>2026-04-12T15:55:33.426Z</time></trkpt><trkpt lat="45.652681" lon="8.6691614"><ele>205.0</ele><time>2026-04-12T15:55:34.421Z</time></trkpt><trkpt lat="45.6527551" lon="8.6690665"><ele>206.66666666666666</ele><time>2026-04-12T15:55:36.42Z</time></trkpt><trkpt lat="45.6528353" lon="8.6689805"><ele>208.33333333333331</ele><time>2026-04-12T15:55:38.427Z</time></trkpt><trkpt lat="45.6529003" lon="8.6689714"><ele>210.0</ele><time>2026-04-12T15:55:40.409Z</time></trkpt><trkpt lat="45.652975" lon="8.6690032"><ele>211.66666666666669</ele><time>2026-04-12T15:55:42.415Z</time></trkpt><trkpt lat="45.6530508" lon="8.6690694"><ele>213.33333333333334</ele><time>2026-04-12T15:55:44.414Z</time></trkpt><trkpt lat="45.6531062" lon="8.6691143"><ele>215.0</ele><time>2026-04-12T15:55:46.415Z</time></trkpt><trkpt lat="45.6531733" lon="8.6692054"><ele>215.0</ele><time>2026-04-12T15:55:58.413Z</time></trkpt><trkpt lat="45.6532132" lon="8.6692849"><ele>215.0</ele><time>2026-04-12T15:56:00.404Z</time></trkpt><trkpt lat="45.653264" lon="8.669413"><ele>215.0</ele><time>2026-04-12T15:56:02.415Z</time></trkpt><trkpt lat="45.6533332" lon="8.6695702"><ele>215.0</ele><time>2026-04-12T15:56:04.417Z</time></trkpt><trkpt lat="45.6533829" lon="8.6697394"><ele>215.0</ele><time>2026-04-12T15:56:06.421Z</time></trkpt><trkpt lat="45.6534044" lon="8.6698296"><ele>215.2</ele><time>2026-04-12T15:56:07.403Z</time></trkpt><trkpt lat="45.653421" lon="8.6699186"><ele>215.4</ele><time>2026-04-12T15:56:08.427Z</time></trkpt><trkpt lat="45.653443" lon="8.6700706"><ele>215.60000000000002</ele><time>2026-04-12T15:56:10.427Z</time></trkpt><trkpt lat="45.65346" lon="8.670187"><ele>215.8</ele><time>2026-04-12T15:56:12.412Z</time></trkpt><trkpt lat="45.6534875" lon="8.6703262"><ele>216.0</ele><time>2026-04-12T15:56:14.412Z</time></trkpt><trkpt lat="45.6535444" lon="8.6704635"><ele>216.0</ele><time>2026-04-12T15:56:16.416Z</time></trkpt><trkpt lat="45.6535807" lon="8.6705928"><ele>216.0</ele><time>2026-04-12T15:56:18.427Z</time></trkpt><trkpt lat="45.6536129" lon="8.6706816"><ele>216.0</ele><time>2026-04-12T15:56:19.41Z</time></trkpt><trkpt lat="45.6536486" lon="8.6707677"><ele>216.0</ele><time>2026-04-12T15:56:20.422Z</time></trkpt><trkpt lat="45.6537166" lon="8.6709005"><ele>216.0</ele><time>2026-04-12T15:56:22.403Z</time></trkpt><trkpt lat="45.6537453" lon="8.6709811"><ele>216.0</ele><time>2026-04-12T15:56:23.403Z</time></trkpt><trkpt lat="45.6537988" lon="8.6711871"><ele>216.33333333333334</ele><time>2026-04-12T15:56:25.421Z</time></trkpt><trkpt lat="45.6538322" lon="8.6712877"><ele>216.66666666666669</ele><time>2026-04-12T15:56:26.415Z</time></trkpt><trkpt lat="45.6538808" lon="8.6713833"><ele>217.0</ele><time>2026-04-12T15:56:27.422Z</time></trkpt><trkpt lat="45.6539236" lon="8.6714626"><ele>217.33333333333334</ele><time>2026-04-12T15:56:28.422Z</time></trkpt><trkpt lat="45.6539643" lon="8.6715351"><ele>217.66666666666669</ele><time>2026-04-12T15:56:29.41Z</time></trkpt><trkpt lat="45.6539954" lon="8.6716656"><ele>218.0</ele><time>2026-04-12T15:56:31.413Z</time></trkpt><trkpt lat="45.6540189" lon="8.6717675"><ele>218.0</ele><time>2026-04-12T15:56:34.417Z</time></trkpt><trkpt lat="45.6540606" lon="8.6719001"><ele>218.0</ele><time>2026-04-12T15:56:36.424Z</time></trkpt><trkpt lat="45.6540798" lon="8.6720587"><ele>218.0</ele><time>2026-04-12T15:56:38.418Z</time></trkpt><trkpt lat="45.6541003" lon="8.6722097"><ele>218.0</ele><time>2026-04-12T15:56:40.406Z</time></trkpt><trkpt lat="45.6541165" lon="8.6723158"><ele>218.0</ele><time>2026-04-12T15:56:41.416Z</time></trkpt><trkpt lat="45.6541304" lon="8.6724212"><ele>218.4</ele><time>2026-04-12T15:56:42.427Z</time></trkpt><trkpt lat="45.6541403" lon="8.6725125"><ele>218.8</ele><time>2026-04-12T15:56:43.425Z</time></trkpt><trkpt lat="45.654141" lon="8.6726569"><ele>219.2</ele><time>2026-04-12T15:56:45.413Z</time></trkpt><trkpt lat="45.6541285" lon="8.6728108"><ele>219.6</ele><time>2026-04-12T15:56:47.423Z</time></trkpt><trkpt lat="45.6541537" lon="8.6729169"><ele>220.0</ele><time>2026-04-12T15:56:49.426Z</time></trkpt><trkpt lat="45.6541936" lon="8.6730873"><ele>220.0</ele><time>2026-04-12T15:57:07.42Z</time></trkpt><trkpt lat="45.6542618" lon="8.6729956"><ele>220.0</ele><time>2026-04-12T15:57:10.416Z</time></trkpt><trkpt lat="45.6543267" lon="8.6728376"><ele>220.0</ele><time>2026-04-12T15:57:12.414Z</time></trkpt><trkpt lat="45.6543974" lon="8.6727109"><ele>220.0</ele><time>2026-04-12T15:57:13.414Z</time></trkpt><trkpt lat="45.6544582" lon="8.67262"><ele>220.0</ele><time>2026-04-12T15:57:14.418Z</time></trkpt><trkpt lat="45.6545216" lon="8.6725263"><ele>220.0</ele><time>2026-04-12T15:57:15.428Z</time></trkpt><trkpt lat="45.6545879" lon="8.6724156"><ele>220.0</ele><time>2026-04-12T15:57:16.412Z</time></trkpt><trkpt lat="45.6546551" lon="8.6723129"><ele>220.0</ele><time>2026-04-12T15:57:17.415Z</time></trkpt><trkpt lat="45.654731" lon="8.6721953"><ele>220.0</ele><time>2026-04-12T15:57:18.41Z</time></trkpt><trkpt lat="45.6547926" lon="8.6720987"><ele>220.0</ele><time>2026-04-12T15:57:19.409Z</time></trkpt><trkpt lat="45.654843" lon="8.6720089"><ele>221.0</ele><time>2026-04-12T15:57:20.41Z</time></trkpt><trkpt lat="45.6548815" lon="8.6719149"><ele>222.0</ele><time>2026-04-12T15:57:21.411Z</time></trkpt><trkpt lat="45.6549259" lon="8.6717802"><ele>223.0</ele><time>2026-04-12T15:57:22.41Z</time></trkpt><trkpt lat="45.6549504" lon="8.6716428"><ele>224.0</ele><time>2026-04-12T15:57:23.406Z</time></trkpt><trkpt lat="45.6549782" lon="8.6714981"><ele>225.0</ele><time>2026-04-12T15:57:24.414Z</time></trkpt><trkpt lat="45.6550587" lon="8.6711549"><ele>225.25</ele><time>2026-04-12T15:57:26.428Z</time></trkpt><trkpt lat="45.6551107" lon="8.6709744"><ele>225.5</ele><time>2026-04-12T15:57:27.409Z</time></trkpt><trkpt lat="45.6551895" lon="8.6708042"><ele>225.75</ele><time>2026-04-12T15:57:28.408Z</time></trkpt><trkpt lat="45.655256" lon="8.6706705"><ele>226.0</ele><time>2026-04-12T15:57:29.411Z</time></trkpt><trkpt lat="45.655322" lon="8.6705719"><ele>225.8</ele><time>2026-04-12T15:57:30.417Z</time></trkpt><trkpt lat="45.6553805" lon="8.670435"><ele>225.60000000000002</ele><time>2026-04-12T15:57:31.414Z</time></trkpt><trkpt lat="45.6554416" lon="8.6703124"><ele>225.4</ele><time>2026-04-12T15:57:32.412Z</time></trkpt><trkpt lat="45.6554975" lon="8.6702044"><ele>225.2</ele><time>2026-04-12T15:57:33.415Z</time></trkpt><trkpt lat="45.6555389" lon="8.670083"><ele>225.0</ele><time>2026-04-12T15:57:34.413Z</time></trkpt><trkpt lat="45.6555706" lon="8.6699848"><ele>225.0</ele><time>2026-04-12T15:57:35.413Z</time></trkpt><trkpt lat="45.655613" lon="8.6698903"><ele>225.0</ele><time>2026-04-12T15:57:36.408Z</time></trkpt><trkpt lat="45.6556801" lon="8.6697945"><ele>225.0</ele><time>2026-04-12T15:57:37.41Z</time></trkpt><trkpt lat="45.6557832" lon="8.6696929"><ele>225.0</ele><time>2026-04-12T15:57:38.414Z</time></trkpt><trkpt lat="45.6558732" lon="8.6695985"><ele>225.0</ele><time>2026-04-12T15:57:39.405Z</time></trkpt><trkpt lat="45.6559731" lon="8.6694854"><ele>225.2</ele><time>2026-04-12T15:57:40.407Z</time></trkpt><trkpt lat="45.6560803" lon="8.669369"><ele>225.4</ele><time>2026-04-12T15:57:41.417Z</time></trkpt><trkpt lat="45.6561661" lon="8.6692627"><ele>225.60000000000002</ele><time>2026-04-12T15:57:42.409Z</time></trkpt><trkpt lat="45.6562346" lon="8.6691521"><ele>225.8</ele><time>2026-04-12T15:57:43.411Z</time></trkpt><trkpt lat="45.6562953" lon="8.6690623"><ele>226.0</ele><time>2026-04-12T15:57:44.414Z</time></trkpt><trkpt lat="45.6563558" lon="8.6689621"><ele>226.8</ele><time>2026-04-12T15:57:45.414Z</time></trkpt><trkpt lat="45.6564129" lon="8.6688541"><ele>227.60000000000002</ele><time>2026-04-12T15:57:46.412Z</time></trkpt><trkpt lat="45.6564772" lon="8.6687446"><ele>228.4</ele><time>2026-04-12T15:57:47.418Z</time></trkpt><trkpt lat="45.6565543" lon="8.6686656"><ele>229.2</ele><time>2026-04-12T15:57:48.422Z</time></trkpt><trkpt lat="45.6566475" lon="8.668624"><ele>230.0</ele><time>2026-04-12T15:57:49.41Z</time></trkpt><trkpt lat="45.6567488" lon="8.6685837"><ele>230.0</ele><time>2026-04-12T15:57:50.412Z</time></trkpt><trkpt lat="45.656861" lon="8.668549"><ele>230.0</ele><time>2026-04-12T15:57:51.408Z</time></trkpt><trkpt lat="45.6570392" lon="8.6685297"><ele>230.0</ele><time>2026-04-12T15:57:53.42Z</time></trkpt><trkpt lat="45.6571519" lon="8.668511"><ele>230.0</ele><time>2026-04-12T15:57:54.413Z</time></trkpt><trkpt lat="45.6572794" lon="8.6685006"><ele>229.0</ele><time>2026-04-12T15:57:55.42Z</time></trkpt><trkpt lat="45.657392" lon="8.6684968"><ele>228.0</ele><time>2026-04-12T15:57:56.414Z</time></trkpt><trkpt lat="45.6574926" lon="8.6684915"><ele>227.0</ele><time>2026-04-12T15:57:57.412Z</time></trkpt><trkpt lat="45.6575936" lon="8.6684816"><ele>226.0</ele><time>2026-04-12T15:57:58.41Z</time></trkpt><trkpt lat="45.657691" lon="8.6684766"><ele>225.0</ele><time>2026-04-12T15:57:59.407Z</time></trkpt><trkpt lat="45.6577735" lon="8.668476"><ele>224.66666666666666</ele><time>2026-04-12T15:58:00.411Z</time></trkpt><trkpt lat="45.6578502" lon="8.6684627"><ele>224.33333333333331</ele><time>2026-04-12T15:58:01.409Z</time></trkpt><trkpt lat="45.6579116" lon="8.6684427"><ele>224.0</ele><time>2026-04-12T15:58:02.409Z</time></trkpt><trkpt lat="45.657978" lon="8.6684158"><ele>223.66666666666666</ele><time>2026-04-12T15:58:03.412Z</time></trkpt><trkpt lat="45.6580429" lon="8.6683838"><ele>223.33333333333331</ele><time>2026-04-12T15:58:04.419Z</time></trkpt><trkpt lat="45.658154" lon="8.6682908"><ele>223.0</ele><time>2026-04-12T15:58:06.41Z</time></trkpt><trkpt lat="45.6582043" lon="8.6682204"><ele>223.0</ele><time>2026-04-12T15:58:07.408Z</time></trkpt><trkpt lat="45.6582175" lon="8.668054"><ele>223.0</ele><time>2026-04-12T15:58:08.409Z</time></trkpt><trkpt lat="45.6582658" lon="8.6677437"><ele>223.0</ele><time>2026-04-12T15:58:10.413Z</time></trkpt><trkpt lat="45.6583113" lon="8.6676059"><ele>223.0</ele><time>2026-04-12T15:58:11.409Z</time></trkpt><trkpt lat="45.6583538" lon="8.6674064"><ele>224.66666666666666</ele><time>2026-04-12T15:58:12.42Z</time></trkpt><trkpt lat="45.6585153" lon="8.6672403"><ele>226.33333333333331</ele><time>2026-04-12T15:58:14.404Z</time></trkpt><trkpt lat="45.6586264" lon="8.6670964"><ele>228.0</ele><time>2026-04-12T15:58:15.411Z</time></trkpt><trkpt lat="45.658752" lon="8.666972"><ele>229.4</ele><time>2026-04-12T15:58:16.409Z</time></trkpt><trkpt lat="45.6588501" lon="8.666892"><ele>230.8</ele><time>2026-04-12T15:58:17.408Z</time></trkpt><trkpt lat="45.658946" lon="8.6668463"><ele>232.2</ele><time>2026-04-12T15:58:18.411Z</time></trkpt><trkpt lat="45.6590406" lon="8.6667921"><ele>233.6</ele><time>2026-04-12T15:58:19.414Z</time></trkpt><trkpt lat="45.6591388" lon="8.6667243"><ele>235.0</ele><time>2026-04-12T15:58:20.416Z</time></trkpt><trkpt lat="45.6592397" lon="8.6666493"><ele>235.0</ele><time>2026-04-12T15:58:21.407Z</time></trkpt><trkpt lat="45.6593418" lon="8.6665761"><ele>235.0</ele><time>2026-04-12T15:58:22.404Z</time></trkpt><trkpt lat="45.6594493" lon="8.666508"><ele>235.0</ele><time>2026-04-12T15:58:23.409Z</time></trkpt><trkpt lat="45.6595463" lon="8.6663923"><ele>235.0</ele><time>2026-04-12T15:58:24.415Z</time></trkpt><trkpt lat="45.6596584" lon="8.6662596"><ele>236.25</ele><time>2026-04-12T15:58:25.405Z</time></trkpt><trkpt lat="45.6597579" lon="8.6661569"><ele>237.5</ele><time>2026-04-12T15:58:26.412Z</time></trkpt><trkpt lat="45.6598355" lon="8.6660615"><ele>238.75</ele><time>2026-04-12T15:58:27.407Z</time></trkpt><trkpt lat="45.6599162" lon="8.6659562"><ele>240.0</ele><time>2026-04-12T15:58:28.408Z</time></trkpt><trkpt lat="45.6600159" lon="8.6658587"><ele>241.2</ele><time>2026-04-12T15:58:29.413Z</time></trkpt><trkpt lat="45.6600875" lon="8.6657746"><ele>242.4</ele><time>2026-04-12T15:58:30.412Z</time></trkpt><trkpt lat="45.6601653" lon="8.6656845"><ele>243.60000000000002</ele><time>2026-04-12T15:58:31.407Z</time></trkpt><trkpt lat="45.6602348" lon="8.6656171"><ele>244.8</ele><time>2026-04-12T15:58:32.417Z</time></trkpt><trkpt lat="45.6603072" lon="8.6655461"><ele>246.0</ele><time>2026-04-12T15:58:33.412Z</time></trkpt><trkpt lat="45.6603877" lon="8.6654659"><ele>247.20000000000002</ele><time>2026-04-12T15:58:34.407Z</time></trkpt><trkpt lat="45.6604223" lon="8.6653721"><ele>248.40000000000003</ele><time>2026-04-12T15:58:35.403Z</time></trkpt><trkpt lat="45.6604581" lon="8.6652637"><ele>249.6</ele><time>2026-04-12T15:58:36.411Z</time></trkpt><trkpt lat="45.6604924" lon="8.6651485"><ele>250.8</ele><time>2026-04-12T15:58:37.405Z</time></trkpt><trkpt lat="45.660522" lon="8.6650563"><ele>252.0</ele><time>2026-04-12T15:58:38.406Z</time></trkpt><trkpt lat="45.6605669" lon="8.6648756"><ele>252.16666666666666</ele><time>2026-04-12T15:58:40.411Z</time></trkpt><trkpt lat="45.6605949" lon="8.6647556"><ele>252.33333333333331</ele><time>2026-04-12T15:58:41.412Z</time></trkpt><trkpt lat="45.6606182" lon="8.6646551"><ele>252.5</ele><time>2026-04-12T15:58:42.418Z</time></trkpt><trkpt lat="45.6606336" lon="8.6645502"><ele>252.66666666666666</ele><time>2026-04-12T15:58:43.406Z</time></trkpt><trkpt lat="45.660655" lon="8.6644525"><ele>252.83333333333331</ele><time>2026-04-12T15:58:44.403Z</time></trkpt><trkpt lat="45.6606733" lon="8.6643608"><ele>253.0</ele><time>2026-04-12T15:58:45.412Z</time></trkpt><trkpt lat="45.6607001" lon="8.6642592"><ele>253.33333333333331</ele><time>2026-04-12T15:58:46.415Z</time></trkpt><trkpt lat="45.660723" lon="8.6641576"><ele>253.66666666666666</ele><time>2026-04-12T15:58:47.402Z</time></trkpt><trkpt lat="45.6607463" lon="8.6640719"><ele>254.0</ele><time>2026-04-12T15:58:48.41Z</time></trkpt><trkpt lat="45.6608013" lon="8.6639455"><ele>254.33333333333331</ele><time>2026-04-12T15:58:50.423Z</time></trkpt><trkpt lat="45.6608317" lon="8.6638643"><ele>254.66666666666666</ele><time>2026-04-12T15:58:52.418Z</time></trkpt><trkpt lat="45.6608821" lon="8.6637882"><ele>255.0</ele><time>2026-04-12T15:59:30.409Z</time></trkpt><trkpt lat="45.6609529" lon="8.6638298"><ele>255.0</ele><time>2026-04-12T15:59:32.412Z</time></trkpt><trkpt lat="45.6610509" lon="8.663914"><ele>255.0</ele><time>2026-04-12T15:59:34.41Z</time></trkpt><trkpt lat="45.6611162" lon="8.6639608"><ele>255.0</ele><time>2026-04-12T15:59:35.411Z</time></trkpt><trkpt lat="45.6611885" lon="8.6640167"><ele>255.0</ele><time>2026-04-12T15:59:36.434Z</time></trkpt><trkpt lat="45.6612576" lon="8.6640684"><ele>255.0</ele><time>2026-04-12T15:59:37.417Z</time></trkpt><trkpt lat="45.6613178" lon="8.6641161"><ele>255.0</ele><time>2026-04-12T15:59:38.412Z</time></trkpt><trkpt lat="45.6613889" lon="8.6641669"><ele>254.8</ele><time>2026-04-12T15:59:39.408Z</time></trkpt><trkpt lat="45.6614688" lon="8.6642304"><ele>254.6</ele><time>2026-04-12T15:59:40.415Z</time></trkpt><trkpt lat="45.6615521" lon="8.6642833"><ele>254.39999999999998</ele><time>2026-04-12T15:59:41.414Z</time></trkpt><trkpt lat="45.6616386" lon="8.6643384"><ele>254.2</ele><time>2026-04-12T15:59:42.415Z</time></trkpt><trkpt lat="45.6617406" lon="8.6644251"><ele>254.0</ele><time>2026-04-12T15:59:43.412Z</time></trkpt><trkpt lat="45.66183" lon="8.6644896"><ele>254.5</ele><time>2026-04-12T15:59:44.42Z</time></trkpt><trkpt lat="45.6619549" lon="8.6645501"><ele>255.0</ele><time>2026-04-12T15:59:45.407Z</time></trkpt><trkpt lat="45.6620848" lon="8.6646159"><ele>255.5</ele><time>2026-04-12T15:59:46.425Z</time></trkpt><trkpt lat="45.6622155" lon="8.6646893"><ele>256.0</ele><time>2026-04-12T15:59:47.41Z</time></trkpt><trkpt lat="45.6623273" lon="8.6647452"><ele>256.0</ele><time>2026-04-12T15:59:48.421Z</time></trkpt><trkpt lat="45.6624274" lon="8.6648087"><ele>256.0</ele><time>2026-04-12T15:59:49.412Z</time></trkpt><trkpt lat="45.6625246" lon="8.6648844"><ele>256.0</ele><time>2026-04-12T15:59:50.408Z</time></trkpt><trkpt lat="45.6626298" lon="8.6649338"><ele>256.0</ele><time>2026-04-12T15:59:51.412Z</time></trkpt><trkpt lat="45.6627419" lon="8.6650119"><ele>255.60000000000002</ele><time>2026-04-12T15:59:52.413Z</time></trkpt><trkpt lat="45.6628376" lon="8.6650671"><ele>255.20000000000002</ele><time>2026-04-12T15:59:53.416Z</time></trkpt><trkpt lat="45.6629297" lon="8.6651109"><ele>254.79999999999998</ele><time>2026-04-12T15:59:54.412Z</time></trkpt><trkpt lat="45.6630087" lon="8.6651414"><ele>254.39999999999998</ele><time>2026-04-12T15:59:55.415Z</time></trkpt><trkpt lat="45.6631154" lon="8.6651262"><ele>254.0</ele><time>2026-04-12T15:59:57.414Z</time></trkpt><trkpt lat="45.6631788" lon="8.6650513"><ele>254.0</ele><time>2026-04-12T15:59:59.406Z</time></trkpt><trkpt lat="45.6632642" lon="8.6650779"><ele>253.99999999999997</ele><time>2026-04-12T16:00:06.415Z</time></trkpt><trkpt lat="45.6633758" lon="8.6651279"><ele>253.99999999999997</ele><time>2026-04-12T16:00:08.417Z</time></trkpt><trkpt lat="45.6634494" lon="8.6651763"><ele>254.0</ele><time>2026-04-12T16:00:09.411Z</time></trkpt><trkpt lat="45.663531" lon="8.6652211"><ele>254.0</ele><time>2026-04-12T16:00:10.412Z</time></trkpt><trkpt lat="45.6636188" lon="8.6652671"><ele>253.6</ele><time>2026-04-12T16:00:11.411Z</time></trkpt><trkpt lat="45.6637129" lon="8.6653162"><ele>253.2</ele><time>2026-04-12T16:00:12.41Z</time></trkpt><trkpt lat="45.6638089" lon="8.6653824"><ele>252.79999999999998</ele><time>2026-04-12T16:00:13.414Z</time></trkpt><trkpt lat="45.6638961" lon="8.6654422"><ele>252.39999999999998</ele><time>2026-04-12T16:00:14.415Z</time></trkpt><trkpt lat="45.663981" lon="8.6654969"><ele>252.0</ele><time>2026-04-12T16:00:15.41Z</time></trkpt><trkpt lat="45.6640555" lon="8.6655443"><ele>252.0</ele><time>2026-04-12T16:00:16.414Z</time></trkpt><trkpt lat="45.6641219" lon="8.6655886"><ele>252.0</ele><time>2026-04-12T16:00:17.418Z</time></trkpt><trkpt lat="45.6642238" lon="8.6656632"><ele>252.0</ele><time>2026-04-12T16:00:19.411Z</time></trkpt><trkpt lat="45.6643178" lon="8.6655901"><ele>252.0</ele><time>2026-04-12T16:00:21.412Z</time></trkpt><trkpt lat="45.6643581" lon="8.6654817"><ele>252.0</ele><time>2026-04-12T16:00:22.406Z</time></trkpt><trkpt lat="45.6644043" lon="8.6653493"><ele>251.5</ele><time>2026-04-12T16:00:23.414Z</time></trkpt><trkpt lat="45.6644466" lon="8.6652512"><ele>251.0</ele><time>2026-04-12T16:00:24.403Z</time></trkpt><trkpt lat="45.6645531" lon="8.6651864"><ele>250.5</ele><time>2026-04-12T16:00:26.409Z</time></trkpt><trkpt lat="45.6646347" lon="8.6652233"><ele>250.0</ele><time>2026-04-12T16:00:27.409Z</time></trkpt><trkpt lat="45.6648702" lon="8.6653533"><ele>250.0</ele><time>2026-04-12T16:00:29.405Z</time></trkpt><trkpt lat="45.6650244" lon="8.6653868"><ele>250.0</ele><time>2026-04-12T16:00:30.418Z</time></trkpt><trkpt lat="45.6651496" lon="8.6654189"><ele>250.0</ele><time>2026-04-12T16:00:31.413Z</time></trkpt><trkpt lat="45.6652507" lon="8.6654538"><ele>250.0</ele><time>2026-04-12T16:00:32.415Z</time></trkpt><trkpt lat="45.6653579" lon="8.6654887"><ele>248.75</ele><time>2026-04-12T16:00:33.409Z</time></trkpt><trkpt lat="45.6654831" lon="8.6655067"><ele>247.5</ele><time>2026-04-12T16:00:34.412Z</time></trkpt><trkpt lat="45.6656084" lon="8.6654873"><ele>246.25</ele><time>2026-04-12T16:00:35.415Z</time></trkpt><trkpt lat="45.6657109" lon="8.6654749"><ele>245.0</ele><time>2026-04-12T16:00:36.405Z</time></trkpt><trkpt lat="45.6658809" lon="8.6653847"><ele>245.0</ele><time>2026-04-12T16:00:38.413Z</time></trkpt><trkpt lat="45.6659901" lon="8.6653309"><ele>245.0</ele><time>2026-04-12T16:00:39.405Z</time></trkpt><trkpt lat="45.6661195" lon="8.6652788"><ele>245.0</ele><time>2026-04-12T16:00:40.409Z</time></trkpt><trkpt lat="45.6662346" lon="8.6652503"><ele>245.0</ele><time>2026-04-12T16:00:41.408Z</time></trkpt><trkpt lat="45.6663321" lon="8.6651992"><ele>245.8</ele><time>2026-04-12T16:00:42.42Z</time></trkpt><trkpt lat="45.6664242" lon="8.6651246"><ele>246.6</ele><time>2026-04-12T16:00:43.403Z</time></trkpt><trkpt lat="45.6665119" lon="8.6650472"><ele>247.39999999999998</ele><time>2026-04-12T16:00:44.409Z</time></trkpt><trkpt lat="45.6665983" lon="8.6649591"><ele>248.2</ele><time>2026-04-12T16:00:45.411Z</time></trkpt><trkpt lat="45.6666597" lon="8.664846"><ele>249.0</ele><time>2026-04-12T16:00:46.415Z</time></trkpt><trkpt lat="45.6667753" lon="8.664707"><ele>249.0</ele><time>2026-04-12T16:00:47.411Z</time></trkpt><trkpt lat="45.6668342" lon="8.6645959"><ele>248.99999999999997</ele><time>2026-04-12T16:00:48.413Z</time></trkpt><trkpt lat="45.6669048" lon="8.6644768"><ele>248.99999999999997</ele><time>2026-04-12T16:00:49.4Z</time></trkpt><trkpt lat="45.666946" lon="8.6643582"><ele>249.0</ele><time>2026-04-12T16:00:50.422Z</time></trkpt><trkpt lat="45.6669688" lon="8.6642304"><ele>249.0</ele><time>2026-04-12T16:00:51.41Z</time></trkpt><trkpt lat="45.6669854" lon="8.6641135"><ele>249.16666666666666</ele><time>2026-04-12T16:00:52.411Z</time></trkpt><trkpt lat="45.6670382" lon="8.6640482"><ele>249.33333333333331</ele><time>2026-04-12T16:00:53.417Z</time></trkpt><trkpt lat="45.6670922" lon="8.6639723"><ele>249.5</ele><time>2026-04-12T16:00:54.413Z</time></trkpt><trkpt lat="45.6671298" lon="8.6638936"><ele>249.66666666666666</ele><time>2026-04-12T16:00:55.402Z</time></trkpt><trkpt lat="45.6671687" lon="8.6638217"><ele>249.83333333333331</ele><time>2026-04-12T16:00:56.417Z</time></trkpt><trkpt lat="45.6672738" lon="8.6638403"><ele>250.0</ele><time>2026-04-12T16:00:58.404Z</time></trkpt><trkpt lat="45.6673459" lon="8.6638789"><ele>250.0</ele><time>2026-04-12T16:00:59.406Z</time></trkpt><trkpt lat="45.6674362" lon="8.6639167"><ele>250.0</ele><time>2026-04-12T16:01:00.416Z</time></trkpt><trkpt lat="45.6675165" lon="8.6639572"><ele>250.0</ele><time>2026-04-12T16:01:01.408Z</time></trkpt><trkpt lat="45.6675934" lon="8.6640004"><ele>250.0</ele><time>2026-04-12T16:01:02.416Z</time></trkpt><trkpt lat="45.6677013" lon="8.6640216"><ele>250.0</ele><time>2026-04-12T16:01:04.42Z</time></trkpt><trkpt lat="45.6678029" lon="8.6639591"><ele>247.8</ele><time>2026-04-12T16:01:06.411Z</time></trkpt><trkpt lat="45.6678757" lon="8.6639463"><ele>245.6</ele><time>2026-04-12T16:01:07.408Z</time></trkpt><trkpt lat="45.6679986" lon="8.6639115"><ele>243.39999999999998</ele><time>2026-04-12T16:01:08.408Z</time></trkpt><trkpt lat="45.6681246" lon="8.6638597"><ele>241.2</ele><time>2026-04-12T16:01:09.419Z</time></trkpt><trkpt lat="45.668242" lon="8.6638283"><ele>239.0</ele><time>2026-04-12T16:01:11.415Z</time></trkpt><trkpt lat="45.6682592" lon="8.6636774"><ele>244.5</ele><time>2026-04-12T16:01:13.407Z</time></trkpt><trkpt lat="45.6684598" lon="8.6633061"><ele>250.0</ele><time>2026-04-12T16:01:15.402Z</time></trkpt><trkpt lat="45.6685438" lon="8.6631681"><ele>247.5</ele><time>2026-04-12T16:01:16.417Z</time></trkpt><trkpt lat="45.668617" lon="8.6630416"><ele>245.0</ele><time>2026-04-12T16:01:17.408Z</time></trkpt><trkpt lat="45.6686703" lon="8.662942"><ele>242.5</ele><time>2026-04-12T16:01:18.423Z</time></trkpt><trkpt lat="45.6687904" lon="8.662769"><ele>240.0</ele><time>2026-04-12T16:01:19.409Z</time></trkpt><trkpt lat="45.668859" lon="8.6626577"><ele>240.0</ele><time>2026-04-12T16:01:20.409Z</time></trkpt><trkpt lat="45.6689115" lon="8.6625629"><ele>240.0</ele><time>2026-04-12T16:01:21.423Z</time></trkpt><trkpt lat="45.6689705" lon="8.6624288"><ele>240.0</ele><time>2026-04-12T16:01:23.413Z</time></trkpt><trkpt lat="45.6689983" lon="8.6623253"><ele>240.0</ele><time>2026-04-12T16:01:25.407Z</time></trkpt><trkpt lat="45.6690305" lon="8.6621675"><ele>240.0</ele><time>2026-04-12T16:01:27.422Z</time></trkpt><trkpt lat="45.6690465" lon="8.662062"><ele>240.0</ele><time>2026-04-12T16:01:29.409Z</time></trkpt><trkpt lat="45.6690237" lon="8.6619568"><ele>240.0</ele><time>2026-04-12T16:01:46.426Z</time></trkpt><trkpt lat="45.6689941" lon="8.6618444"><ele>240.0</ele><time>2026-04-12T16:01:49.419Z</time></trkpt><trkpt lat="45.6690401" lon="8.661652"><ele>240.0</ele><time>2026-04-12T16:01:51.423Z</time></trkpt><trkpt lat="45.6690674" lon="8.6615441"><ele>240.0</ele><time>2026-04-12T16:01:52.421Z</time></trkpt><trkpt lat="45.6690984" lon="8.661422"><ele>242.0</ele><time>2026-04-12T16:01:53.413Z</time></trkpt><trkpt lat="45.6691313" lon="8.6612853"><ele>244.0</ele><time>2026-04-12T16:01:54.412Z</time></trkpt><trkpt lat="45.669164" lon="8.6611553"><ele>246.0</ele><time>2026-04-12T16:01:55.412Z</time></trkpt><trkpt lat="45.6692027" lon="8.6610007"><ele>248.0</ele><time>2026-04-12T16:01:56.41Z</time></trkpt><trkpt lat="45.6692344" lon="8.6608313"><ele>250.0</ele><time>2026-04-12T16:01:57.413Z</time></trkpt><trkpt lat="45.6692677" lon="8.6606656"><ele>251.25</ele><time>2026-04-12T16:01:58.411Z</time></trkpt><trkpt lat="45.6693077" lon="8.660497"><ele>252.5</ele><time>2026-04-12T16:01:59.408Z</time></trkpt><trkpt lat="45.669356" lon="8.6603103"><ele>253.75</ele><time>2026-04-12T16:02:00.405Z</time></trkpt><trkpt lat="45.6693985" lon="8.660113"><ele>255.0</ele><time>2026-04-12T16:02:01.407Z</time></trkpt><trkpt lat="45.6694332" lon="8.6599187"><ele>253.0</ele><time>2026-04-12T16:02:02.418Z</time></trkpt><trkpt lat="45.6694698" lon="8.6597517"><ele>251.0</ele><time>2026-04-12T16:02:03.411Z</time></trkpt><trkpt lat="45.6695111" lon="8.6595902"><ele>249.0</ele><time>2026-04-12T16:02:04.405Z</time></trkpt><trkpt lat="45.6695444" lon="8.6594292"><ele>247.0</ele><time>2026-04-12T16:02:05.406Z</time></trkpt><trkpt lat="45.6695789" lon="8.6592623"><ele>247.0</ele><time>2026-04-12T16:02:06.415Z</time></trkpt><trkpt lat="45.6696137" lon="8.6590988"><ele>247.0</ele><time>2026-04-12T16:02:07.417Z</time></trkpt><trkpt lat="45.6696529" lon="8.6589403"><ele>247.0</ele><time>2026-04-12T16:02:08.406Z</time></trkpt><trkpt lat="45.6696861" lon="8.6587779"><ele>247.0</ele><time>2026-04-12T16:02:09.416Z</time></trkpt><trkpt lat="45.6697253" lon="8.6586082"><ele>247.5</ele><time>2026-04-12T16:02:10.408Z</time></trkpt><trkpt lat="45.6697665" lon="8.6584228"><ele>248.0</ele><time>2026-04-12T16:02:11.408Z</time></trkpt><trkpt lat="45.6698061" lon="8.6582382"><ele>248.5</ele><time>2026-04-12T16:02:12.418Z</time></trkpt><trkpt lat="45.6698568" lon="8.6580557"><ele>249.0</ele><time>2026-04-12T16:02:13.411Z</time></trkpt><trkpt lat="45.6699082" lon="8.6578752"><ele>249.5</ele><time>2026-04-12T16:02:14.408Z</time></trkpt><trkpt lat="45.6699606" lon="8.6577158"><ele>250.0</ele><time>2026-04-12T16:02:15.42Z</time></trkpt><trkpt lat="45.6700082" lon="8.6575703"><ele>250.5</ele><time>2026-04-12T16:02:16.414Z</time></trkpt><trkpt lat="45.6700522" lon="8.6574269"><ele>251.0</ele><time>2026-04-12T16:02:17.418Z</time></trkpt><trkpt lat="45.6700898" lon="8.6572771"><ele>251.0</ele><time>2026-04-12T16:02:18.416Z</time></trkpt><trkpt lat="45.6701115" lon="8.6571195"><ele>251.00000000000003</ele><time>2026-04-12T16:02:19.417Z</time></trkpt><trkpt lat="45.6701125" lon="8.6569621"><ele>251.00000000000003</ele><time>2026-04-12T16:02:20.422Z</time></trkpt><trkpt lat="45.6701101" lon="8.6568161"><ele>251.0</ele><time>2026-04-12T16:02:21.408Z</time></trkpt><trkpt lat="45.6701033" lon="8.6567"><ele>251.0</ele><time>2026-04-12T16:02:22.415Z</time></trkpt><trkpt lat="45.6700925" lon="8.6565905"><ele>252.16666666666669</ele><time>2026-04-12T16:02:23.415Z</time></trkpt><trkpt lat="45.6700837" lon="8.6564992"><ele>253.33333333333334</ele><time>2026-04-12T16:02:24.426Z</time></trkpt><trkpt lat="45.6700802" lon="8.656373"><ele>254.5</ele><time>2026-04-12T16:02:26.413Z</time></trkpt><trkpt lat="45.6700264" lon="8.6562982"><ele>255.66666666666669</ele><time>2026-04-12T16:02:31.42Z</time></trkpt><trkpt lat="45.6699365" lon="8.6563203"><ele>256.8333333333333</ele><time>2026-04-12T16:02:34.43Z</time></trkpt><trkpt lat="45.6698637" lon="8.6563484"><ele>258.0</ele><time>2026-04-12T16:02:37.421Z</time></trkpt><trkpt lat="45.6698051" lon="8.6563952"><ele>258.0</ele><time>2026-04-12T16:08:13.413Z</time></trkpt><trkpt lat="45.6697434" lon="8.6563745"><ele>258.0</ele><time>2026-04-12T16:11:53.406Z</time></trkpt><trkpt lat="45.6696108" lon="8.6563612"><ele>258.0</ele><time>2026-04-12T16:18:55.405Z</time></trkpt><trkpt lat="45.6695092" lon="8.6563479"><ele>258.0</ele><time>2026-04-12T16:18:58.42Z</time></trkpt><trkpt lat="45.6694148" lon="8.6563596"><ele>258.0</ele><time>2026-04-12T16:19:00.417Z</time></trkpt><trkpt lat="45.6692987" lon="8.6563604"><ele>258.5</ele><time>2026-04-12T16:19:02.416Z</time></trkpt><trkpt lat="45.6692205" lon="8.6563529"><ele>259.0</ele><time>2026-04-12T16:19:03.413Z</time></trkpt><trkpt lat="45.6691412" lon="8.6563478"><ele>259.5</ele><time>2026-04-12T16:19:04.416Z</time></trkpt><trkpt lat="45.6690496" lon="8.6563409"><ele>260.0</ele><time>2026-04-12T16:19:05.402Z</time></trkpt><trkpt lat="45.6689763" lon="8.6563432"><ele>260.5</ele><time>2026-04-12T16:19:06.404Z</time></trkpt><trkpt lat="45.6688898" lon="8.656325"><ele>261.0</ele><time>2026-04-12T16:19:08.408Z</time></trkpt><trkpt lat="45.6688995" lon="8.6561875"><ele>261.0</ele><time>2026-04-12T16:19:11.42Z</time></trkpt><trkpt lat="45.6689326" lon="8.6560704"><ele>261.0</ele><time>2026-04-12T16:19:13.416Z</time></trkpt><trkpt lat="45.668939" lon="8.6559322"><ele>261.0</ele><time>2026-04-12T16:19:15.412Z</time></trkpt><trkpt lat="45.6688665" lon="8.6558294"><ele>261.0</ele><time>2026-04-12T16:19:17.422Z</time></trkpt><trkpt lat="45.6687948" lon="8.6558131"><ele>261.0</ele><time>2026-04-12T16:19:18.427Z</time></trkpt><trkpt lat="45.6686983" lon="8.6558037"><ele>260.8333333333333</ele><time>2026-04-12T16:19:19.421Z</time></trkpt><trkpt lat="45.6686019" lon="8.6557993"><ele>260.6666666666667</ele><time>2026-04-12T16:19:20.412Z</time></trkpt><trkpt lat="45.6685056" lon="8.6557939"><ele>260.5</ele><time>2026-04-12T16:19:21.424Z</time></trkpt><trkpt lat="45.6684277" lon="8.6557788"><ele>260.33333333333337</ele><time>2026-04-12T16:19:22.422Z</time></trkpt><trkpt lat="45.6683464" lon="8.6557586"><ele>260.1666666666667</ele><time>2026-04-12T16:19:23.417Z</time></trkpt><trkpt lat="45.6682689" lon="8.6557225"><ele>260.0</ele><time>2026-04-12T16:19:24.42Z</time></trkpt><trkpt lat="45.6681814" lon="8.6556489"><ele>260.0</ele><time>2026-04-12T16:19:25.417Z</time></trkpt><trkpt lat="45.6680962" lon="8.6555382"><ele>260.0</ele><time>2026-04-12T16:19:26.403Z</time></trkpt><trkpt lat="45.6680052" lon="8.6554307"><ele>260.0</ele><time>2026-04-12T16:19:27.417Z</time></trkpt><trkpt lat="45.6679027" lon="8.6553489"><ele>260.0</ele><time>2026-04-12T16:19:28.406Z</time></trkpt><trkpt lat="45.6677966" lon="8.6552687"><ele>259.8</ele><time>2026-04-12T16:19:29.419Z</time></trkpt><trkpt lat="45.6676972" lon="8.6551892"><ele>259.6</ele><time>2026-04-12T16:19:30.424Z</time></trkpt><trkpt lat="45.6676004" lon="8.6551157"><ele>259.4</ele><time>2026-04-12T16:19:31.415Z</time></trkpt><trkpt lat="45.667512" lon="8.6550469"><ele>259.2</ele><time>2026-04-12T16:19:32.413Z</time></trkpt><trkpt lat="45.6674334" lon="8.6549809"><ele>259.0</ele><time>2026-04-12T16:19:33.426Z</time></trkpt><trkpt lat="45.6673648" lon="8.6549203"><ele>259.0</ele><time>2026-04-12T16:19:34.414Z</time></trkpt><trkpt lat="45.6673312" lon="8.6547712"><ele>259.0</ele><time>2026-04-12T16:19:36.407Z</time></trkpt><trkpt lat="45.6673318" lon="8.6546656"><ele>259.0</ele><time>2026-04-12T16:19:37.41Z</time></trkpt><trkpt lat="45.6673846" lon="8.6545515"><ele>259.0</ele><time>2026-04-12T16:19:38.409Z</time></trkpt><trkpt lat="45.6674404" lon="8.6544068"><ele>259.0</ele><time>2026-04-12T16:19:39.412Z</time></trkpt><trkpt lat="45.6674968" lon="8.6542544"><ele>259.0</ele><time>2026-04-12T16:19:40.414Z</time></trkpt><trkpt lat="45.6675491" lon="8.6541049"><ele>259.0</ele><time>2026-04-12T16:19:41.442Z</time></trkpt><trkpt lat="45.6675892" lon="8.6539714"><ele>259.0</ele><time>2026-04-12T16:19:42.42Z</time></trkpt><trkpt lat="45.6676155" lon="8.6538472"><ele>259.0</ele><time>2026-04-12T16:19:43.411Z</time></trkpt><trkpt lat="45.6676119" lon="8.6537302"><ele>259.0</ele><time>2026-04-12T16:19:44.412Z</time></trkpt><trkpt lat="45.6675829" lon="8.6536265"><ele>259.0</ele><time>2026-04-12T16:19:45.414Z</time></trkpt><trkpt lat="45.6675467" lon="8.653512"><ele>259.0</ele><time>2026-04-12T16:19:46.422Z</time></trkpt><trkpt lat="45.6674585" lon="8.6534217"><ele>259.0</ele><time>2026-04-12T16:19:47.402Z</time></trkpt><trkpt lat="45.6673513" lon="8.6533137"><ele>259.0</ele><time>2026-04-12T16:19:48.413Z</time></trkpt><trkpt lat="45.6672496" lon="8.6531981"><ele>259.0</ele><time>2026-04-12T16:19:49.422Z</time></trkpt><trkpt lat="45.6671487" lon="8.6530856"><ele>259.0</ele><time>2026-04-12T16:19:50.42Z</time></trkpt><trkpt lat="45.6670418" lon="8.6529659"><ele>259.0</ele><time>2026-04-12T16:19:51.424Z</time></trkpt><trkpt lat="45.6669284" lon="8.6528429"><ele>259.0</ele><time>2026-04-12T16:19:52.419Z</time></trkpt><trkpt lat="45.6668152" lon="8.6527237"><ele>258.5</ele><time>2026-04-12T16:19:53.412Z</time></trkpt><trkpt lat="45.6667059" lon="8.6525975"><ele>258.0</ele><time>2026-04-12T16:19:54.415Z</time></trkpt><trkpt lat="45.6665995" lon="8.6524782"><ele>257.5</ele><time>2026-04-12T16:19:55.409Z</time></trkpt><trkpt lat="45.6665046" lon="8.6523746"><ele>257.0</ele><time>2026-04-12T16:19:56.427Z</time></trkpt><trkpt lat="45.6664076" lon="8.6522652"><ele>257.0</ele><time>2026-04-12T16:19:57.404Z</time></trkpt><trkpt lat="45.6663109" lon="8.6521604"><ele>257.0</ele><time>2026-04-12T16:19:58.421Z</time></trkpt><trkpt lat="45.6662227" lon="8.6520661"><ele>257.0</ele><time>2026-04-12T16:19:59.418Z</time></trkpt><trkpt lat="45.6661336" lon="8.6519726"><ele>257.0</ele><time>2026-04-12T16:20:00.419Z</time></trkpt><trkpt lat="45.6660479" lon="8.6518786"><ele>258.0</ele><time>2026-04-12T16:20:01.424Z</time></trkpt><trkpt lat="45.6659588" lon="8.6518077"><ele>259.0</ele><time>2026-04-12T16:20:02.412Z</time></trkpt><trkpt lat="45.6658686" lon="8.6517356"><ele>260.0</ele><time>2026-04-12T16:20:03.409Z</time></trkpt><trkpt lat="45.6657657" lon="8.6517064"><ele>261.0</ele><time>2026-04-12T16:20:04.422Z</time></trkpt><trkpt lat="45.6656612" lon="8.6517101"><ele>262.0</ele><time>2026-04-12T16:20:05.406Z</time></trkpt><trkpt lat="45.665555" lon="8.6517127"><ele>262.0</ele><time>2026-04-12T16:20:06.409Z</time></trkpt><trkpt lat="45.6654447" lon="8.6517618"><ele>262.0</ele><time>2026-04-12T16:20:07.423Z</time></trkpt><trkpt lat="45.6653411" lon="8.6518099"><ele>262.0</ele><time>2026-04-12T16:20:08.412Z</time></trkpt><trkpt lat="45.6652436" lon="8.6518316"><ele>262.0</ele><time>2026-04-12T16:20:09.419Z</time></trkpt><trkpt lat="45.6651496" lon="8.6517851"><ele>262.0</ele><time>2026-04-12T16:20:10.413Z</time></trkpt><trkpt lat="45.6650456" lon="8.6517363"><ele>260.6</ele><time>2026-04-12T16:20:11.414Z</time></trkpt><trkpt lat="45.6649486" lon="8.6516487"><ele>259.2</ele><time>2026-04-12T16:20:12.418Z</time></trkpt><trkpt lat="45.6648566" lon="8.6515513"><ele>257.8</ele><time>2026-04-12T16:20:13.415Z</time></trkpt><trkpt lat="45.6647754" lon="8.6514443"><ele>256.4</ele><time>2026-04-12T16:20:14.406Z</time></trkpt><trkpt lat="45.6646977" lon="8.6513405"><ele>255.0</ele><time>2026-04-12T16:20:15.403Z</time></trkpt><trkpt lat="45.66464" lon="8.6512296"><ele>255.0</ele><time>2026-04-12T16:20:16.41Z</time></trkpt><trkpt lat="45.6645944" lon="8.6511256"><ele>255.0</ele><time>2026-04-12T16:20:17.414Z</time></trkpt><trkpt lat="45.6645396" lon="8.6510123"><ele>255.0</ele><time>2026-04-12T16:20:18.419Z</time></trkpt><trkpt lat="45.6644741" lon="8.6508826"><ele>255.0</ele><time>2026-04-12T16:20:19.423Z</time></trkpt><trkpt lat="45.66441" lon="8.6507485"><ele>255.0</ele><time>2026-04-12T16:20:20.422Z</time></trkpt><trkpt lat="45.6643489" lon="8.6506114"><ele>255.25</ele><time>2026-04-12T16:20:21.411Z</time></trkpt><trkpt lat="45.6642797" lon="8.6504576"><ele>255.5</ele><time>2026-04-12T16:20:22.411Z</time></trkpt><trkpt lat="45.6642144" lon="8.650316"><ele>255.75</ele><time>2026-04-12T16:20:23.406Z</time></trkpt><trkpt lat="45.6641645" lon="8.6501845"><ele>256.0</ele><time>2026-04-12T16:20:24.411Z</time></trkpt><trkpt lat="45.66411" lon="8.6500529"><ele>256.0</ele><time>2026-04-12T16:20:25.415Z</time></trkpt><trkpt lat="45.6640587" lon="8.6499283"><ele>256.0</ele><time>2026-04-12T16:20:26.411Z</time></trkpt><trkpt lat="45.6639913" lon="8.6497889"><ele>256.0</ele><time>2026-04-12T16:20:27.41Z</time></trkpt><trkpt lat="45.6639301" lon="8.6496526"><ele>256.0</ele><time>2026-04-12T16:20:28.416Z</time></trkpt><trkpt lat="45.6638764" lon="8.64952"><ele>256.0</ele><time>2026-04-12T16:20:29.41Z</time></trkpt><trkpt lat="45.6638186" lon="8.649388"><ele>255.4</ele><time>2026-04-12T16:20:30.407Z</time></trkpt><trkpt lat="45.6637652" lon="8.6492449"><ele>254.8</ele><time>2026-04-12T16:20:31.41Z</time></trkpt><trkpt lat="45.6637148" lon="8.6491099"><ele>254.20000000000002</ele><time>2026-04-12T16:20:32.405Z</time></trkpt><trkpt lat="45.6636651" lon="8.6489967"><ele>253.60000000000002</ele><time>2026-04-12T16:20:33.409Z</time></trkpt><trkpt lat="45.6636043" lon="8.6489115"><ele>253.0</ele><time>2026-04-12T16:20:34.42Z</time></trkpt><trkpt lat="45.6635354" lon="8.6488365"><ele>252.99999999999997</ele><time>2026-04-12T16:20:36.419Z</time></trkpt><trkpt lat="45.6635765" lon="8.6489171"><ele>253.0</ele><time>2026-04-12T16:20:55.423Z</time></trkpt><trkpt lat="45.663637" lon="8.6489801"><ele>253.0</ele><time>2026-04-12T16:20:57.419Z</time></trkpt><trkpt lat="45.6637243" lon="8.6491064"><ele>253.0</ele><time>2026-04-12T16:20:59.417Z</time></trkpt><trkpt lat="45.6637682" lon="8.6491927"><ele>252.99999999999997</ele><time>2026-04-12T16:21:00.424Z</time></trkpt><trkpt lat="45.6638123" lon="8.6492832"><ele>253.0</ele><time>2026-04-12T16:21:01.416Z</time></trkpt><trkpt lat="45.6638564" lon="8.6493918"><ele>253.60000000000002</ele><time>2026-04-12T16:21:02.416Z</time></trkpt><trkpt lat="45.6639102" lon="8.6495087"><ele>254.20000000000002</ele><time>2026-04-12T16:21:03.423Z</time></trkpt><trkpt lat="45.66396" lon="8.6496329"><ele>254.8</ele><time>2026-04-12T16:21:04.418Z</time></trkpt><trkpt lat="45.6640069" lon="8.6497468"><ele>255.4</ele><time>2026-04-12T16:21:05.418Z</time></trkpt><trkpt lat="45.664049" lon="8.6498539"><ele>256.0</ele><time>2026-04-12T16:21:06.412Z</time></trkpt><trkpt lat="45.6640913" lon="8.6499589"><ele>256.0</ele><time>2026-04-12T16:21:07.41Z</time></trkpt><trkpt lat="45.664134" lon="8.6500593"><ele>256.0</ele><time>2026-04-12T16:21:08.414Z</time></trkpt><trkpt lat="45.6641707" lon="8.6501478"><ele>256.0</ele><time>2026-04-12T16:21:09.41Z</time></trkpt><trkpt lat="45.6642204" lon="8.6503038"><ele>256.0</ele><time>2026-04-12T16:21:11.407Z</time></trkpt><trkpt lat="45.6642836" lon="8.6504532"><ele>256.0</ele><time>2026-04-12T16:21:13.417Z</time></trkpt><trkpt lat="45.6643336" lon="8.6505859"><ele>255.83333333333331</ele><time>2026-04-12T16:21:15.408Z</time></trkpt><trkpt lat="45.6643787" lon="8.6506852"><ele>255.66666666666666</ele><time>2026-04-12T16:21:16.416Z</time></trkpt><trkpt lat="45.6644137" lon="8.650772"><ele>255.5</ele><time>2026-04-12T16:21:17.421Z</time></trkpt><trkpt lat="45.6644618" lon="8.6508761"><ele>255.33333333333331</ele><time>2026-04-12T16:21:18.407Z</time></trkpt><trkpt lat="45.6645056" lon="8.6509688"><ele>255.16666666666666</ele><time>2026-04-12T16:21:19.416Z</time></trkpt><trkpt lat="45.6645483" lon="8.6510552"><ele>255.0</ele><time>2026-04-12T16:21:20.406Z</time></trkpt><trkpt lat="45.6646197" lon="8.6511656"><ele>255.0</ele><time>2026-04-12T16:21:22.428Z</time></trkpt><trkpt lat="45.6646801" lon="8.6512602"><ele>255.0</ele><time>2026-04-12T16:21:25.414Z</time></trkpt><trkpt lat="45.6647351" lon="8.6513493"><ele>255.0</ele><time>2026-04-12T16:21:28.411Z</time></trkpt><trkpt lat="45.6647824" lon="8.6514187"><ele>255.0</ele><time>2026-04-12T16:21:30.437Z</time></trkpt><trkpt lat="45.6648649" lon="8.6515246"><ele>255.0</ele><time>2026-04-12T16:21:32.411Z</time></trkpt><trkpt lat="45.664924" lon="8.6515969"><ele>255.0</ele><time>2026-04-12T16:21:33.414Z</time></trkpt><trkpt lat="45.6649851" lon="8.6516593"><ele>255.0</ele><time>2026-04-12T16:21:34.414Z</time></trkpt><trkpt lat="45.665048" lon="8.6517123"><ele>255.0</ele><time>2026-04-12T16:21:35.425Z</time></trkpt><trkpt lat="45.6651144" lon="8.6517653"><ele>255.0</ele><time>2026-04-12T16:21:36.409Z</time></trkpt><trkpt lat="45.6651728" lon="8.6518058"><ele>255.0</ele><time>2026-04-12T16:21:37.419Z</time></trkpt><trkpt lat="45.6652368" lon="8.6518436"><ele>255.0</ele><time>2026-04-12T16:21:38.423Z</time></trkpt><trkpt lat="45.6653548" lon="8.6518746"><ele>255.0</ele><time>2026-04-12T16:21:40.408Z</time></trkpt><trkpt lat="45.6654731" lon="8.6518467"><ele>256.1666666666667</ele><time>2026-04-12T16:21:42.411Z</time></trkpt><trkpt lat="45.6655361" lon="8.6518198"><ele>257.3333333333333</ele><time>2026-04-12T16:21:43.412Z</time></trkpt><trkpt lat="45.6655984" lon="8.6517892"><ele>258.5</ele><time>2026-04-12T16:21:44.415Z</time></trkpt><trkpt lat="45.6656628" lon="8.6517627"><ele>259.66666666666663</ele><time>2026-04-12T16:21:45.412Z</time></trkpt><trkpt lat="45.6657704" lon="8.6517424"><ele>260.8333333333333</ele><time>2026-04-12T16:21:47.414Z</time></trkpt><trkpt lat="45.6658533" lon="8.651706"><ele>262.0</ele><time>2026-04-12T16:21:49.418Z</time></trkpt><trkpt lat="45.6659204" lon="8.6515757"><ele>262.0</ele><time>2026-04-12T16:21:51.413Z</time></trkpt><trkpt lat="45.6659965" lon="8.6514677"><ele>262.0</ele><time>2026-04-12T16:21:53.411Z</time></trkpt><trkpt lat="45.6660667" lon="8.6514032"><ele>262.0</ele><time>2026-04-12T16:21:55.407Z</time></trkpt><trkpt lat="45.6661366" lon="8.6513401"><ele>262.0</ele><time>2026-04-12T16:21:57.41Z</time></trkpt><trkpt lat="45.666204" lon="8.6512911"><ele>262.0</ele><time>2026-04-12T16:21:59.416Z</time></trkpt><trkpt lat="45.666283" lon="8.6512601"><ele>262.0</ele><time>2026-04-12T16:22:09.417Z</time></trkpt><trkpt lat="45.6663562" lon="8.6511979"><ele>263.2</ele><time>2026-04-12T16:22:12.413Z</time></trkpt><trkpt lat="45.6664618" lon="8.6510879"><ele>264.4</ele><time>2026-04-12T16:22:15.412Z</time></trkpt><trkpt lat="45.6665155" lon="8.6510071"><ele>265.6</ele><time>2026-04-12T16:22:16.408Z</time></trkpt><trkpt lat="45.6665676" lon="8.6509314"><ele>266.8</ele><time>2026-04-12T16:22:17.41Z</time></trkpt><trkpt lat="45.6666428" lon="8.6508245"><ele>268.0</ele><time>2026-04-12T16:22:19.411Z</time></trkpt><trkpt lat="45.6667283" lon="8.6507039"><ele>268.0</ele><time>2026-04-12T16:22:20.414Z</time></trkpt><trkpt lat="45.6668101" lon="8.650603"><ele>268.0</ele><time>2026-04-12T16:22:21.409Z</time></trkpt><trkpt lat="45.6668824" lon="8.650509"><ele>268.0</ele><time>2026-04-12T16:22:22.418Z</time></trkpt><trkpt lat="45.6669547" lon="8.6504183"><ele>268.0</ele><time>2026-04-12T16:22:23.406Z</time></trkpt><trkpt lat="45.6670253" lon="8.6503174"><ele>268.0</ele><time>2026-04-12T16:22:24.418Z</time></trkpt><trkpt lat="45.6670748" lon="8.6502182"><ele>267.66666666666663</ele><time>2026-04-12T16:22:25.42Z</time></trkpt><trkpt lat="45.6671116" lon="8.6501355"><ele>267.3333333333333</ele><time>2026-04-12T16:22:26.41Z</time></trkpt><trkpt lat="45.6671549" lon="8.6500409"><ele>267.0</ele><time>2026-04-12T16:22:27.41Z</time></trkpt><trkpt lat="45.6672032" lon="8.6499497"><ele>266.6666666666667</ele><time>2026-04-12T16:22:28.415Z</time></trkpt><trkpt lat="45.6672462" lon="8.6498607"><ele>266.33333333333337</ele><time>2026-04-12T16:22:29.413Z</time></trkpt><trkpt lat="45.6673053" lon="8.6497713"><ele>266.0</ele><time>2026-04-12T16:22:30.416Z</time></trkpt><trkpt lat="45.6673742" lon="8.6496687"><ele>266.0</ele><time>2026-04-12T16:22:31.435Z</time></trkpt><trkpt lat="45.667451" lon="8.6495627"><ele>266.0</ele><time>2026-04-12T16:22:32.416Z</time></trkpt><trkpt lat="45.6675113" lon="8.6494843"><ele>266.0</ele><time>2026-04-12T16:22:33.408Z</time></trkpt><trkpt lat="45.6675843" lon="8.6493554"><ele>266.0</ele><time>2026-04-12T16:22:34.418Z</time></trkpt><trkpt lat="45.6676579" lon="8.6492115"><ele>266.0</ele><time>2026-04-12T16:22:35.426Z</time></trkpt><trkpt lat="45.6677271" lon="8.6490648"><ele>266.0</ele><time>2026-04-12T16:22:36.42Z</time></trkpt><trkpt lat="45.667797" lon="8.64891"><ele>266.0</ele><time>2026-04-12T16:22:37.411Z</time></trkpt><trkpt lat="45.6678763" lon="8.6487432"><ele>266.0</ele><time>2026-04-12T16:22:38.417Z</time></trkpt><trkpt lat="45.6679434" lon="8.6486004"><ele>266.0</ele><time>2026-04-12T16:22:39.421Z</time></trkpt><trkpt lat="45.6679987" lon="8.6484676"><ele>266.0</ele><time>2026-04-12T16:22:40.425Z</time></trkpt><trkpt lat="45.6680527" lon="8.648329"><ele>266.0</ele><time>2026-04-12T16:22:41.407Z</time></trkpt><trkpt lat="45.6681032" lon="8.6482146"><ele>266.0</ele><time>2026-04-12T16:22:42.409Z</time></trkpt><trkpt lat="45.6681462" lon="8.648121"><ele>266.0</ele><time>2026-04-12T16:22:43.408Z</time></trkpt><trkpt lat="45.6681832" lon="8.648038"><ele>266.0</ele><time>2026-04-12T16:22:44.408Z</time></trkpt><trkpt lat="45.6682141" lon="8.6479537"><ele>266.0</ele><time>2026-04-12T16:22:45.416Z</time></trkpt><trkpt lat="45.6682607" lon="8.647797"><ele>266.6666666666667</ele><time>2026-04-12T16:22:47.421Z</time></trkpt><trkpt lat="45.6682811" lon="8.6476672"><ele>267.33333333333337</ele><time>2026-04-12T16:22:49.41Z</time></trkpt><trkpt lat="45.668312" lon="8.6475266"><ele>268.0</ele><time>2026-04-12T16:22:51.415Z</time></trkpt><trkpt lat="45.6683256" lon="8.6474376"><ele>268.6666666666667</ele><time>2026-04-12T16:22:52.417Z</time></trkpt><trkpt lat="45.6683403" lon="8.6473317"><ele>269.3333333333333</ele><time>2026-04-12T16:22:53.422Z</time></trkpt><trkpt lat="45.6683416" lon="8.6472214"><ele>270.0</ele><time>2026-04-12T16:22:54.413Z</time></trkpt><trkpt lat="45.6683415" lon="8.6471163"><ele>270.0</ele><time>2026-04-12T16:22:55.412Z</time></trkpt><trkpt lat="45.6683414" lon="8.6470235"><ele>270.0</ele><time>2026-04-12T16:22:56.405Z</time></trkpt><trkpt lat="45.668351" lon="8.6469219"><ele>270.0</ele><time>2026-04-12T16:22:57.418Z</time></trkpt><trkpt lat="45.6683498" lon="8.6468118"><ele>270.0</ele><time>2026-04-12T16:22:58.417Z</time></trkpt><trkpt lat="45.6683476" lon="8.6467192"><ele>270.0</ele><time>2026-04-12T16:22:59.415Z</time></trkpt><trkpt lat="45.6683421" lon="8.6465942"><ele>270.0</ele><time>2026-04-12T16:23:01.405Z</time></trkpt><trkpt lat="45.6683184" lon="8.6464804"><ele>270.0</ele><time>2026-04-12T16:23:03.405Z</time></trkpt><trkpt lat="45.6682876" lon="8.6463495"><ele>270.2</ele><time>2026-04-12T16:23:05.419Z</time></trkpt><trkpt lat="45.6682727" lon="8.6462364"><ele>270.4</ele><time>2026-04-12T16:23:07.406Z</time></trkpt><trkpt lat="45.6682716" lon="8.6461337"><ele>270.6</ele><time>2026-04-12T16:23:09.409Z</time></trkpt><trkpt lat="45.6682709" lon="8.6459873"><ele>270.8</ele><time>2026-04-12T16:23:11.414Z</time></trkpt><trkpt lat="45.6682751" lon="8.6458206"><ele>271.0</ele><time>2026-04-12T16:23:13.404Z</time></trkpt><trkpt lat="45.6682889" lon="8.6456505"><ele>269.0</ele><time>2026-04-12T16:23:15.408Z</time></trkpt><trkpt lat="45.6683128" lon="8.6454815"><ele>269.0</ele><time>2026-04-12T16:23:17.425Z</time></trkpt><trkpt lat="45.6683112" lon="8.6453255"><ele>269.0</ele><time>2026-04-12T16:23:19.421Z</time></trkpt><trkpt lat="45.6683188" lon="8.6452246"><ele>274.0</ele><time>2026-04-12T16:23:22.418Z</time></trkpt></trkseg></trk></gpx>